GFSSE_700_rhum_000.txt.gz
RH
6 4 6 6 5 3 2 3 3 2 2 2 2 2 2 2 3 3 3 3 4 4 4 5 5 5 6 6 7 7 8 9 10 10 10 10 11 14 15 14 16 16 16
4 5 7 7 5 3 3 2 2 2 2 2 2 2 3 3 4 4 4 4 5 5 6 6 7 7 7 8 8 9 9 10 11 11 12 14 15 15 16 17 16 16 15
4 8 8 6 3 2 3 2 3 2 2 2 2 3 4 5 4 4 4 5 5 6 7 7 7 8 8 8 8 9 10 11 12 14 14 15 15 18 17 16 16 15 13
8 9 7 5 1 2 2 3 2 3 3 3 3 4 5 5 5 5 5 6 6 7 7 8 8 8 8 8 9 10 11 12 14 14 14 15 18 17 16 16 15 12 12
10 8 8 5 1 2 2 3 3 3 3 3 4 5 5 6 6 6 6 6 7 7 7 8 8 8 8 9 10 11 13 13 13 13 15 18 17 16 16 15 12 13 13
12 9 8 5 2 2 3 3 4 4 4 4 4 5 6 6 6 6 6 6 6 7 7 7 8 8 9 9 10 12 13 13 13 14 17 17 16 17 16 13 13 14 12
15 9 7 4 3 2 3 4 4 4 4 4 5 6 6 6 6 6 6 6 6 7 7 8 8 8 9 10 11 13 14 13 14 16 18 16 17 17 16 14 14 14 12
26 13 5 4 3 2 2 4 4 4 4 4 5 5 5 7 8 8 8 7 7 7 8 8 8 9 10 11 12 14 14 14 15 18 17 17 17 18 17 15 15 15 13
35 21 8 3 2 3 2 3 4 5 4 4 4 5 6 8 8 9 9 8 8 8 8 8 9 9 10 11 13 14 14 14 16 18 17 17 18 19 18 18 18 16 15
42 33 14 7 2 2 3 2 3 4 4 5 5 5 6 7 8 9 9 8 8 8 8 9 9 10 10 12 13 14 14 15 16 18 18 18 18 20 19 21 20 18 16
39 44 34 13 7 3 2 2 2 3 3 4 4 6 6 7 9 9 8 7 8 9 9 10 10 10 11 12 14 14 15 15 16 18 19 18 19 20 20 21 20 21 20
36 39 42 30 13 7 4 2 3 3 3 4 4 6 8 9 9 8 8 9 9 10 10 11 11 12 12 13 15 16 16 16 16 17 19 20 20 21 22 21 22 22 22
36 36 37 39 32 17 9 6 4 5 7 8 9 10 11 11 10 8 8 10 10 11 12 13 13 13 13 14 16 17 18 18 18 19 19 21 22 22 23 23 22 23 24
37 35 32 31 31 30 20 13 7 5 9 12 14 15 14 12 9 8 9 10 12 13 14 15 15 14 14 14 14 17 19 19 19 19 20 21 22 22 23 24 24 23 23
38 37 36 32 31 30 28 23 14 9 7 11 15 17 16 14 12 10 10 11 13 13 14 15 17 17 16 15 15 16 18 20 22 22 22 22 23 22 23 24 24 24 24
39 39 40 39 37 33 30 29 24 15 12 8 12 17 19 18 15 14 13 14 15 16 17 16 16 17 18 19 18 16 17 19 22 23 23 24 23 24 24 25 26 26 26
40 42 40 38 40 38 38 38 34 30 22 19 12 12 18 20 17 15 13 14 17 15 12 14 16 18 20 21 22 22 20 18 20 22 24 25 25 24 26 26 27 27 27
39 33 35 37 37 41 43 44 44 42 37 35 34 22 16 18 23 23 17 13 11 10 10 13 17 19 21 22 22 23 24 24 22 20 21 23 26 26 25 26 27 27 27
12 12 23 38 42 44 46 46 47 48 47 44 45 46 44 25 19 22 20 14 10 9 9 13 18 20 23 24 25 25 24 25 26 26 23 21 22 24 26 28 28 28 29
16 17 18 18 19 28 39 46 48 49 50 50 51 52 53 52 32 29 30 27 20 16 12 15 20 22 25 27 27 28 27 27 26 26 27 27 24 22 23 24 26 28 29
18 19 18 18 17 21 21 27 30 42 51 52 53 54 55 55 50 31 40 32 28 26 21 18 20 23 26 28 28 27 28 27 26 26 26 28 28 26 24 23 24 24 25
19 13 10 8 13 20 22 26 32 32 38 50 51 48 51 54 51 39 44 44 38 29 26 23 21 23 26 29 28 26 25 25 24 26 27 26 26 28 27 25 24 24 25
24 24 23 16 10 8 16 19 31 35 33 37 44 45 50 47 46 45 40 38 42 40 35 30 27 25 25 30 28 29 30 30 30 27 25 25 26 26 27 30 28 26 28
24 23 22 20 15 14 15 16 27 36 36 39 43 44 48 46 46 42 40 36 40 38 34 32 31 25 25 30 30 31 33 33 33 32 29 27 26 28 29 30 34 32 34
24 23 22 22 20 19 22 29 36 40 40 40 39 41 44 45 42 41 34 35 35 37 35 32 32 26 26 32 30 32 34 35 35 36 33 30 30 27 27 31 30 33 33
27 26 25 23 22 21 22 28 35 37 34 30 29 29 28 28 28 28 29 30 32 32 31 32 30 24 27 32 32 34 36 37 37 38 38 36 33 32 30 27 31 33 34

GFSSE_700_rhum_003.txt.gz
RH
5 4 6 8 6 4 3 2 2 2 2 2 2 2 2 2 4 4 4 5 6 6 7 7 7 8 7 8 7 8 8 9 10 10 11 11 12 13 14 16 17 16 15
6 6 9 7 4 2 2 2 2 2 2 2 2 2 3 4 5 5 5 6 6 7 7 8 8 8 8 8 8 8 9 10 10 11 12 13 14 16 18 16 15 14 14
11 9 8 7 3 2 2 2 2 2 2 2 2 3 4 5 5 5 5 6 6 7 8 8 8 8 8 8 8 8 9 10 11 12 13 14 17 18 16 16 15 13 9
14 10 8 7 3 2 2 2 2 2 2 2 3 4 5 5 6 7 6 7 7 8 7 8 8 8 8 8 8 9 10 11 12 12 14 17 18 16 16 16 14 10 10
19 10 8 7 4 2 3 3 3 3 4 4 4 5 6 6 7 6 6 7 7 7 7 7 8 8 8 8 8 9 11 12 12 12 15 18 17 16 16 15 12 12 11
28 14 7 6 4 2 3 3 4 4 4 4 4 6 6 7 7 7 7 7 6 6 7 7 8 8 8 8 9 10 11 12 12 13 17 18 16 15 16 13 12 12 12
29 24 11 5 3 2 3 4 4 5 5 5 5 6 6 6 6 7 8 8 7 7 7 8 8 8 8 9 9 11 12 12 12 14 17 17 15 15 16 13 13 14 12
30 31 18 8 3 2 2 3 4 5 4 4 5 5 5 6 7 9 9 8 8 8 8 8 8 8 9 9 10 12 12 13 13 14 17 17 16 16 16 15 16 16 14
32 33 33 14 7 2 3 2 3 4 5 5 5 5 5 6 7 8 9 9 9 7 7 8 9 9 10 10 11 12 13 14 14 15 17 18 17 17 18 17 18 17 17
32 31 37 34 13 7 2 2 3 3 3 3 4 5 5 6 7 8 9 9 7 7 8 9 10 10 11 11 11 13 14 14 14 14 17 18 18 18 19 19 19 19 18
32 30 30 37 34 16 8 4 3 3 3 3 3 4 4 5 7 9 10 8 7 9 9 10 12 12 12 12 12 13 14 14 14 15 16 18 19 19 20 20 20 21 21
33 32 30 30 33 34 23 12 7 4 4 6 7 7 8 9 10 11 10 8 9 9 10 11 13 14 13 13 13 13 14 14 14 15 15 17 18 20 21 21 22 22 22
37 33 31 30 28 27 27 27 19 11 7 5 9 12 14 14 14 12 10 9 10 10 11 12 13 15 15 14 14 14 14 15 15 16 16 17 18 20 21 22 23 23 23
40 37 37 36 35 33 27 24 24 21 14 9 8 14 17 17 16 15 12 10 11 11 12 12 13 15 16 16 16 16 15 15 16 17 18 19 19 20 21 22 23 24 24
40 39 38 39 40 37 33 29 24 24 23 18 13 10 14 19 19 19 17 14 13 14 13 13 13 13 15 17 18 19 20 18 18 18 19 20 22 22 22 22 23 24 24
40 39 39 40 41 37 33 33 27 25 26 29 26 22 16 12 14 18 19 15 11 8 10 10 10 12 15 18 20 22 22 23 23 22 20 20 21 23 25 24 24 24 25
39 39 39 40 38 32 35 39 41 38 38 39 36 35 34 36 29 15 15 18 15 10 8 8 8 10 15 18 20 22 23 23 23 24 26 25 23 21 22 25 26 26 26
36 33 21 12 15 26 27 39 39 42 42 44 46 47 47 45 48 51 34 19 20 14 12 12 12 10 13 18 21 23 25 26 27 27 26 26 27 27 24 22 23 27 28
17 12 13 12 10 14 19 22 29 36 39 44 48 50 53 54 53 57 58 54 32 38 33 31 24 18 15 19 22 25 27 28 28 26 25 26 26 27 28 27 25 23 24
14 16 18 15 12 10 13 20 24 28 34 42 42 50 52 54 56 56 56 57 51 48 50 47 38 33 28 23 25 26 29 29 26 24 25 24 25 26 28 28 29 28 25
23 22 17 14 12 10 7 11 18 25 34 36 39 48 52 53 56 56 56 57 55 50 46 44 43 36 29 28 28 27 29 30 28 29 30 28 28 27 27 27 27 27 27
26 25 25 24 22 14 10 9 10 16 27 37 41 41 45 49 48 48 53 50 47 45 40 37 42 42 39 36 34 33 28 30 29 31 31 32 31 30 27 27 28 28 30
26 25 25 24 22 19 17 17 18 19 21 35 43 42 45 45 44 47 48 44 44 42 42 37 39 41 40 40 38 38 33 32 32 32 33 34 34 32 31 29 27 27 29
25 25 25 24 24 23 21 21 24 26 29 39 43 42 41 42 39 40 45 45 44 42 34 37 37 38 39 40 42 34 36 37 35 34 34 36 37 36 36 35 30 30 27
26 27 29 32 33 28 25 23 24 30 38 41 42 39 34 31 30 30 31 31 31 30 32 34 35 36 34 34 34 29 32 37 37 37 39 36 38 38 38 38 33 33 32
35 38 38 35 34 38 41 36 27 26 26 26 27 27 27 27 28 30 29 28 28 30 32 32 32 32 32 37 37 34 36 39 37 40 40 39 38 37 38 40 38 39 37

GFSSE_700_rhum_006.txt.gz
RH
8 6 9 8 6 4 3 3 2 2 2 2 2 2 2 2 4 4 4 4 6 6 7 8 8 9 9 8 8 8 8 8 9 10 10 11 11 12 14 16 16 15 14
14 11 9 8 6 2 2 2 2 2 2 2 2 2 2 4 5 5 5 6 7 7 7 8 8 9 9 9 8 8 8 9 10 10 11 11 12 16 17 16 15 14 12
19 12 9 8 6 2 2 2 2 2 2 2 2 3 4 6 6 6 6 6 7 8 8 8 8 8 9 9 8 8 8 9 10 11 11 12 16 18 15 15 14 12 8
27 16 9 8 6 2 3 2 2 2 2 3 3 4 6 7 7 6 7 8 8 8 7 7 7 8 8 8 8 8 9 10 11 11 12 15 18 16 15 15 14 10 10
29 26 12 6 5 3 3 3 3 3 3 4 4 5 6 6 6 6 7 8 7 7 7 7 7 8 8 8 8 9 10 11 11 12 14 16 18 16 16 15 12 12 12
29 28 22 9 4 3 2 4 4 4 4 4 5 6 7 6 6 7 7 7 8 7 8 8 8 8 8 8 9 9 10 12 12 13 16 18 18 16 16 16 12 12 12
31 29 30 16 5 2 2 3 4 5 4 5 5 5 6 6 6 6 8 9 8 8 8 8 8 8 9 9 10 10 11 12 12 14 16 18 18 16 17 16 14 14 14
32 30 30 30 13 4 2 2 3 4 5 4 4 5 5 5 6 8 8 9 9 9 8 8 8 9 10 10 10 11 11 12 12 13 15 18 18 17 17 18 17 17 16
33 30 29 30 33 12 4 2 3 3 3 4 5 5 5 5 6 7 8 9 9 9 8 8 9 10 11 12 11 11 12 12 13 13 16 17 18 18 18 19 19 18 17
37 32 30 29 34 34 15 7 3 3 3 3 3 4 4 5 6 7 8 10 9 8 8 9 10 11 12 13 12 12 12 13 13 14 16 17 18 19 19 19 20 20 20
40 36 32 31 29 30 32 26 14 8 5 5 6 6 6 6 7 9 10 10 10 10 10 10 11 12 14 14 13 13 13 13 14 15 16 17 17 18 20 20 21 22 22
42 40 37 34 34 32 29 27 26 22 14 8 7 9 11 11 12 13 13 12 11 10 10 11 11 12 14 15 14 14 14 14 15 16 16 18 18 18 20 21 22 22 23
42 41 40 38 38 38 37 34 28 25 23 18 12 8 11 15 17 16 15 14 12 10 10 11 12 13 14 15 16 16 16 16 16 16 17 18 20 20 21 21 21 22 23
42 41 40 40 39 40 40 38 33 29 26 24 24 19 14 11 15 19 20 20 18 13 11 12 14 14 13 15 17 19 20 20 20 19 18 18 19 20 21 22 22 22 23
42 41 39 40 40 40 40 39 33 27 26 26 29 30 29 27 23 16 14 16 18 17 14 12 14 16 16 15 17 19 21 22 23 23 24 23 22 20 21 22 23 24 24
41 39 39 39 39 39 36 36 36 31 35 35 35 38 37 39 39 41 39 26 19 20 17 14 13 13 12 13 15 17 19 20 22 23 24 25 25 25 25 23 21 22 24
37 38 38 36 26 14 12 22 33 36 38 44 45 46 47 49 49 46 47 54 57 47 28 35 38 30 26 22 14 14 16 20 24 26 28 28 28 28 27 27 27 24 23
35 32 23 14 12 11 12 18 24 30 43 47 48 49 50 51 54 55 56 56 56 56 57 41 49 49 42 35 28 23 21 24 26 28 28 27 26 28 28 28 29 30 28
25 13 15 17 16 16 14 13 15 22 28 37 49 52 51 50 51 52 51 51 51 51 52 56 50 48 47 44 34 29 27 26 28 30 28 26 27 27 27 28 30 30 30
16 19 22 21 20 19 18 12 12 18 29 35 44 53 53 51 49 48 49 53 53 54 56 55 53 50 44 41 44 42 36 31 31 28 30 28 30 31 32 30 29 29 30
25 25 25 25 25 25 22 16 18 19 20 27 37 41 45 48 48 50 54 52 48 50 54 49 47 45 41 38 42 42 40 40 34 28 29 31 30 34 34 34 32 30 28
26 26 26 26 25 24 23 20 18 22 25 28 31 35 45 46 44 44 47 45 46 48 49 45 45 43 42 40 39 42 42 34 32 32 30 33 32 33 35 37 36 34 32
27 26 26 25 25 26 25 24 23 25 28 33 35 35 41 45 44 44 44 42 39 40 46 46 46 44 41 36 37 39 42 40 40 29 26 33 34 34 36 38 38 38 37
27 27 28 32 35 31 28 30 34 34 29 25 25 30 34 38 37 35 33 31 30 31 32 34 33 32 31 32 34 34 35 38 52 45 25 31 35 35 36 38 39 39 38
30 31 33 36 31 29 24 20 21 24 31 36 32 28 26 26 26 26 25 25 25 26 26 27 29 33 35 36 36 37 32 31 34 48 58 32 35 35 37 38 39 39 39
34 34 36 35 31 29 26 22 24 32 38 39 38 36 35 35 35 36 36 36 36 36 35 33 33 32 35 61 73 75 73 67 53 51 62 62 56 42 42 38 38 38 40

GFSSE_700_rhum_009.txt.gz
RH
17 14 10 9 8 4 2 2 3 3 3 3 2 2 2 2 3 4 4 4 5 6 6 6 7 8 8 9 9 9 8 8 9 10 10 10 10 11 13 16 16 15 13
24 17 11 9 8 5 2 3 2 2 3 2 2 2 2 3 4 5 5 5 6 6 7 7 8 8 8 9 9 9 8 8 10 10 11 11 12 14 17 16 14 13 11
29 26 14 8 7 5 2 2 2 2 2 2 2 2 3 5 5 5 5 5 5 6 8 8 8 8 8 9 9 8 8 9 10 11 11 11 14 17 16 15 14 12 9
28 28 23 10 5 4 2 3 3 2 2 2 3 3 4 6 5 6 6 7 7 7 7 7 7 8 8 8 9 8 9 9 11 11 11 12 16 17 16 15 14 10 10
29 28 28 16 6 3 2 3 4 4 4 4 4 4 6 6 6 6 7 7 7 7 7 8 8 8 8 8 9 9 9 10 11 12 12 13 17 17 16 16 14 11 11
31 30 28 28 12 3 3 3 4 4 4 4 4 4 6 7 7 7 7 7 8 9 8 9 8 8 8 9 10 10 10 10 11 12 12 14 16 17 16 16 16 13 12
32 31 29 30 27 9 3 3 3 4 5 4 5 5 5 6 6 6 7 9 9 9 9 9 8 8 9 10 11 11 11 11 12 13 13 14 16 18 17 17 17 16 14
36 32 29 29 34 23 8 3 3 3 4 5 5 5 5 5 6 6 7 8 8 9 10 8 8 9 10 11 12 11 11 12 12 13 13 14 16 18 18 18 18 18 17
41 37 31 30 31 35 26 10 4 3 3 3 3 4 5 5 6 6 7 8 8 10 9 8 9 10 11 12 12 12 12 12 13 13 14 14 17 18 19 19 19 20 20
42 40 36 32 30 29 31 29 20 11 6 5 5 5 5 5 5 6 7 9 10 10 9 9 10 11 12 13 13 13 13 13 13 14 15 16 16 18 20 20 20 20 21
42 41 40 38 36 36 33 30 27 26 21 13 8 8 9 9 9 10 11 12 12 11 10 10 11 12 13 14 15 14 14 14 14 15 16 18 18 19 19 21 22 22 22
41 41 42 40 39 39 39 38 34 29 26 24 20 13 11 14 15 16 16 16 15 13 11 10 11 12 14 15 16 16 16 16 15 15 16 18 19 20 20 21 21 22 23
41 41 42 41 40 40 40 41 40 35 30 26 25 25 21 16 14 17 19 21 21 20 18 14 15 16 17 16 17 18 19 19 19 19 18 18 18 18 19 21 22 23 23
42 42 42 41 39 38 40 40 41 40 35 31 29 29 30 30 30 27 22 17 17 20 22 19 15 15 18 20 19 19 20 21 22 23 23 23 23 22 20 20 21 22 25
41 40 40 39 38 39 39 39 40 42 42 42 39 39 41 41 42 42 44 47 43 28 21 20 18 19 18 18 17 16 18 20 21 21 22 24 24 25 25 25 24 22 23
42 41 40 40 39 33 20 18 34 43 47 46 46 47 47 49 52 53 50 50 57 56 57 52 43 42 47 43 36 33 22 17 17 19 22 25 27 28 28 27 27 27 26
38 37 37 35 28 17 15 15 17 40 52 52 48 47 49 50 52 54 54 55 55 55 54 53 53 55 48 49 50 48 38 32 23 21 24 27 28 29 29 30 30 31 30
36 36 34 26 18 20 19 18 18 21 25 31 45 50 46 46 47 50 53 54 54 52 51 51 52 53 55 54 47 46 48 38 29 25 27 28 30 30 28 28 28 29 31
27 19 17 17 20 20 19 19 17 20 24 33 38 42 52 57 52 49 49 49 50 52 54 53 53 57 57 53 51 49 42 42 41 34 28 29 30 30 28 28 30 31 31
17 22 25 25 23 21 21 21 20 20 24 25 30 38 45 50 53 52 48 46 46 50 52 48 48 52 55 47 47 39 38 33 35 36 34 33 29 29 31 30 32 34 34
24 26 26 26 26 25 24 23 22 22 22 27 30 29 29 34 40 45 45 44 44 45 45 44 43 49 51 48 46 45 44 40 34 32 39 37 36 35 30 31 31 35 36
27 28 27 26 26 25 27 28 28 28 27 27 26 27 30 31 35 38 42 42 42 42 43 44 44 41 44 48 48 48 41 32 27 30 33 35 37 41 32 33 33 34 35
29 28 27 27 28 30 28 22 21 19 18 19 23 27 28 28 29 34 38 38 37 37 34 34 33 35 36 38 40 51 48 41 38 31 27 28 30 34 32 31 36 34 35
30 30 31 32 33 30 24 23 17 16 17 19 23 30 33 32 31 31 31 31 31 32 31 31 31 31 30 30 34 43 59 73 86 71 59 46 30 28 27 25 33 36 36
34 34 34 34 34 32 28 24 23 24 25 27 32 37 39 40 40 40 41 42 42 43 45 45 44 43 42 42 50 69 77 78 73 90 97 99 75 54 55 45 41 38 36
35 34 37 35 31 30 33 34 33 32 33 34 35 36 38 39 40 41 42 44 45 45 45 45 46 48 52 56 60 60 60 72 83 89 94 88 95 66 74 69 67 71 59

GFSSE_700_rhum_012.txt.gz
RH
28 21 13 9 8 7 3 2 3 2 2 3 2 2 2 2 3 4 4 4 4 5 6 6 6 7 8 9 9 9 9 9 9 10 11 10 10 11 14 16 16 14 11
30 28 20 10 6 5 3 3 2 2 2 2 3 2 2 3 4 4 5 5 5 6 6 7 7 8 8 8 9 9 8 9 9 10 11 10 11 13 15 15 14 11 10
29 28 26 15 6 4 3 3 3 3 3 2 3 3 3 4 5 5 5 5 6 6 7 8 7 8 8 9 9 8 8 9 10 11 11 11 12 15 16 15 13 11 9
30 28 29 24 10 3 3 3 3 3 3 3 3 3 4 5 5 6 7 7 7 7 7 7 7 8 8 8 8 9 10 10 10 11 11 11 13 16 16 16 15 12 10
32 30 30 31 19 5 3 3 4 4 4 4 4 4 5 5 6 6 7 7 7 8 8 8 8 8 8 8 9 10 11 10 11 12 11 12 14 16 17 16 16 15 12
32 31 30 32 31 12 3 3 4 5 5 5 5 5 5 6 7 7 7 7 9 10 9 9 9 8 8 9 10 11 11 11 11 12 12 12 14 16 17 17 17 17 16
38 34 31 31 34 28 9 3 3 4 5 5 5 5 5 5 6 6 7 8 9 9 9 10 9 8 9 10 11 12 12 11 12 12 12 12 14 16 18 18 18 18 18
41 39 33 31 31 34 30 13 4 3 3 3 4 5 5 5 6 6 6 7 8 8 10 10 8 8 9 10 12 13 12 12 12 13 13 14 14 15 17 18 18 19 19
42 42 39 34 32 30 30 30 24 14 7 5 5 4 4 4 5 6 6 7 8 9 10 10 8 9 10 11 13 14 13 12 12 14 15 15 14 15 16 18 19 19 20
42 43 42 40 38 38 36 31 28 26 23 17 10 8 8 8 8 8 8 10 11 11 11 11 10 10 11 12 13 14 14 13 13 14 15 16 16 16 16 18 19 21 22
41 42 43 42 41 40 40 40 39 34 28 24 22 18 12 10 13 14 14 15 15 14 13 12 12 12 13 13 14 15 15 15 14 14 15 16 17 18 18 19 20 22 23
41 42 42 42 41 40 40 40 42 41 38 30 26 25 23 17 14 16 17 19 20 20 20 18 16 14 14 15 15 16 17 17 17 17 16 17 18 19 20 21 22 22 23
41 42 41 41 40 39 38 39 40 42 42 37 32 31 32 30 26 22 18 16 16 16 18 19 19 16 14 15 17 17 18 19 20 20 20 20 19 19 20 20 21 22 24
41 42 41 42 40 37 39 39 40 41 43 44 40 38 41 40 40 40 40 43 40 32 24 22 22 20 18 17 17 18 19 20 22 22 23 24 24 24 24 24 23 22 22
42 42 42 41 41 40 39 33 32 40 44 47 46 46 47 49 50 50 50 48 51 54 56 56 53 49 43 40 41 35 31 28 22 18 19 21 22 23 25 26 26 26 26
40 40 38 38 38 35 28 19 19 23 42 48 49 46 47 49 51 53 55 56 57 58 57 57 56 55 54 54 52 50 52 51 44 33 21 17 20 23 26 28 28 29 29
38 38 37 37 36 31 23 21 19 16 20 30 44 51 46 44 45 47 51 54 56 56 56 54 54 54 54 55 55 55 53 48 49 48 36 25 21 24 27 29 29 28 29
36 36 36 35 28 23 22 24 25 23 21 24 29 35 49 54 52 46 46 46 47 48 48 48 51 52 52 51 52 54 46 41 40 39 39 37 31 26 26 29 30 29 27
25 23 18 16 17 20 22 23 23 24 26 32 34 37 43 43 41 42 46 46 46 45 45 44 44 49 48 44 46 48 50 41 39 37 33 31 33 34 31 27 30 32 31
20 19 25 26 26 25 24 24 24 23 26 30 33 30 28 28 29 29 32 36 42 44 44 45 46 49 48 45 44 41 47 47 45 44 44 43 42 34 35 34 33 30 32
21 26 26 27 27 26 25 26 28 28 28 28 28 28 30 34 38 39 39 39 45 47 48 49 48 47 45 47 46 40 38 39 40 42 45 42 40 39 38 41 41 39 36
27 28 28 27 28 30 30 25 23 20 19 19 21 25 29 32 33 33 34 35 37 36 36 35 33 33 32 32 33 34 32 30 29 29 28 29 31 35 35 36 40 41 45
30 29 30 32 32 32 30 27 26 23 20 19 20 23 27 30 32 35 36 36 37 37 38 38 39 41 41 42 44 46 50 49 56 51 55 51 54 44 54 67 52 39 45
33 33 33 32 32 32 30 26 25 29 30 28 29 30 31 32 33 33 34 35 36 37 37 38 38 39 39 40 41 44 50 57 83 67 65 76 82 54 54 51 60 72 66
34 35 36 35 32 28 29 33 36 37 38 38 37 38 38 39 40 42 43 45 47 48 48 47 46 44 43 42 40 40 41 44 50 61 48 47 55 67 64 60 59 75 66
38 38 36 34 33 35 39 41 42 44 45 45 45 46 47 49 51 53 54 54 53 52 51 50 49 49 50 49 48 46 44 42 40 41 44 41 44 43 48 56 65 63 63

GFSSE_700_rhum_015.txt.gz
RH
30 28 24 13 6 5 4 3 3 3 3 3 3 2 2 2 2 4 4 4 4 5 6 7 8 8 8 8 9 9 9 9 8 9 10 11 10 11 13 15 15 13 10
29 28 27 18 7 4 3 3 3 3 3 3 2 2 2 3 4 5 5 5 6 6 6 7 8 8 8 8 9 9 8 9 9 10 11 11 10 11 14 15 15 11 10
31 30 29 27 11 3 3 3 3 3 3 3 3 2 3 4 5 6 5 5 6 7 8 8 7 8 8 8 8 8 9 9 10 10 11 11 11 12 15 15 15 12 9
32 31 30 31 20 4 3 4 4 4 4 3 3 3 4 5 6 6 6 7 7 8 8 8 8 8 8 8 8 9 10 10 10 11 12 11 11 12 16 16 16 15 12
34 31 30 31 30 11 3 3 4 5 4 4 4 4 6 6 6 6 7 7 7 8 9 9 9 9 8 8 9 10 11 11 11 11 12 12 12 13 16 16 16 16 16
40 36 31 30 33 27 7 3 3 4 5 5 5 5 5 6 6 7 7 7 8 10 10 10 10 9 8 8 10 11 12 12 11 12 12 12 12 13 15 16 16 17 18
41 40 35 31 30 32 27 10 4 3 4 4 5 5 5 5 6 6 6 7 8 8 9 9 10 9 8 9 10 12 12 12 12 12 12 13 13 13 15 17 17 18 18
41 42 41 36 33 31 30 28 21 11 6 4 4 4 4 5 5 6 6 7 7 8 8 10 10 9 8 9 10 12 13 13 12 12 13 13 13 14 15 17 18 18 19
41 43 42 41 39 38 37 31 28 26 23 16 10 7 7 6 6 6 6 7 7 8 10 10 10 10 10 10 11 12 13 14 13 12 13 14 15 15 16 17 18 18 19
40 43 43 42 41 41 40 40 40 36 29 24 22 18 12 10 10 10 10 10 11 12 12 12 11 10 10 10 11 12 13 14 14 13 13 14 15 16 16 16 17 18 19
40 42 42 42 42 41 40 40 41 42 41 34 27 24 21 17 14 13 14 15 16 16 16 16 15 13 12 12 12 13 14 15 15 15 14 15 16 16 17 17 18 18 19
40 42 42 42 42 40 39 39 40 41 42 41 35 28 26 25 22 19 18 19 20 20 20 21 21 20 18 17 16 17 18 17 18 18 17 16 16 17 17 18 18 19 20
40 41 42 41 41 40 38 38 39 40 42 43 42 36 35 36 34 32 32 31 28 25 23 20 21 23 22 20 19 20 22 22 22 21 21 20 20 19 19 19 18 19 19
41 41 42 42 42 41 40 38 39 39 41 44 45 44 43 45 46 45 44 45 48 51 53 52 49 45 40 37 33 31 30 29 26 23 20 22 23 23 24 23 23 23 23
42 41 42 41 41 40 39 38 31 22 31 42 46 46 45 48 50 52 54 55 56 56 55 55 55 56 56 55 54 51 48 42 39 35 25 20 18 19 21 22 23 24 25
41 41 39 38 37 37 36 32 24 19 18 34 45 48 46 44 46 49 51 54 56 57 56 55 54 51 49 49 51 54 55 53 48 38 33 27 24 22 18 18 20 24 27
37 36 37 36 37 37 36 30 24 25 24 25 38 46 51 49 45 44 44 46 48 49 47 45 44 42 43 47 47 47 48 50 52 51 39 33 34 36 36 30 26 25 26
33 33 32 33 34 32 31 25 25 28 30 29 28 30 31 33 33 32 32 39 45 48 51 52 50 48 45 43 42 44 43 44 46 49 53 46 41 40 37 38 42 40 31
29 24 21 18 19 20 21 22 24 24 26 28 28 28 28 32 33 35 40 45 47 49 53 51 51 51 48 47 46 43 42 42 42 41 44 51 51 47 46 44 42 39 42
24 20 21 26 27 26 25 25 24 25 25 26 27 29 35 41 45 47 48 48 47 46 46 47 46 45 42 36 33 31 31 30 30 29 30 32 36 42 47 50 50 47 44
24 24 27 28 28 27 28 29 28 25 22 24 28 33 37 39 40 41 39 37 36 36 35 36 36 36 37 39 37 36 35 34 35 36 35 35 34 32 33 35 39 42 43
27 29 29 29 31 32 31 28 25 25 24 22 20 22 27 30 33 35 36 36 37 37 37 36 36 35 35 36 36 36 34 32 33 32 33 33 34 36 40 43 55 57 54
32 31 32 32 32 32 32 29 26 24 26 29 29 29 30 32 33 35 37 38 40 41 41 42 42 43 43 43 45 46 43 40 39 38 38 38 38 38 38 39 42 50 62
37 35 34 33 32 29 24 26 32 36 38 39 39 39 39 40 42 43 45 48 49 50 50 51 51 51 51 51 51 52 52 53 51 40 41 42 43 42 40 38 38 40 46
37 38 37 33 28 26 29 38 40 41 42 44 45 46 47 48 50 53 54 54 53 53 52 52 51 51 51 50 50 50 50 52 55 54 44 47 48 47 46 45 44 41 40
40 39 37 35 33 34 41 45 45 46 47 46 48 50 51 53 55 56 55 52 48 44 41 40 42 46 48 49 50 52 53 52 51 45 44 46 45 44 43 42 42 42 41

GFSSE_700_rhum_018.txt.gz
RH
30 28 28 23 11 4 3 3 3 2 3 3 3 3 2 2 2 4 4 4 4 6 6 7 7 8 8 9 9 9 9 9 8 9 9 10 11 10 11 14 15 15 11
32 31 30 28 17 4 3 3 3 3 3 3 3 3 3 2 4 5 5 5 5 6 6 7 8 8 8 8 8 9 9 8 9 9 10 11 11 11 12 15 15 14 9
33 31 30 30 25 7 3 4 3 3 3 3 3 3 3 3 5 6 5 6 6 6 7 8 8 8 8 8 9 8 8 9 10 10 10 11 11 11 12 15 15 15 10
34 31 30 29 30 13 3 4 4 4 4 3 3 3 4 5 6 6 6 7 7 8 8 8 8 9 9 9 8 8 9 10 11 11 11 12 12 11 12 15 15 15 14
39 37 32 29 30 26 6 3 4 5 5 4 4 4 5 6 6 6 7 7 7 8 8 9 10 10 10 8 8 9 10 11 12 11 11 12 12 11 12 14 15 15 16
39 40 36 32 30 31 24 5 3 4 5 5 5 5 5 6 6 7 7 7 7 8 10 10 10 10 10 8 8 10 11 12 12 11 12 12 12 11 12 14 15 16 16
41 42 40 37 33 30 30 26 11 4 4 4 5 5 5 6 6 6 6 6 7 8 8 9 9 10 10 8 8 10 11 12 12 12 12 12 12 12 12 13 15 16 16
41 43 42 41 39 38 35 29 27 22 15 8 5 5 4 5 5 6 7 7 7 8 8 8 9 10 10 9 9 9 11 12 13 13 12 12 13 13 13 13 14 15 16
39 41 43 42 41 41 40 39 37 31 26 23 20 14 9 7 7 7 6 6 7 7 8 9 10 11 10 10 10 10 10 12 14 14 13 12 13 13 13 13 14 15 16
39 41 43 42 42 41 40 40 41 41 40 35 28 23 19 15 12 11 11 12 12 12 13 13 13 13 12 12 11 12 12 12 13 15 14 14 14 14 14 14 14 15 16
41 40 42 42 41 41 40 40 40 41 41 41 39 31 25 22 18 16 16 16 17 18 19 19 20 19 18 17 16 15 15 15 15 16 16 16 15 14 15 16 16 16 16
42 40 41 41 41 40 39 38 38 39 41 42 42 39 32 30 28 25 23 21 20 20 21 20 20 20 22 22 20 19 18 18 19 18 18 19 18 17 16 16 17 17 17
41 40 40 41 42 40 39 37 36 38 40 42 43 43 41 38 38 36 36 36 38 39 41 40 38 35 31 26 25 23 21 20 19 18 18 19 20 20 20 20 19 18 18
42 42 41 41 42 42 40 39 38 39 36 36 43 45 45 44 45 46 47 46 47 47 46 41 40 41 42 44 47 47 44 40 35 30 24 20 21 18 19 21 23 23 23
42 42 42 42 42 41 40 39 38 34 25 24 38 43 44 45 45 46 47 48 50 49 49 49 48 47 47 50 51 50 50 51 52 52 50 47 40 36 28 20 17 19 21
40 41 42 41 38 38 38 38 38 32 23 21 24 31 38 42 42 41 42 43 45 46 46 45 47 48 48 48 47 48 49 49 48 49 50 50 52 54 47 40 38 34 27
39 40 38 35 33 37 38 39 38 33 28 28 26 24 25 28 31 30 35 42 41 43 45 47 49 52 52 52 48 47 46 45 43 44 46 44 45 46 53 53 43 43 44
37 35 33 30 28 28 32 34 34 32 31 30 28 28 28 28 30 32 35 38 43 48 50 50 51 48 47 49 46 46 46 45 42 42 42 43 43 42 42 49 53 49 48
34 32 29 24 20 21 21 23 26 29 29 28 29 32 35 35 37 39 43 45 46 47 48 44 41 39 38 38 37 35 34 33 32 32 32 32 32 31 32 36 41 49 54
32 28 24 23 26 27 26 25 25 26 27 28 29 32 36 42 46 47 45 42 39 37 37 38 38 39 39 37 36 34 34 34 34 34 34 34 34 36 37 38 39 39 38
28 26 26 28 28 28 27 28 29 28 25 22 21 23 28 34 37 36 36 37 37 37 36 36 37 38 39 42 41 38 37 36 30 32 31 33 34 34 34 35 36 39 42
29 29 30 31 31 32 32 31 29 28 27 27 26 26 26 29 31 34 35 36 38 41 43 44 44 43 42 42 41 37 31 24 27 32 32 30 31 34 36 36 37 38 40
31 33 33 33 33 34 32 29 26 26 29 33 35 36 37 38 39 40 41 42 42 44 46 46 44 43 40 40 42 46 42 37 29 28 24 29 29 34 37 40 41 44 45
34 36 35 34 34 31 25 24 27 34 37 40 42 43 43 42 40 40 44 47 48 48 46 43 40 34 30 29 30 34 37 42 43 26 31 31 33 35 38 38 41 42 44
38 37 36 35 30 28 27 30 39 42 42 41 38 36 38 40 45 49 50 48 41 31 23 19 20 23 25 28 32 35 38 40 41 41 30 34 34 29 29 26 26 24 24
39 38 37 34 33 28 28 35 45 46 45 46 46 46 47 46 44 42 39 30 24 18 21 24 27 30 34 38 41 43 44 41 39 35 34 32 31 27 26 24 20 15 13

GFSSE_700_rhum_021.txt.gz
RH
32 31 28 26 25 10 3 3 3 2 2 3 3 3 3 2 2 3 4 4 4 5 6 6 7 8 9 9 9 9 9 9 9 9 9 9 10 11 11 10 12 14 13
33 30 29 28 27 16 3 3 3 2 2 3 3 3 2 2 3 4 5 5 5 6 7 7 8 9 9 9 9 8 9 9 8 8 9 10 11 11 11 11 14 14 13
34 32 29 28 28 21 4 4 4 3 2 2 3 3 2 3 4 6 6 6 6 6 6 7 9 9 8 9 9 9 8 8 8 10 11 11 11 11 11 11 13 14 14
38 37 33 29 29 28 10 3 5 5 4 3 3 3 3 4 5 6 6 6 7 8 8 8 9 9 9 9 9 8 8 8 10 11 11 11 11 11 11 11 14 15 15
38 38 36 32 30 30 21 4 4 5 5 5 4 4 5 5 6 6 7 7 8 8 8 8 9 10 10 10 10 8 8 9 10 12 12 11 12 12 11 11 12 14 15
41 39 39 37 33 30 29 19 5 4 5 5 5 5 5 6 6 7 7 8 8 8 8 9 10 10 10 10 10 8 8 10 11 12 12 11 11 12 12 11 12 13 14
41 41 41 40 39 36 32 28 25 16 7 4 4 5 5 5 6 6 6 7 7 7 8 9 9 9 9 9 10 9 8 9 11 12 13 12 12 12 12 12 12 12 14
39 40 42 42 41 40 39 38 33 27 24 20 13 8 5 4 4 5 6 6 7 7 8 8 8 9 9 10 10 10 9 10 11 12 13 13 12 12 12 12 12 12 12
38 39 42 42 42 42 41 41 41 40 39 34 27 22 18 14 9 7 7 7 7 7 8 8 9 11 11 12 11 11 11 10 11 12 13 14 14 13 13 13 13 13 13
39 39 40 41 42 42 41 40 40 40 40 41 40 37 29 23 19 15 12 12 12 12 13 14 15 14 14 14 14 13 13 12 12 12 13 14 15 15 14 14 14 15 14
38 40 40 40 42 42 41 40 39 38 40 40 40 41 39 32 26 22 20 18 18 18 19 19 18 19 18 18 19 18 17 16 15 15 14 15 16 16 16 16 15 15 16
40 41 41 40 41 41 41 40 38 37 37 40 41 40 38 36 32 28 27 27 27 26 26 27 28 29 29 29 28 25 24 21 19 17 16 16 17 18 18 19 19 18 17
41 40 41 40 40 41 42 40 39 38 37 40 41 40 39 37 36 35 33 32 33 32 32 33 36 37 36 40 42 46 46 47 47 44 43 41 36 32 26 21 19 21 22
42 41 42 42 41 42 43 42 40 40 39 36 27 34 40 41 41 40 38 36 37 34 36 38 44 45 47 50 52 52 52 51 49 47 44 44 44 51 53 52 44 33 24
39 40 43 43 43 43 41 38 38 38 37 32 22 21 31 37 38 39 41 41 41 41 43 44 45 44 45 45 45 45 45 45 45 44 42 40 39 41 46 50 52 53 48
38 36 41 43 42 40 38 39 39 39 38 34 24 24 25 28 33 36 43 45 46 45 47 50 51 53 53 49 47 48 47 44 43 44 44 42 41 39 42 45 48 49 54
32 26 40 41 39 36 36 39 39 39 40 35 27 29 30 30 31 35 41 48 49 48 51 50 49 47 45 49 44 41 41 41 42 44 42 40 36 35 36 38 44 46 48
19 26 39 37 33 30 28 30 35 36 38 34 30 32 31 35 37 41 44 47 49 54 54 53 47 41 37 36 32 32 34 35 35 35 36 35 34 34 34 33 32 32 35
30 38 35 32 30 24 22 23 26 30 34 34 34 30 34 36 40 45 48 52 55 52 48 42 38 37 37 36 35 34 34 35 36 36 36 37 38 37 36 35 35 35 36
36 34 32 28 24 26 26 26 26 28 30 31 33 33 38 40 45 47 45 47 44 40 37 38 37 37 38 39 39 37 33 29 28 27 26 22 25 29 32 30 33 33 32
35 31 27 25 27 28 27 27 27 28 29 28 25 24 29 31 31 32 32 34 35 35 36 38 40 40 37 34 28 24 22 19 16 27 18 24 21 22 24 25 27 36 53
34 30 27 29 30 30 31 31 31 31 30 29 28 29 30 31 32 34 36 39 41 42 41 37 31 28 26 24 20 15 10 9 11 17 20 20 19 19 20 22 24 28 35
33 29 30 32 32 33 33 32 29 25 26 31 36 38 40 41 42 42 40 36 33 32 29 28 24 16 12 12 13 18 17 16 14 16 16 17 19 24 24 24 25 28 29
32 32 33 34 34 33 29 24 24 27 34 40 42 43 41 38 36 35 33 32 32 31 26 20 17 14 15 16 18 22 25 28 29 22 24 25 25 25 26 25 25 25 25
33 34 36 35 35 30 27 23 23 28 38 43 44 45 42 36 29 29 28 23 18 18 18 17 15 17 20 22 26 28 30 30 30 31 24 29 27 28 25 23 22 22 26
36 38 37 36 34 32 31 29 29 38 47 50 49 46 42 32 21 18 18 18 16 14 16 18 22 24 26 27 30 33 36 36 32 27 18 12 10 8 6 6 5 6 8

GFSSE_700_rhum_024.txt.gz
RH
32 31 29 28 27 23 9 3 4 3 2 2 3 3 3 2 2 2 3 4 4 5 6 6 8 8 9 10 10 9 9 9 9 9 8 9 9 10 11 11 10 10 13
33 32 30 28 27 26 13 3 4 3 2 3 3 2 2 2 2 3 5 6 6 6 7 8 8 9 10 10 9 9 9 9 9 8 8 9 10 10 11 11 11 10 12
36 36 34 30 28 27 17 3 4 5 3 2 2 2 2 2 3 5 6 6 6 7 7 8 8 9 9 9 9 10 9 8 8 8 9 11 11 11 11 11 10 10 12
37 35 33 33 30 28 27 9 3 5 5 4 3 3 3 3 4 6 7 6 7 7 7 8 9 9 9 10 10 10 10 8 7 9 10 11 11 11 11 11 11 10 12
41 39 36 34 34 30 29 24 6 4 5 5 5 5 5 5 6 7 7 7 8 8 8 9 9 9 10 11 10 10 10 8 8 9 11 12 12 11 11 11 11 10 11
43 41 39 37 37 37 33 29 26 11 4 4 5 5 5 5 6 7 8 8 8 8 8 8 9 10 10 10 10 10 10 9 9 10 11 12 12 12 11 12 12 11 11
42 40 40 40 39 39 39 37 33 28 24 18 9 5 4 5 5 6 6 6 7 7 7 7 8 8 9 9 10 10 10 10 9 10 11 12 13 13 12 12 12 12 12
43 39 40 41 41 41 41 40 39 39 38 33 28 24 19 12 8 6 5 5 5 6 6 7 7 8 8 9 10 10 11 11 10 10 10 12 13 14 14 13 13 13 13
42 39 39 40 40 42 41 41 41 40 40 40 40 39 36 29 23 18 14 11 10 9 9 9 9 10 12 13 13 13 14 13 13 12 11 11 12 13 14 14 14 14 14
40 39 38 40 40 41 41 41 41 40 40 39 40 40 40 39 36 29 24 21 18 17 16 16 16 16 17 17 17 17 17 16 17 17 16 16 16 16 16 16 16 16 15
39 38 38 41 41 41 41 42 41 41 40 39 39 40 38 30 28 28 28 26 24 24 25 25 27 28 29 30 30 29 30 29 29 28 28 24 22 20 18 18 18 19 20
38 40 41 40 40 40 41 42 42 41 40 39 39 38 25 23 24 24 29 28 28 28 29 30 32 32 31 33 36 34 29 31 30 29 28 35 38 43 46 44 38 29 23
42 43 42 41 42 41 42 43 43 42 40 39 37 31 18 19 23 29 32 34 34 33 35 38 41 42 42 41 39 38 38 35 37 39 39 39 40 41 44 47 48 46 46
44 44 40 41 43 43 43 43 42 38 37 38 37 29 20 22 25 28 35 38 39 37 39 38 40 40 40 41 41 40 38 39 37 40 41 42 44 43 42 42 43 48 48
44 44 42 39 42 43 43 42 39 38 38 39 38 32 25 26 29 30 35 40 43 42 44 44 46 45 44 42 40 39 36 40 41 41 39 38 38 42 43 43 44 44 45
45 44 42 33 38 43 42 40 39 40 40 40 40 34 29 31 31 32 37 40 41 41 39 41 42 42 43 40 39 38 37 36 34 36 36 37 36 35 34 33 32 35 39
43 41 35 28 34 41 39 36 36 38 40 40 40 35 32 32 34 37 39 41 40 46 46 46 47 39 36 34 31 30 31 32 32 34 35 36 35 35 34 34 34 34 34
32 30 28 22 37 38 35 30 28 30 31 34 36 33 29 32 34 36 37 42 44 44 43 40 36 31 30 32 32 33 34 35 36 37 35 34 32 30 31 32 36 38 40
21 20 18 30 37 33 31 27 23 25 25 26 32 34 33 35 36 30 27 31 36 34 33 32 32 33 35 37 38 39 36 31 26 23 22 17 16 17 18 20 21 24 25
19 27 36 35 33 28 24 25 26 26 27 30 30 31 33 29 25 25 28 29 29 31 33 35 37 40 41 36 27 20 18 14 10 9 8 9 9 12 14 15 19 21 21
38 37 35 32 26 24 27 27 27 27 29 30 28 28 28 28 29 30 32 35 38 40 41 40 35 28 26 22 12 7 7 7 8 10 12 12 14 16 23 25 21 23 22
36 35 34 29 26 29 29 30 31 32 32 31 28 28 32 36 39 41 42 41 38 35 31 28 21 13 10 10 8 7 7 7 9 10 11 12 11 12 12 13 15 18 21
37 35 31 29 31 33 33 33 31 28 26 29 34 39 42 42 41 40 38 34 25 16 11 10 9 9 8 8 10 12 11 11 8 8 8 9 10 10 11 11 12 12 11
36 33 31 32 34 34 33 29 26 24 26 33 40 43 45 46 42 37 29 16 11 10 10 10 9 9 9 10 12 16 19 22 20 10 8 8 10 10 9 8 6 5 4
35 33 33 35 36 35 31 28 28 28 32 40 47 49 47 43 37 30 17 11 10 10 9 9 9 10 12 14 16 16 15 15 14 11 9 9 9 8 6 6 5 5 5
35 35 36 38 37 35 33 35 36 35 37 44 49 51 50 44 37 22 12 11 10 9 9 9 11 13 14 15 16 16 14 12 10 8 9 9 8 7 6 6 6 5 4

GFSSE_700_rhum_027.txt.gz
RH
33 33 31 28 27 25 20 4 4 4 2 2 2 3 3 2 2 2 2 2 4 4 4 5 7 8 9 10 10 10 9 9 9 9 9 8 8 10 10 11 11 11 11
36 35 33 32 28 26 24 9 4 5 3 2 2 3 2 2 2 2 3 5 6 5 6 7 8 9 9 9 10 10 9 9 9 8 8 8 10 11 11 11 11 11 10
38 36 33 32 30 28 27 20 4 5 5 4 2 2 2 2 3 4 5 6 6 6 7 7 8 8 8 10 9 9 10 10 9 8 8 9 10 11 11 11 11 11 10
40 39 38 34 30 32 29 28 14 4 5 5 5 4 3 3 4 5 6 7 7 7 7 7 8 9 9 9 10 10 10 10 10 8 8 9 11 12 12 11 11 11 11
42 41 40 36 33 34 35 32 28 22 6 4 5 5 5 5 6 7 7 7 7 8 8 8 9 9 9 10 11 11 10 10 10 9 8 9 11 12 12 12 12 12 12
43 42 40 38 36 37 37 38 36 32 28 23 11 5 5 5 6 6 6 7 8 8 8 8 8 8 9 10 10 9 9 9 10 10 9 9 10 12 13 12 12 12 12
43 42 40 38 37 39 38 39 40 40 39 38 34 28 23 15 8 6 5 6 6 6 7 7 7 7 8 8 8 8 8 10 10 11 11 11 10 11 13 14 13 13 13
41 42 39 39 39 40 40 40 40 41 40 40 40 40 39 37 30 24 19 16 12 10 9 8 9 9 10 11 12 13 14 14 14 14 14 14 13 12 13 14 14 14 14
39 42 40 39 39 40 40 41 41 41 41 40 40 40 40 39 37 35 30 24 21 19 18 18 18 18 18 18 18 18 19 18 18 18 18 17 17 17 16 16 16 16 16
39 40 40 38 40 41 41 41 42 41 41 41 40 39 39 32 22 23 24 25 24 24 25 27 28 30 32 32 32 32 32 30 32 31 31 32 34 26 21 21 20 21 22
40 39 38 40 42 41 41 41 42 42 42 41 40 39 35 23 17 22 23 25 26 26 28 32 33 34 35 35 34 33 34 37 36 37 40 43 40 35 33 34 35 36 34
39 38 40 42 41 41 41 41 42 42 42 40 38 37 34 18 19 23 25 27 27 29 30 33 35 35 36 37 40 39 38 36 33 34 35 37 36 36 39 41 44 43 41
41 42 43 43 40 41 42 42 42 43 41 38 38 37 33 18 22 23 25 30 32 34 35 36 37 38 38 36 35 34 33 32 33 33 32 31 34 38 42 42 44 44 45
44 43 44 43 40 39 38 42 42 42 38 35 36 37 36 22 24 26 28 30 32 33 36 35 34 34 34 34 32 32 33 31 28 27 27 28 30 31 36 37 40 51 47
45 44 44 44 42 36 32 39 42 40 36 36 38 39 38 29 27 28 29 30 30 31 31 32 32 31 30 27 24 23 22 23 26 29 31 32 32 31 32 33 33 34 41
42 43 43 45 40 34 31 38 41 38 37 36 39 39 37 33 30 33 33 32 34 32 28 24 23 24 23 25 26 27 30 32 34 36 36 36 34 35 36 35 35 36 36
34 37 43 42 36 28 30 38 39 36 34 31 33 33 33 32 36 37 35 37 34 28 25 27 26 26 28 30 32 34 35 36 36 35 33 31 28 26 26 26 24 24 36
32 32 32 31 28 26 30 39 37 32 29 25 27 31 34 38 36 34 35 32 31 29 28 29 30 33 35 35 36 35 30 24 19 14 11 11 10 9 9 10 11 13 16
26 24 24 23 22 26 35 36 32 29 24 26 30 37 39 36 34 30 29 29 29 30 34 36 38 38 36 31 24 20 17 12 8 7 7 7 8 8 9 10 12 12 15
21 21 20 22 29 34 35 32 27 25 27 28 32 34 34 31 30 30 31 34 37 40 41 40 35 31 24 14 9 7 7 7 7 7 8 8 11 10 10 11 11 13 16
24 25 33 38 36 34 30 25 27 28 29 31 30 30 31 31 32 37 41 43 42 38 35 30 20 9 8 8 7 7 7 7 7 8 9 9 9 10 10 11 12 13 12
33 38 38 36 33 28 27 29 29 30 32 33 31 31 35 39 42 43 43 42 38 30 19 10 8 8 8 8 7 6 7 8 8 8 7 8 7 7 7 7 8 8 8
37 37 36 34 31 29 31 32 34 32 29 29 33 37 41 43 45 46 43 37 25 14 10 9 8 8 8 7 7 8 8 8 6 7 6 7 7 7 8 8 8 8 7
39 38 35 33 30 32 34 34 31 27 26 27 32 40 47 50 50 47 40 30 14 9 9 9 9 8 7 8 8 9 11 12 10 8 7 7 7 8 8 8 8 8 8
38 38 35 33 34 35 35 32 29 32 34 36 40 48 52 53 51 41 26 13 9 9 9 9 8 8 8 9 9 9 9 10 12 11 9 8 8 9 9 9 10 10 10
38 37 35 35 37 37 35 34 37 40 41 44 48 51 51 46 39 30 21 12 10 10 10 9 9 9 10 10 11 11 13 13 12 10 9 9 10 9 10 9 9 9 10

GFSSE_700_rhum_030.txt.gz
RH
33 32 31 30 29 26 25 12 4 5 4 2 2 3 3 3 3 3 3 2 2 3 4 4 4 5 7 8 8 9 10 9 9 9 9 9 8 9 11 11 11 11 12
35 35 33 31 30 28 27 20 5 5 5 4 2 2 3 2 2 2 2 3 5 5 5 5 6 6 7 8 8 9 9 9 10 10 9 8 9 10 11 11 11 12 12
37 38 38 35 32 31 29 27 17 4 5 5 5 3 3 3 2 3 4 6 6 6 6 6 7 7 7 8 9 9 9 10 10 10 9 8 9 11 12 12 12 12 12
40 41 40 37 33 33 34 32 29 26 12 5 5 5 5 5 4 5 6 6 6 7 7 7 8 8 9 9 9 10 11 11 11 10 10 9 9 10 12 12 12 12 12
41 42 41 39 35 36 36 36 37 34 30 27 16 7 5 5 6 6 7 7 7 8 8 8 8 9 9 9 10 11 10 10 10 10 10 10 10 10 12 13 13 12 12
43 43 41 39 36 37 38 38 38 39 39 38 37 33 29 20 9 6 6 6 6 7 7 7 7 8 8 8 8 9 9 9 9 10 10 10 10 11 11 12 13 13 13
41 44 42 39 38 39 39 39 38 38 40 40 40 40 39 38 34 27 21 14 10 7 7 6 7 7 7 8 9 10 12 12 13 13 13 13 12 12 12 12 12 14 14
40 42 42 39 39 40 41 40 40 39 40 40 40 40 40 39 37 36 33 28 22 20 17 16 16 16 16 17 17 18 18 18 18 18 18 18 17 16 15 16 15 15 14
39 40 42 40 39 40 41 41 41 40 40 40 40 39 39 36 26 20 22 24 24 23 23 23 24 25 26 27 27 28 28 28 26 26 26 26 24 24 21 20 20 20 20
39 39 41 40 39 42 41 41 42 42 41 40 39 38 38 32 19 18 20 23 24 23 24 26 28 29 30 29 30 32 33 32 31 33 35 36 35 35 36 36 36 35 28
40 40 40 39 41 41 41 41 41 42 42 40 35 35 37 32 17 19 22 24 24 26 27 26 28 28 31 31 31 31 32 31 31 32 34 35 35 36 35 37 38 36 35
41 40 39 40 43 43 42 42 42 43 42 40 32 33 37 34 18 23 26 27 28 28 29 30 30 30 31 32 33 33 33 32 35 33 33 35 35 35 36 37 38 40 41
43 40 41 43 44 40 40 41 42 43 42 40 34 34 38 37 22 24 28 28 27 28 29 31 33 33 32 32 32 31 30 29 27 24 23 23 23 24 25 29 37 73 76
44 45 43 44 44 43 41 36 35 41 42 40 36 37 38 38 28 24 27 28 29 30 32 33 32 32 29 26 24 23 22 22 23 27 29 30 31 31 31 32 32 31 34
43 44 44 45 45 44 42 36 33 39 41 38 35 34 36 35 28 27 30 30 31 31 32 30 27 26 26 25 25 26 29 32 34 34 34 32 32 32 32 30 28 29 30
41 40 43 44 44 45 39 33 32 38 39 36 32 29 30 35 35 35 35 34 33 34 29 28 27 27 26 29 32 34 36 36 36 33 28 24 21 18 17 17 16 15 17
35 39 38 40 43 40 33 31 32 36 37 35 30 28 31 39 43 43 41 38 35 34 30 29 29 32 35 37 37 35 30 29 24 20 16 12 9 8 8 8 8 8 8
34 34 35 34 33 30 28 33 30 39 38 33 29 28 31 40 43 42 39 33 32 31 31 36 38 39 37 32 28 24 20 13 9 7 7 8 7 7 7 8 8 9 10
29 34 30 32 30 27 26 30 39 40 36 31 27 30 39 43 41 38 32 32 32 38 40 40 38 34 29 21 11 8 8 7 7 7 7 7 8 8 9 10 9 9 9
23 26 30 31 28 25 29 38 41 36 34 28 31 35 37 40 35 33 32 39 42 41 40 38 34 24 12 8 7 8 8 8 7 7 8 8 9 10 9 8 8 7 8
26 24 26 27 25 28 41 37 35 30 31 32 35 34 33 33 33 39 42 43 43 42 39 29 15 8 8 8 9 9 8 8 8 8 9 8 8 8 8 8 8 8 8
28 28 26 28 36 38 36 32 29 32 34 32 34 32 32 37 40 43 45 48 46 39 27 14 8 8 8 9 10 10 10 10 9 8 8 8 8 8 8 7 7 7 7
31 33 36 39 37 32 29 29 31 32 34 32 30 32 37 41 46 50 51 49 39 26 13 9 8 9 10 10 9 9 9 10 9 8 8 8 9 8 7 7 7 8 8
35 37 37 37 35 32 30 33 35 34 31 28 30 36 40 48 52 53 48 39 26 15 10 9 10 10 10 10 9 8 8 8 8 8 9 9 9 8 7 7 7 8 8
42 36 39 38 34 32 36 36 34 30 32 38 41 44 47 51 51 46 41 30 20 12 11 11 11 10 10 9 9 8 8 8 9 10 9 9 8 8 8 8 8 9 9
45 38 38 37 34 34 36 36 33 37 42 44 47 49 51 52 50 43 34 27 18 13 12 12 11 11 10 10 9 10 10 10 9 9 9 9 8 8 8 8 9 10 11

GFSSE_700_rhum_033.txt.gz
RH
33 32 32 30 28 27 25 17 4 5 5 3 2 3 3 3 3 4 4 4 3 3 3 4 4 4 4 6 8 8 9 9 9 9 10 9 8 9 10 11 11 11 12
34 34 36 33 30 29 28 26 11 4 5 5 4 3 3 3 2 2 3 3 4 5 5 5 5 6 6 7 8 9 9 9 9 10 10 10 8 9 10 12 12 12 12
36 37 38 36 32 31 31 30 28 17 6 5 5 5 5 4 3 3 4 5 6 6 6 6 6 7 7 7 8 9 9 10 11 11 11 10 9 9 10 12 12 12 12
37 40 40 38 34 33 34 35 34 31 30 22 10 6 5 6 6 6 6 7 7 7 7 8 8 8 8 9 9 10 11 11 11 11 10 10 10 10 10 12 12 12 12
40 42 42 40 36 35 35 35 37 38 37 37 35 32 21 10 6 6 6 7 7 8 8 8 8 8 9 9 9 10 10 10 10 9 9 9 9 10 10 10 12 13 13
41 43 42 40 38 38 38 37 37 38 39 40 39 39 38 35 32 24 16 9 6 6 6 6 7 7 8 8 8 8 8 8 9 10 10 11 11 11 11 11 12 12 13
40 42 43 41 39 39 40 40 39 39 39 40 40 40 39 39 38 37 33 27 22 18 16 13 11 10 10 10 11 12 14 15 15 16 15 16 15 15 14 13 12 13 13
40 41 43 41 39 39 41 41 41 41 40 40 40 39 39 38 32 27 26 28 27 24 22 21 20 19 20 20 20 20 20 21 20 20 20 20 20 19 18 18 18 16 16
40 40 41 42 39 40 41 41 42 42 41 40 40 38 39 35 26 17 17 20 24 25 25 24 25 26 27 28 28 28 30 31 32 33 32 33 34 33 31 28 28 26 21
41 39 41 42 40 41 42 41 41 42 42 42 39 36 38 36 24 19 21 21 21 22 22 22 24 25 26 27 28 28 29 29 29 30 30 31 31 31 30 31 30 29 29
41 40 40 41 40 42 42 41 41 42 43 42 39 34 36 37 28 20 24 26 26 28 28 28 28 29 30 31 31 31 31 31 32 32 32 33 33 32 33 32 33 36 39
46 42 41 41 40 44 44 43 43 43 44 42 40 33 35 38 35 22 25 28 29 30 30 29 30 31 32 32 32 31 31 31 31 30 29 29 28 28 29 32 68 81 60
47 44 41 42 44 45 42 42 42 42 42 43 41 36 36 38 38 29 25 29 30 30 30 31 32 33 34 32 30 31 29 25 24 25 24 25 27 30 31 31 31 32 32
43 46 45 44 45 44 43 43 40 39 42 43 41 39 38 39 40 37 29 28 32 32 33 34 34 31 30 29 27 27 28 29 30 32 32 33 33 32 29 28 27 30 32
38 38 45 46 45 45 44 42 39 39 39 41 41 40 39 39 39 38 33 32 34 33 34 34 29 28 28 26 27 31 34 34 34 31 28 27 23 19 16 14 13 12 14
42 41 44 42 45 45 45 41 37 36 38 40 40 39 37 36 37 37 35 33 34 33 30 29 29 26 28 35 36 35 32 26 21 18 16 14 13 10 9 7 7 7 6
45 44 48 43 41 43 44 41 35 33 36 37 38 38 35 34 36 43 40 40 35 31 30 29 29 34 35 35 32 28 23 15 9 8 7 7 7 7 7 7 7 7 7
46 34 36 38 40 38 38 37 33 31 34 38 41 36 35 36 42 43 43 37 32 30 30 38 38 38 37 34 26 16 9 8 8 8 8 8 7 7 7 8 8 8 9
44 37 38 40 41 38 34 32 30 33 42 45 46 47 48 44 44 42 35 32 30 33 38 40 40 38 31 19 10 8 8 8 9 9 8 8 8 8 9 9 9 8 8
43 40 28 27 38 40 37 33 32 41 47 47 46 54 43 44 39 35 32 34 34 37 40 42 39 31 17 9 8 8 9 10 9 9 9 9 9 10 9 8 8 8 8
43 41 34 28 29 34 35 32 31 47 49 60 42 42 41 37 34 34 37 37 39 44 45 40 27 14 8 8 8 9 10 10 10 10 10 10 9 8 9 9 9 9 8
44 42 37 32 28 28 30 31 46 50 45 42 40 37 35 33 35 39 42 47 49 48 37 23 13 10 9 9 10 12 13 12 12 11 10 9 8 8 9 9 9 9 8
47 44 37 34 32 33 37 43 40 36 38 39 38 33 33 34 39 46 51 53 46 36 25 15 11 11 12 12 13 13 13 13 13 12 10 10 10 10 10 10 9 8 8
50 47 39 38 41 40 37 32 32 37 38 37 34 32 37 42 47 51 51 46 36 27 19 14 14 14 15 14 13 11 10 10 10 13 13 12 12 11 9 8 7 6 7
52 52 42 40 39 36 33 31 33 36 35 33 35 42 45 48 51 51 48 41 32 24 18 16 16 16 15 13 12 10 10 10 10 11 13 12 8 6 6 5 5 5 6
51 53 47 40 39 36 33 35 37 36 33 38 44 47 50 53 54 52 51 46 38 25 18 17 17 15 13 12 11 11 11 11 12 12 10 8 6 5 6 6 6 6 7

GFSSE_700_rhum_036.txt.gz
RH
33 33 32 32 28 26 26 20 6 5 6 5 3 3 3 3 3 3 3 4 3 3 3 4 4 4 4 5 7 8 9 9 10 9 10 10 10 8 9 10 12 12 12
35 34 34 34 31 27 28 27 20 6 5 5 5 4 3 3 3 3 3 3 4 5 6 6 6 6 6 7 8 8 9 10 9 10 10 11 10 9 9 10 11 12 12
36 36 37 36 33 30 32 32 30 28 19 9 6 6 6 5 4 4 5 6 6 6 6 6 6 7 7 7 8 9 9 10 10 11 11 11 11 10 10 10 11 12 12
37 38 40 39 35 33 33 34 36 36 34 34 29 15 7 6 6 7 7 7 7 7 8 8 8 8 9 9 9 10 10 11 11 11 11 10 10 10 10 10 10 11 12
38 40 42 41 38 35 35 36 36 38 39 39 39 37 34 23 10 6 6 6 7 7 8 8 8 9 9 9 9 9 9 9 9 9 9 9 9 10 10 10 11 11 12
40 40 42 42 39 38 38 38 38 39 40 40 40 40 40 39 35 31 27 22 15 11 7 7 6 7 7 7 8 8 8 8 9 10 11 12 13 13 12 12 12 12 12
41 41 42 42 40 39 40 40 40 40 40 40 40 39 40 38 36 34 34 32 28 24 21 19 18 16 15 15 15 16 16 16 17 17 18 17 18 18 17 17 16 15 14
42 42 42 43 40 40 41 42 41 42 42 41 40 39 39 36 29 22 21 24 25 25 24 23 22 22 22 22 24 25 24 26 26 26 26 26 26 26 26 24 22 20 18
42 40 41 42 41 40 42 42 42 42 43 42 40 37 38 37 30 20 20 22 23 22 22 22 21 22 23 22 23 24 22 22 23 24 24 25 25 25 25 26 24 23 24
45 42 40 42 42 40 43 42 42 42 43 44 42 37 36 37 34 21 24 24 26 26 26 26 26 26 27 27 28 29 30 29 31 32 32 32 32 32 33 33 34 36 37
45 42 40 41 42 40 43 43 42 42 43 44 44 39 36 38 38 27 25 28 30 30 32 31 31 32 34 33 34 33 34 33 33 33 32 32 31 32 34 78 86 88 91
46 42 42 41 42 40 44 44 43 43 44 45 44 41 37 38 39 37 28 28 29 31 33 33 34 34 36 35 31 28 26 26 25 25 24 24 24 24 25 26 29 33 41
50 47 44 42 42 42 45 44 43 42 41 43 45 43 39 38 40 40 37 30 31 33 35 36 36 35 34 28 27 27 27 26 26 27 28 30 32 32 33 34 34 35 35
46 48 46 45 45 47 47 44 44 43 41 42 43 43 42 40 40 41 41 36 35 36 37 38 35 33 28 28 28 26 28 31 34 34 34 32 29 27 25 22 19 18 18
42 44 44 47 47 48 47 46 46 44 42 40 40 42 43 43 43 44 44 41 38 40 39 38 33 29 28 26 30 34 34 33 29 24 19 14 11 9 9 8 8 8 7
55 43 40 43 46 46 47 46 45 43 41 38 39 40 44 45 42 42 42 41 40 38 36 32 30 27 27 33 35 34 32 27 19 11 8 7 7 8 8 8 8 7 7
51 52 53 46 51 49 46 47 47 46 39 37 39 39 44 40 36 35 38 40 40 37 33 30 26 31 33 34 34 32 22 12 8 8 8 8 9 9 8 8 8 8 8
48 43 45 43 42 49 48 48 45 47 42 38 39 43 45 36 34 38 40 43 39 34 30 32 34 35 37 36 29 16 9 8 8 9 9 10 9 9 9 9 9 9 9
39 36 44 47 42 45 47 50 44 42 44 40 42 53 58 37 35 42 46 39 33 34 34 34 40 42 37 24 13 9 8 8 9 10 10 10 10 10 10 10 10 9 8
37 32 46 40 34 39 44 48 49 46 48 43 53 60 72 76 46 50 39 34 36 36 38 43 44 35 20 11 9 9 9 10 11 12 12 12 12 11 10 9 9 8 8
36 41 46 41 36 35 33 39 44 46 50 45 65 86 50 80 52 38 36 37 39 43 43 42 30 20 13 10 11 12 13 14 14 13 13 12 11 10 10 9 9 10 10
46 48 46 41 40 34 32 34 44 54 55 56 73 92 52 49 39 37 39 42 46 43 36 28 20 16 12 14 16 17 16 15 14 13 13 13 11 10 11 11 11 11 10
52 50 45 43 40 35 32 36 46 49 55 55 49 74 47 37 36 41 44 45 43 38 31 23 18 15 16 17 18 17 15 15 15 14 13 13 12 12 12 12 10 8 7
53 50 49 46 42 39 36 35 40 51 56 47 45 86 39 37 43 46 46 47 44 41 36 27 19 17 18 19 18 15 14 14 14 17 16 15 14 13 10 7 6 6 6
56 53 52 51 43 41 43 42 41 41 42 44 44 40 39 46 49 50 51 50 52 50 42 30 20 19 20 19 16 14 13 12 12 13 15 14 10 7 6 6 6 7 7
59 55 52 53 46 41 39 36 34 37 42 42 40 40 48 51 53 54 53 54 55 55 49 33 20 20 19 16 14 13 13 13 14 14 13 9 7 6 7 7 7 8 8

GFSSE_700_rhum_039.txt.gz
RH
33 33 33 32 29 26 25 23 11 5 6 6 4 3 3 3 3 3 4 4 3 3 3 4 4 4 4 4 6 7 8 9 9 10 9 10 11 11 9 8 9 11 12
34 34 34 33 31 29 28 27 24 11 5 6 6 5 3 3 2 2 3 3 4 6 6 6 6 6 6 7 7 8 8 9 10 9 10 11 12 11 10 10 9 10 11
37 37 37 36 34 31 30 32 31 30 26 14 6 6 6 5 4 4 5 6 6 7 7 6 7 7 7 7 8 8 9 9 10 10 11 12 12 11 10 10 9 10 11
38 37 39 39 37 33 32 33 35 37 36 35 33 22 9 6 7 7 7 7 7 7 8 8 8 9 9 9 9 10 10 10 11 11 11 11 10 9 9 9 9 10 10
40 37 40 40 39 36 35 35 36 37 38 39 39 38 35 26 12 7 6 7 7 7 8 8 8 9 9 9 9 9 9 9 9 9 8 8 8 9 9 10 10 10 10
41 41 41 40 40 38 38 37 37 38 39 40 40 40 40 39 35 31 26 24 19 16 12 9 7 7 7 7 8 8 8 8 9 11 12 13 14 14 14 14 14 14 13
41 41 41 41 41 40 40 40 39 39 40 40 39 39 39 37 33 32 32 32 28 25 23 20 19 17 17 17 17 18 18 19 20 21 22 22 22 22 22 21 20 19 18
41 42 42 42 42 40 40 41 41 41 42 41 39 37 38 36 30 21 20 21 23 24 24 24 24 24 24 24 25 24 24 23 22 22 20 20 20 20 20 21 21 23 24
42 42 42 42 42 41 41 42 42 42 42 43 42 37 36 37 34 22 21 20 22 20 22 22 22 23 24 24 24 25 26 26 27 29 30 30 31 31 32 32 32 34 35
46 42 41 42 42 41 41 43 42 42 42 43 43 42 35 36 37 30 23 26 27 26 28 29 30 31 31 31 31 32 32 32 32 32 32 32 31 31 33 45 77 81 84
46 44 41 42 43 42 41 44 43 43 43 44 45 44 39 36 37 37 30 26 29 30 32 33 34 34 34 33 33 33 30 28 25 26 26 24 23 23 23 23 27 46 75
46 43 42 42 43 43 42 44 45 43 44 44 45 45 42 39 38 39 38 33 28 31 33 34 34 35 35 34 29 26 26 28 27 27 27 27 28 30 32 32 32 31 31
52 48 44 43 43 43 42 44 46 42 44 43 43 45 44 42 40 41 41 41 35 32 34 36 36 35 35 31 28 29 29 28 26 29 32 34 34 35 34 34 32 33 32
44 49 50 46 44 45 48 48 47 44 45 44 43 44 44 44 43 43 43 44 41 36 36 37 36 34 32 30 29 27 30 34 35 35 33 28 24 21 17 15 14 13 15
43 44 45 48 48 48 49 50 49 47 47 45 45 43 42 44 45 45 43 44 42 40 39 38 36 33 30 27 31 33 35 34 32 29 22 14 8 8 8 8 8 8 8
49 48 46 47 48 48 47 48 48 48 47 46 43 43 44 44 45 43 41 42 42 42 38 37 33 30 29 31 33 35 36 31 21 11 8 8 8 9 9 9 9 8 8
52 56 51 44 45 49 52 52 47 47 47 48 46 41 43 43 45 38 33 37 40 41 37 33 28 29 31 32 36 36 28 16 9 8 8 8 9 10 10 10 10 10 10
53 54 52 47 43 48 52 54 53 49 46 46 50 43 42 43 44 35 36 40 41 37 33 30 32 33 38 39 33 20 11 9 8 9 9 10 11 12 12 12 12 11 11
56 54 47 43 42 45 48 54 54 48 50 50 50 48 45 50 62 36 38 42 38 33 33 35 40 41 37 26 16 12 10 10 11 12 13 14 14 13 13 12 12 11 10
60 58 46 41 40 44 47 49 50 47 52 57 55 54 57 59 84 89 44 40 34 35 40 43 39 29 22 16 13 12 13 15 16 16 15 14 14 13 13 12 11 11 10
57 56 45 41 40 44 38 39 42 44 52 61 59 68 98 87 89 79 43 36 37 43 44 39 32 24 18 14 14 15 17 18 17 16 15 14 14 13 12 12 12 12 12
52 54 43 44 48 45 41 36 36 42 55 66 71 68 99 96 77 52 39 40 45 45 42 38 34 28 20 16 16 19 19 18 16 16 15 15 14 14 13 13 13 13 12
42 46 47 49 49 45 42 36 36 44 57 66 73 77 98 98 59 40 40 46 47 46 47 49 45 37 24 18 19 20 20 19 18 16 16 16 15 14 14 14 11 9 8
36 46 54 53 50 45 42 35 33 41 56 67 67 86 99 99 64 40 47 50 50 51 54 52 52 43 25 19 20 21 20 18 18 18 17 18 16 15 13 10 8 7 7
41 56 56 54 51 47 40 40 39 39 52 72 87 97 92 98 44 48 52 53 54 55 56 55 54 50 27 19 21 20 18 17 17 17 18 17 15 12 10 8 7 8 8
52 56 56 54 54 52 42 42 44 47 55 55 77 99 56 87 48 53 55 57 58 60 60 56 54 51 24 19 21 19 18 18 17 16 16 14 12 9 9 9 9 9 10

GFSSE_700_rhum_042.txt.gz
RH
33 33 32 31 29 27 24 24 19 8 6 6 5 3 3 3 3 3 4 5 5 4 3 3 4 4 4 4 4 5 6 7 8 10 10 10 10 11 11 10 9 9 10
34 35 34 33 31 29 27 27 26 23 10 6 6 6 4 3 3 3 3 3 4 5 6 6 6 6 8 6 6 8 8 9 9 10 10 10 11 12 12 11 10 10 10
36 38 37 35 33 31 29 29 30 30 29 22 8 6 6 5 4 4 5 6 6 6 7 7 7 7 7 7 8 8 8 9 9 10 10 11 12 12 11 10 10 10 10
38 36 38 36 36 34 32 31 33 34 35 34 33 24 9 6 7 7 7 7 7 8 8 8 8 8 8 8 9 9 9 10 10 11 11 11 10 10 9 8 8 8 9
40 40 37 37 38 37 35 34 34 35 37 38 38 37 35 25 10 7 7 7 8 8 8 8 9 9 9 9 9 10 10 9 9 9 9 9 8 8 9 10 11 11 11
43 43 41 39 40 38 38 38 38 38 38 38 39 40 39 38 34 29 23 19 15 12 9 8 7 7 7 7 7 7 8 8 9 11 14 16 16 17 18 17 17 16 16
43 42 41 40 40 40 39 40 40 40 39 38 36 36 38 37 34 32 32 32 28 25 22 20 19 19 18 18 18 19 19 21 22 24 26 25 24 23 23 24 24 23 23
42 44 43 42 41 40 40 40 41 41 41 41 39 33 33 36 34 25 19 18 20 22 23 24 24 24 24 24 23 24 25 24 24 24 24 26 28 28 29 30 30 29 28
41 43 44 43 42 41 40 41 42 42 41 42 42 40 33 33 35 30 20 20 19 19 20 19 22 22 23 24 24 26 28 30 30 30 31 31 32 32 34 37 46 61 67
42 41 43 43 43 42 41 41 43 42 42 42 44 43 41 35 34 35 29 23 25 26 27 28 29 29 30 30 30 32 32 32 33 31 29 27 26 24 27 30 32 36 59
48 46 42 43 43 43 42 41 43 43 43 43 44 44 44 40 38 37 36 32 26 29 32 31 31 31 32 33 33 33 30 27 27 27 27 26 27 26 27 28 26 26 27
48 47 45 43 44 43 43 42 43 44 44 43 44 44 45 44 41 39 39 38 35 30 29 31 32 32 33 34 34 30 29 30 29 26 26 28 30 32 33 34 33 34 34
52 50 44 43 44 44 44 43 43 45 45 44 44 42 43 45 44 42 42 42 40 37 32 32 33 34 35 36 33 32 30 28 31 34 33 34 34 33 30 26 23 22 24
48 51 50 46 45 45 45 44 44 46 46 45 46 45 43 44 44 45 46 45 42 41 39 35 36 36 37 34 31 27 30 33 34 34 33 31 27 22 16 10 8 8 8
46 46 46 49 49 46 47 49 50 50 48 46 47 47 45 44 45 46 47 47 43 42 41 40 40 38 34 30 29 32 33 34 34 32 25 15 10 8 8 8 8 9 9
44 45 47 47 48 50 49 49 50 49 48 48 49 49 47 44 46 47 46 44 42 42 42 42 38 34 31 32 32 34 36 35 28 18 10 8 8 8 9 10 10 11 11
42 48 48 49 48 49 49 51 51 48 47 47 48 49 49 45 44 44 44 37 39 45 43 39 34 31 30 32 35 36 31 20 11 9 9 9 9 10 11 12 13 13 13
46 46 52 52 50 48 48 52 56 53 52 51 47 47 47 48 41 46 44 35 41 44 40 34 30 29 35 37 30 21 14 11 10 10 12 13 15 15 15 14 14 14 13
52 49 51 54 54 51 51 50 52 52 53 54 50 50 50 48 44 44 52 40 44 42 34 32 34 37 33 25 19 14 13 12 14 16 17 16 16 15 15 14 14 14 14
57 53 50 53 54 52 46 50 51 54 50 52 51 55 59 54 57 58 90 86 49 36 35 40 40 34 28 23 20 15 14 16 18 18 17 16 16 15 15 15 14 14 14
58 57 54 49 52 50 44 46 47 50 51 46 52 58 67 66 74 84 98 65 44 37 42 43 39 36 38 34 26 18 17 19 20 19 18 17 17 16 16 16 16 15 15
41 51 57 51 48 49 42 47 44 42 46 50 54 66 72 78 88 83 88 56 38 42 46 45 47 47 47 45 32 19 18 19 20 20 19 17 17 17 17 16 16 15 14
35 40 47 53 52 46 46 50 45 43 41 43 53 66 76 85 91 96 90 46 42 48 50 51 51 49 47 47 43 24 18 19 21 20 18 18 17 17 16 16 15 13 11
27 34 37 48 54 42 46 51 47 45 42 44 56 73 89 98 99 96 61 42 48 53 54 54 55 53 51 48 44 28 19 20 21 21 19 18 18 17 16 14 11 10 9
26 31 32 39 43 40 52 50 47 43 39 40 64 84 97 88 99 72 80 49 54 57 58 60 61 63 59 54 47 26 19 21 20 19 19 18 17 16 13 11 10 10 10
25 32 35 36 44 48 53 50 46 41 43 44 68 91 97 99 98 94 51 54 58 61 64 66 68 67 63 56 44 22 20 20 20 19 18 17 15 12 11 11 11 11 11

GFSSE_700_rhum_045.txt.gz
RH
32 32 31 30 29 28 26 24 22 15 8 6 6 5 3 2 3 3 4 5 5 5 5 5 4 4 4 3 3 4 4 5 6 8 10 10 10 10 11 11 11 10 10
33 33 34 33 31 29 28 27 27 26 21 12 6 6 6 3 3 3 3 3 3 3 4 5 5 5 6 7 5 7 8 8 9 9 10 10 10 11 12 12 11 11 10
34 35 36 34 32 28 30 28 28 29 30 29 24 11 6 6 4 4 4 5 6 6 7 7 7 7 16 8 7 8 8 8 9 9 10 10 11 12 12 11 10 10 10
36 37 34 32 29 30 31 31 30 30 31 34 34 32 25 9 7 7 7 7 7 7 8 8 8 8 8 8 8 8 9 9 10 10 11 11 11 10 10 9 9 9 10
39 38 39 37 36 36 35 34 34 34 34 35 36 37 36 33 23 10 7 7 8 8 8 9 9 9 9 9 10 10 10 10 10 9 9 9 9 11 13 14 14 14 14
39 40 41 39 37 38 37 37 37 36 36 35 35 34 36 38 36 34 30 25 17 12 9 8 7 8 8 8 8 8 8 8 10 13 16 18 19 21 23 22 22 21 20
42 44 44 41 39 38 38 39 40 40 39 39 37 34 32 36 34 31 30 31 30 27 23 20 18 17 17 18 19 20 21 22 23 23 23 22 21 20 20 20 21 21 22
43 43 43 42 41 40 39 39 40 41 42 42 41 39 33 34 35 32 22 18 19 20 22 23 24 24 23 23 22 21 20 20 21 23 25 26 29 28 28 29 28 28 28
42 42 43 44 43 41 40 40 40 42 42 42 42 43 40 34 34 35 28 21 21 21 21 21 21 22 23 25 27 27 27 28 29 29 30 28 28 25 24 24 24 29 36
41 42 44 44 44 43 42 41 41 42 42 42 42 43 43 41 36 35 34 30 25 26 27 28 28 28 28 28 29 30 31 30 28 25 23 25 26 26 24 24 23 24 23
45 43 41 42 44 44 43 42 42 43 42 42 42 43 44 44 41 37 36 36 34 28 26 28 29 30 30 30 30 31 31 27 26 27 26 25 24 25 26 26 28 28 29
45 49 48 44 42 44 44 43 42 42 43 43 43 42 42 42 44 42 40 39 38 36 32 28 30 32 33 32 32 33 30 29 28 25 24 29 32 32 32 32 31 31 31
44 44 47 47 45 44 44 43 43 42 43 45 44 43 42 41 43 43 43 42 41 40 37 35 32 33 36 36 34 31 30 27 28 31 31 33 32 31 29 26 22 17 13
43 45 50 48 45 44 44 45 44 43 42 45 46 45 45 44 42 42 44 44 44 43 40 39 37 37 38 37 34 31 28 30 31 32 28 33 30 25 19 12 8 8 8
46 44 48 50 49 47 47 48 46 48 46 46 48 47 48 48 46 43 43 44 44 45 41 42 42 40 39 35 31 29 29 30 32 34 30 24 15 10 8 8 8 9 10
43 44 46 46 47 49 49 48 50 49 52 50 50 51 51 50 48 45 43 44 42 42 40 42 42 41 35 31 29 31 34 33 30 23 15 11 9 9 9 10 11 12 13
45 46 46 44 44 43 45 49 51 50 49 49 49 48 49 51 51 50 44 42 42 36 35 41 41 35 32 31 34 33 26 19 14 12 10 10 12 14 15 15 15 15 14
48 48 48 44 45 45 47 46 52 53 53 54 55 52 49 51 50 56 47 40 41 35 38 41 36 33 33 37 31 24 18 14 12 12 13 16 17 17 16 16 15 15 15
53 50 47 45 49 50 50 49 49 51 51 49 53 52 53 52 49 50 44 41 41 37 40 36 32 34 38 33 28 25 22 16 14 14 17 18 18 18 17 17 17 16 16
65 59 54 49 49 51 53 54 53 51 50 52 54 53 54 55 52 58 55 44 56 55 39 34 36 39 36 37 41 39 34 23 16 16 19 20 20 19 18 18 18 17 17
50 54 57 54 49 49 50 52 53 48 47 53 56 57 61 58 64 67 68 72 85 56 39 36 41 40 42 43 42 42 40 33 22 18 19 20 21 20 19 18 18 17 17
36 47 50 56 54 50 50 52 54 50 43 48 52 59 61 61 73 78 77 80 84 53 38 42 43 44 44 43 42 44 44 38 28 20 19 20 20 20 19 18 18 18 17
25 28 37 56 58 54 51 54 56 46 39 46 49 48 52 63 77 89 89 85 90 53 40 46 48 49 50 53 55 54 49 43 33 22 20 20 20 19 19 18 17 16 15
22 25 26 39 59 60 56 52 51 45 44 46 46 52 59 65 73 82 92 98 78 44 46 50 53 56 60 62 60 60 55 45 29 22 20 20 20 19 18 17 15 13 12
26 25 26 29 40 54 59 51 52 48 50 48 46 48 56 70 78 95 97 100 96 49 51 55 58 62 66 66 66 63 58 48 29 21 21 20 20 18 17 15 13 12 12
23 29 24 30 31 38 47 50 55 51 50 49 46 44 56 75 85 96 79 99 81 53 56 59 62 66 68 66 66 66 59 45 26 21 21 20 19 16 14 13 13 13 13

GFSSE_700_rhum_048.txt.gz
RH
33 32 31 32 30 30 27 26 24 21 13 7 6 6 5 3 3 3 3 4 4 5 6 6 6 5 4 4 4 3 4 5 5 6 8 10 10 10 10 12 12 12 11
34 33 32 34 32 30 25 28 26 26 27 23 12 6 6 5 3 3 2 3 3 3 3 3 4 4 4 5 4 5 6 7 8 9 9 10 10 11 12 12 12 11 11
36 34 34 35 31 28 28 28 29 28 31 31 31 28 11 6 6 5 5 5 5 6 6 6 6 6 8 8 7 7 8 8 9 9 10 10 11 12 12 11 10 9 9
36 35 36 31 32 31 29 28 30 30 30 31 34 34 33 26 10 7 7 7 7 8 8 8 8 8 8 8 8 9 9 9 10 10 11 11 10 10 9 9 9 10 11
36 37 35 34 34 34 32 32 32 33 32 32 32 34 35 36 34 29 15 7 7 8 8 9 9 9 10 10 10 10 10 10 10 9 9 8 9 12 14 16 17 18 17
38 38 36 39 39 36 34 36 36 36 36 35 34 31 31 34 36 35 34 32 28 22 15 11 8 8 8 8 8 8 9 11 14 18 20 22 22 22 21 20 20 20 20
38 38 41 44 41 38 37 36 36 37 37 37 38 36 30 28 33 34 29 23 23 27 28 26 22 20 19 20 21 22 23 23 22 20 19 19 19 21 23 23 24 24 24
44 43 44 44 42 40 38 36 36 36 38 39 39 40 39 32 29 31 32 23 18 17 17 18 20 21 20 20 20 20 22 24 25 25 24 27 27 26 26 26 24 26 27
44 43 44 43 43 43 41 39 37 37 39 41 41 41 42 41 35 32 31 30 24 22 22 23 23 24 25 26 27 28 29 30 29 28 24 22 21 20 21 22 22 21 21
42 41 42 43 44 44 43 42 41 40 41 41 42 42 42 42 41 37 34 32 31 27 24 26 28 28 28 29 29 31 30 30 26 23 24 25 24 22 22 22 22 22 23
44 42 41 41 44 45 44 43 42 42 42 42 42 43 42 42 41 42 39 37 36 34 31 27 27 29 30 30 31 32 31 29 27 26 25 22 22 23 25 28 29 30 30
47 46 44 42 42 42 44 44 44 43 42 43 43 43 42 40 40 44 43 42 40 39 36 34 31 28 30 31 33 34 33 30 28 25 24 25 26 27 27 26 28 27 24
39 44 48 48 47 47 44 44 44 44 43 42 44 45 44 43 42 41 41 42 42 42 40 38 35 34 34 32 32 32 31 30 26 24 24 28 28 28 27 26 21 16 11
39 39 39 41 45 45 47 46 44 44 44 43 43 45 46 44 46 44 42 42 42 40 38 40 37 34 33 35 35 32 30 28 28 25 26 29 30 27 21 13 9 8 8
90 43 37 46 49 49 47 46 44 43 44 45 44 46 48 47 47 46 45 44 41 40 38 38 35 33 36 36 34 31 28 27 30 28 26 22 16 12 10 9 9 10 10
67 92 39 42 45 50 50 50 47 45 46 46 48 51 51 52 51 49 49 48 45 41 37 36 33 34 39 36 32 28 30 30 25 19 15 12 11 11 11 13 14 16 15
51 82 61 41 46 45 50 51 51 50 52 49 49 49 50 49 50 49 49 53 57 48 39 35 33 37 37 33 30 33 29 24 20 15 13 12 13 15 17 17 17 16 16
47 51 64 50 43 46 44 44 50 52 50 51 52 53 54 53 52 52 53 52 54 58 41 35 36 37 34 30 33 31 28 27 26 21 15 14 14 17 18 18 18 18 18
47 46 51 55 46 45 44 41 46 54 52 47 50 52 51 52 50 52 54 54 48 46 42 38 38 35 31 34 34 34 35 35 35 31 23 17 17 18 18 20 20 19 18
46 49 50 58 50 46 50 46 45 50 54 49 50 50 46 44 50 55 58 55 59 55 60 53 37 34 35 36 37 35 30 30 34 35 32 24 20 19 20 20 20 20 19
43 58 67 53 55 53 54 51 46 48 55 53 50 46 43 48 59 63 59 65 66 71 78 60 39 34 41 40 39 36 37 44 45 44 39 30 24 20 20 20 20 19 19
25 44 61 73 62 48 51 52 53 58 58 55 53 48 44 48 61 66 66 70 75 75 79 62 41 39 44 44 43 46 49 49 49 48 46 39 28 22 20 20 20 19 18
23 26 44 61 68 67 49 54 56 57 55 52 54 49 44 51 56 68 70 81 88 86 86 89 70 44 48 49 52 56 55 54 53 52 50 44 32 24 21 20 19 18 17
28 26 26 45 60 64 63 60 57 55 54 53 58 53 52 52 55 63 71 73 91 87 88 77 46 49 51 53 57 58 55 56 57 56 52 44 31 22 21 19 18 16 14
41 44 32 32 34 44 56 60 61 60 57 56 57 53 52 54 55 63 74 82 89 93 96 69 48 53 55 59 59 57 56 55 57 60 56 41 25 21 20 18 16 14 14
28 39 41 43 39 44 50 44 57 63 61 58 56 51 52 52 59 62 77 90 100 100 87 85 54 56 59 62 62 60 57 56 59 63 59 38 23 20 18 16 15 15 14

GFSSE_700_rhum_051.txt.gz
RH
33 33 32 33 33 31 24 25 26 24 22 16 9 6 6 4 3 2 3 3 4 4 5 6 6 7 6 5 4 4 4 4 5 6 6 8 10 10 10 11 12 12 12
34 33 33 34 34 30 28 27 26 26 26 27 25 15 8 6 5 4 3 3 3 3 3 4 4 3 3 4 4 3 4 5 5 7 9 10 10 10 11 12 12 12 10
36 34 34 35 32 33 32 31 28 28 27 27 30 31 28 14 7 7 6 6 6 6 6 6 6 6 8 9 6 6 7 8 9 9 9 10 10 11 12 11 10 8 8
38 35 35 35 32 34 34 31 30 31 31 29 28 31 34 33 27 11 8 8 8 8 8 8 8 8 8 8 8 8 8 9 10 10 10 11 10 9 8 8 10 12 14
38 36 37 33 33 37 34 33 32 34 34 33 32 29 30 34 35 34 31 22 11 8 8 8 9 9 9 10 10 10 10 10 9 9 8 8 10 16 19 21 21 21 20
38 37 37 34 40 41 36 36 35 36 36 36 36 34 28 27 33 33 31 31 32 31 28 22 18 13 11 10 10 11 13 16 19 20 22 22 20 18 17 17 17 18 18
39 38 38 38 43 42 37 40 34 34 35 36 38 38 36 30 27 30 31 26 20 18 22 26 27 26 25 24 24 24 23 22 19 17 19 20 23 25 24 26 25 25 25
40 40 39 41 44 43 40 40 37 37 34 35 37 38 39 38 34 29 29 29 23 19 16 15 15 16 16 17 18 18 21 23 23 22 26 26 24 23 22 21 20 20 20
43 44 45 45 44 44 44 41 39 38 36 38 40 40 40 40 39 37 33 29 28 25 22 23 24 24 24 24 25 26 26 26 25 25 23 22 23 24 24 23 22 21 21
46 46 44 44 44 44 44 43 42 41 40 41 40 40 40 41 41 40 38 35 33 30 28 24 23 25 27 27 28 28 28 27 26 26 26 26 24 21 22 23 26 27 27
49 47 42 42 42 43 45 45 44 43 42 42 42 41 42 41 39 38 41 40 39 36 34 31 28 25 24 28 29 28 28 29 28 28 27 23 22 24 25 26 27 27 27
50 47 44 43 42 42 43 44 45 44 44 43 43 43 42 42 41 39 39 39 39 37 37 37 35 32 28 26 30 31 31 30 29 28 26 26 25 25 24 27 27 25 23
40 47 47 46 44 45 44 44 44 44 45 44 43 43 44 45 44 43 42 40 39 38 37 37 39 36 32 30 31 32 32 30 29 26 26 28 29 29 27 25 21 15 10
38 38 39 42 45 46 48 49 48 46 45 45 44 44 44 46 46 45 46 45 44 42 40 37 37 36 34 31 32 33 32 30 27 27 29 29 25 21 17 12 10 9 9
37 35 37 38 38 37 37 41 42 45 46 46 46 46 45 45 48 47 47 47 48 46 44 40 37 34 32 32 34 34 32 28 28 29 24 18 14 12 11 10 11 12 13
50 38 35 35 36 35 35 38 43 45 47 45 45 46 49 49 50 50 49 49 50 52 55 51 40 35 32 33 35 33 29 29 29 24 20 16 13 12 12 14 16 17 17
70 73 39 41 39 38 40 40 46 46 50 50 49 48 49 50 50 49 49 48 49 50 54 50 52 38 33 36 34 31 31 30 28 28 26 22 17 14 14 16 18 18 18
39 76 82 52 48 42 42 44 50 49 48 50 50 53 51 51 53 52 50 50 50 51 51 52 51 40 35 34 33 32 33 32 32 31 31 31 27 21 17 18 18 19 20
44 44 88 85 60 48 46 45 48 48 46 51 46 49 49 51 51 50 49 47 49 53 53 49 45 43 37 35 33 35 36 34 30 30 34 36 34 31 25 21 20 20 20
28 40 45 81 90 58 51 46 49 61 57 51 48 51 46 44 44 44 51 56 60 56 61 60 56 52 40 36 37 37 38 34 40 42 44 44 43 40 34 26 22 20 19
20 36 67 56 67 68 56 50 45 50 55 53 57 52 50 49 44 49 53 60 62 58 66 68 70 62 44 37 41 42 40 44 50 50 50 48 47 45 42 34 27 22 21
23 25 37 72 71 78 70 66 60 52 58 58 64 59 53 49 48 50 59 64 63 65 75 79 79 76 68 52 45 46 45 51 54 51 50 50 50 48 46 39 29 22 21
27 36 40 52 72 78 78 74 72 63 62 63 63 60 50 54 53 56 62 62 63 71 87 94 88 86 87 62 56 50 53 52 51 51 49 49 51 52 50 39 26 21 20
28 34 50 52 66 70 82 84 76 64 57 57 53 61 60 60 57 63 57 61 65 72 86 94 93 85 75 51 53 55 58 58 55 53 51 50 54 55 52 40 25 20 19
28 30 35 46 56 65 66 75 81 82 69 65 63 65 64 63 59 58 60 64 70 79 84 89 97 91 67 52 55 57 59 58 57 55 53 54 56 56 51 31 21 19 18
27 36 38 35 32 46 63 66 73 74 77 70 69 67 64 60 61 60 58 62 71 82 90 87 94 89 89 57 58 60 61 60 59 58 55 54 55 57 46 22 19 17 16

GFSSE_700_rhum_054.txt.gz
RH
35 32 32 33 34 33 28 22 25 26 23 22 15 9 7 6 4 3 2 3 4 4 5 6 7 7 8 7 7 6 6 6 6 6 6 7 9 10 11 11 12 12 12
33 33 34 33 34 32 32 31 30 28 26 25 26 26 16 7 6 5 4 3 3 3 4 4 5 4 4 4 4 4 4 4 5 5 7 9 10 10 10 11 12 12 10
35 34 34 34 34 34 35 35 34 29 28 28 27 28 30 25 10 7 7 7 7 7 7 6 6 7 7 9 7 5 6 7 8 9 9 9 10 10 11 11 9 8 8
37 34 35 35 32 35 36 36 34 30 32 31 30 29 30 33 32 25 12 8 8 8 8 8 8 9 9 9 8 8 8 8 9 9 10 11 11 10 9 9 14 18 19
38 36 36 35 33 37 36 37 35 33 34 34 34 31 26 30 33 34 33 31 25 14 8 8 8 9 9 10 10 10 10 10 10 9 8 9 11 17 21 22 20 18 17
38 36 37 35 35 40 40 38 36 34 35 35 36 36 33 26 26 32 31 28 28 30 30 27 23 17 14 12 12 12 14 16 20 22 22 22 19 16 18 21 23 24 25
40 38 38 37 39 42 41 39 39 38 35 35 36 37 37 36 30 26 28 28 22 17 16 21 26 27 26 26 26 25 24 21 18 17 18 21 23 24 26 24 23 23 22
41 39 39 38 43 44 42 41 40 38 39 36 36 39 40 40 38 34 29 26 25 22 19 17 15 16 16 17 17 18 19 21 22 24 24 24 22 22 22 23 24 24 24
41 41 41 42 44 45 44 44 42 39 40 38 40 38 38 41 41 39 37 33 30 26 23 22 22 23 24 24 25 25 24 24 25 26 24 23 25 25 24 22 22 24 25
44 43 44 46 46 45 44 44 44 42 42 41 41 40 41 41 41 38 40 39 37 34 31 28 25 22 23 25 26 26 26 27 27 28 26 26 25 21 22 24 27 28 28
50 47 48 45 45 44 44 45 45 44 44 43 43 42 41 42 40 37 38 40 40 38 36 35 34 30 26 24 25 26 28 30 29 28 28 26 23 22 24 26 26 27 26
38 49 52 47 43 43 43 44 45 46 45 45 44 43 43 43 42 41 40 38 37 36 35 36 36 35 33 30 28 27 29 30 30 29 27 24 23 24 26 29 28 26 24
40 44 50 49 46 44 43 43 43 44 45 45 45 45 44 44 45 44 44 44 43 42 40 39 37 36 34 33 31 29 31 32 30 28 25 26 29 27 23 20 18 14 11
42 36 38 42 48 50 49 48 48 47 46 46 46 45 45 44 45 46 46 46 46 46 45 43 40 38 36 33 31 30 32 31 30 26 28 27 22 18 14 12 11 10 10
44 42 36 37 39 40 42 44 44 47 48 49 48 47 46 46 45 45 47 47 48 50 50 50 47 42 37 34 32 31 32 32 29 30 27 22 18 15 13 12 13 14 15
38 38 39 35 32 32 35 38 39 42 45 47 47 46 46 47 48 48 48 49 49 50 51 55 54 53 48 37 33 34 34 31 31 29 28 27 24 20 16 14 15 17 18
47 45 38 37 36 31 32 35 41 40 40 43 50 48 49 49 49 49 49 48 49 49 50 50 49 49 50 44 36 36 34 31 32 33 34 33 32 29 25 20 18 18 18
56 60 57 55 56 44 38 39 45 48 44 46 50 51 53 53 52 50 51 52 51 49 46 47 48 48 47 43 40 37 34 34 35 35 31 33 37 37 35 31 27 24 22
46 52 62 82 62 51 46 51 49 48 48 49 49 46 45 48 50 49 52 50 48 47 46 46 52 56 54 49 43 38 36 37 38 36 41 44 46 45 44 43 39 34 28
55 58 57 61 70 68 62 48 53 57 54 52 53 48 46 46 51 50 47 45 48 52 56 56 61 64 67 57 44 40 42 42 41 45 49 50 50 49 48 47 45 43 38
39 54 60 62 64 60 63 62 53 54 56 56 57 56 51 49 54 54 48 46 54 63 67 62 69 76 77 66 50 43 45 49 49 53 54 52 50 49 50 50 50 47 41
19 19 25 48 71 69 67 69 69 63 55 59 60 61 60 55 53 64 57 51 60 64 67 73 83 87 84 84 76 62 55 52 55 54 55 52 50 49 48 49 51 51 48
23 26 27 24 41 74 77 74 72 71 71 68 62 65 58 56 55 64 66 60 59 64 68 74 85 95 98 92 91 76 61 56 54 57 55 53 52 50 49 49 52 53 52
17 27 31 31 34 61 77 77 77 78 76 72 72 67 62 60 59 70 69 65 68 67 66 74 82 92 94 95 84 68 54 56 58 56 56 54 54 53 52 54 56 56 53
22 24 34 43 44 48 56 64 71 77 85 89 87 76 72 69 67 73 72 67 64 62 67 74 79 88 96 98 92 63 55 59 62 63 60 58 57 57 57 59 61 58 42
12 18 28 32 43 52 57 58 64 67 83 88 87 85 74 70 69 73 73 68 66 62 64 77 84 86 96 89 100 93 72 61 63 64 62 61 60 60 63 66 62 46 26

GFSSE_700_rhum_057.txt.gz
RH
40 34 30 32 33 32 29 30 30 26 26 24 22 18 11 7 6 4 3 3 3 4 5 6 7 9 10 12 12 11 9 8 7 7 6 6 7 10 10 11 11 12 12
34 33 33 33 34 34 34 35 33 30 28 27 26 26 25 18 8 7 6 5 4 3 3 4 4 5 5 5 5 5 5 4 4 5 6 8 9 10 10 11 12 12 10
36 33 34 34 35 35 36 37 33 30 30 30 29 29 28 29 24 12 8 8 8 8 7 7 7 7 9 9 7 5 5 7 8 8 9 9 10 10 11 11 9 8 10
35 34 34 34 34 36 36 38 35 32 31 32 32 30 28 31 32 31 23 11 8 8 9 9 9 9 10 9 8 8 8 9 9 9 10 11 11 10 9 10 17 21 21
36 34 35 35 34 37 38 39 37 34 33 34 35 34 30 26 31 33 33 32 30 24 12 8 8 9 10 10 10 10 10 10 10 9 8 9 13 19 22 21 17 16 18
39 36 36 36 34 39 40 39 39 37 35 34 34 36 35 32 26 26 30 28 25 27 30 29 26 20 18 14 13 12 14 16 20 23 23 22 19 17 19 21 23 23 24
41 37 37 37 35 40 42 39 41 38 40 36 35 37 39 38 35 29 26 27 24 19 16 17 22 25 26 26 26 25 24 21 17 18 21 24 23 23 22 21 20 20 21
43 39 39 38 38 43 43 41 42 39 40 40 38 40 39 40 40 38 34 28 25 23 21 20 19 18 16 17 17 19 21 23 24 24 25 24 22 21 22 23 23 21 21
46 41 40 40 41 45 45 42 43 43 40 41 40 40 41 41 39 40 39 36 33 30 27 24 22 22 24 25 26 26 26 26 26 26 25 24 25 25 23 21 22 23 26
46 43 41 42 43 46 46 45 44 44 42 42 43 42 41 42 41 38 36 39 39 37 34 32 30 27 25 24 24 26 28 28 28 28 27 26 26 24 22 22 24 24 25
44 48 44 44 46 47 46 46 45 46 45 44 44 44 43 43 42 41 40 38 37 36 35 35 35 34 32 30 28 27 28 29 30 30 29 28 26 23 24 26 26 25 26
37 45 52 51 51 46 45 45 45 46 46 46 46 45 45 44 44 43 42 42 42 40 39 38 37 36 34 34 32 31 30 31 32 32 30 28 25 24 27 26 24 22 20
44 42 44 55 55 47 44 44 44 45 46 46 46 46 46 45 45 45 44 44 46 46 45 44 43 40 38 35 33 32 32 33 33 31 29 27 28 26 21 16 14 12 11
45 44 40 44 49 50 50 49 46 45 45 46 46 46 46 46 45 45 46 46 46 47 48 49 49 48 45 42 37 34 32 34 33 31 28 29 26 23 19 15 13 12 12
41 43 45 43 38 40 45 47 48 50 49 50 50 50 48 47 47 46 46 48 48 48 50 51 54 53 50 48 42 35 34 34 32 31 30 28 26 26 24 20 16 15 15
37 38 41 44 43 39 38 39 41 44 43 42 44 46 48 48 48 48 49 50 51 50 51 51 53 54 53 52 48 43 36 35 34 32 31 32 33 32 30 27 25 21 19
38 38 40 41 44 41 37 36 37 41 44 47 47 48 49 49 50 51 52 52 51 50 50 51 51 52 50 50 49 45 41 37 35 34 35 35 31 31 34 35 34 32 30
43 42 37 36 39 37 37 41 41 43 42 46 49 49 50 51 52 52 52 52 52 53 53 51 50 50 49 49 48 46 43 39 36 37 37 34 38 42 44 44 43 43 42
47 49 45 39 39 41 44 48 51 52 46 45 50 51 52 53 52 53 54 54 51 53 54 53 50 50 50 56 59 53 44 40 39 41 40 44 48 50 49 49 47 47 46
56 59 59 53 48 47 44 49 53 50 51 47 46 49 53 52 51 50 55 52 48 50 53 54 60 57 61 68 74 62 50 43 42 44 45 50 53 53 52 49 48 48 48
45 46 63 68 63 60 53 44 48 49 51 52 52 50 53 56 58 56 55 55 52 52 59 60 62 66 74 82 78 71 70 56 47 51 52 51 54 59 52 49 48 48 48
18 23 43 65 70 68 66 60 53 55 57 66 67 64 62 58 60 60 61 61 60 58 59 62 68 71 78 90 88 89 83 73 69 58 57 59 58 56 53 51 50 50 49
22 18 25 40 58 75 75 76 78 69 62 62 57 60 58 57 57 62 65 72 64 61 60 71 72 70 76 88 96 95 92 89 80 68 61 62 61 59 56 54 53 51 50
25 28 30 28 29 34 51 66 76 81 68 59 68 70 68 65 63 66 69 73 75 70 71 75 79 73 75 82 93 97 90 86 66 58 59 60 63 61 60 58 56 55 54
13 15 22 28 35 42 41 44 43 67 80 79 75 87 88 82 70 72 72 73 77 76 76 74 74 75 80 88 97 99 100 93 84 64 63 63 65 65 64 62 61 59 58
16 19 22 20 23 33 38 45 45 53 64 70 77 84 92 93 90 75 69 75 79 91 84 77 79 75 79 86 98 99 100 99 92 78 71 68 69 70 69 67 65 65 65

GFSSE_700_rhum_060.txt.gz
RH
35 36 31 33 26 30 32 34 31 27 27 26 25 24 20 13 8 6 5 4 3 3 4 6 7 9 11 13 14 14 13 11 9 8 7 6 7 9 10 11 11 12 12
34 36 32 31 33 34 36 34 31 30 29 29 29 28 28 24 16 8 7 7 7 6 4 4 4 5 5 5 6 7 7 5 5 5 5 8 9 10 10 11 12 11 9
36 33 34 34 35 34 37 36 33 31 32 32 31 29 29 30 28 19 10 8 8 8 8 8 8 8 9 10 7 5 6 7 8 8 9 9 10 11 11 10 9 9 15
38 33 34 34 36 36 38 37 35 34 33 34 34 32 28 27 31 32 30 25 14 9 9 9 10 16 10 9 9 9 9 9 9 10 11 11 10 9 10 14 20 22 20
38 34 34 34 35 37 38 40 35 36 34 34 34 35 33 28 25 29 31 31 31 30 26 16 10 9 9 10 10 10 10 10 9 9 10 14 20 22 22 19 17 19 21
36 34 34 34 36 39 39 41 38 39 38 35 35 36 37 35 30 26 27 28 25 22 24 28 28 24 20 19 18 17 19 22 24 24 22 19 18 19 22 23 23 22 22
43 36 36 36 34 40 41 41 42 39 41 40 36 38 39 39 39 36 30 25 24 22 18 16 16 19 20 22 23 22 20 19 21 24 25 25 25 24 22 21 21 21 22
44 38 37 38 36 42 43 41 43 41 40 42 40 39 39 39 37 39 38 34 29 24 22 20 20 21 21 22 24 24 25 25 27 28 28 26 24 25 25 24 22 21 22
44 42 38 39 39 42 44 43 43 42 42 42 42 42 41 42 42 37 36 38 37 34 30 28 25 24 22 23 25 26 28 28 28 28 29 28 28 27 25 23 22 23 24
45 42 42 40 41 43 45 45 44 44 44 43 43 43 43 43 43 42 40 38 37 36 35 34 32 32 30 28 27 26 27 29 30 30 30 29 28 27 25 24 24 24 26
38 43 44 42 42 43 46 46 46 45 45 46 45 45 44 44 44 42 42 41 41 38 36 35 35 34 33 32 31 30 30 30 31 31 30 29 28 25 25 26 26 26 25
39 46 50 45 45 47 49 47 46 46 46 46 46 46 46 46 45 45 44 43 44 45 44 43 42 41 38 37 35 32 31 29 30 31 31 29 27 25 27 25 21 18 15
46 41 37 44 52 50 52 46 47 46 46 47 47 47 47 46 46 46 46 45 45 46 47 47 48 48 47 45 42 38 34 31 30 32 31 29 26 26 25 23 20 17 15
39 43 42 41 45 54 55 48 46 45 46 47 47 47 48 48 47 46 47 47 47 47 48 48 50 50 51 48 46 43 38 34 33 32 31 29 28 28 27 26 24 21 17
38 44 47 47 44 46 49 50 52 51 50 50 50 51 50 50 49 48 48 48 48 49 50 50 51 53 56 53 51 49 45 39 36 34 32 30 30 30 31 30 28 26 25
40 38 40 39 40 45 43 39 44 46 47 48 48 47 47 50 50 50 49 50 50 51 52 52 52 54 55 53 53 52 48 45 40 36 33 32 34 34 31 29 30 32 34
38 38 37 36 37 41 43 46 47 43 46 44 44 46 46 48 50 50 51 53 54 54 54 53 52 53 52 50 51 52 50 47 42 38 35 35 36 34 37 39 40 41 41
41 40 39 40 42 41 42 43 45 47 46 42 44 48 48 51 52 52 52 54 54 53 53 55 54 54 52 49 50 53 54 50 44 40 38 38 38 39 45 48 48 48 46
44 43 42 42 39 42 42 37 42 47 49 49 49 49 49 53 52 54 55 56 55 55 56 55 52 54 51 54 54 56 62 56 45 43 41 41 42 45 50 50 52 52 47
49 48 48 46 46 44 45 42 44 52 50 53 57 50 52 53 55 55 55 56 56 56 53 52 54 56 59 61 57 63 71 64 60 54 46 46 51 51 53 53 57 53 48
48 54 54 56 54 53 50 43 40 37 42 50 53 55 53 53 58 61 60 59 58 55 57 58 57 60 66 67 64 73 76 74 77 70 59 56 54 55 57 57 54 52 51
24 28 40 54 58 63 60 52 52 52 51 51 54 62 59 59 63 64 64 66 67 62 61 60 60 68 72 71 69 81 83 83 83 82 79 68 61 62 62 61 58 55 55
24 27 26 28 45 55 57 57 66 73 70 57 48 52 49 65 64 71 68 69 72 69 68 69 69 77 84 81 77 84 90 94 93 87 82 75 67 62 62 64 62 59 58
26 30 34 31 25 26 29 42 60 70 73 73 70 64 66 64 59 63 61 71 73 72 73 73 76 78 88 92 90 88 90 98 99 93 86 76 70 69 65 63 65 64 63
13 16 25 36 36 32 26 29 42 61 73 75 71 69 76 74 73 80 74 73 76 76 73 76 82 82 86 94 98 94 96 100 100 94 97 96 86 74 74 70 69 68 67
18 18 18 20 26 32 40 42 41 40 41 44 45 50 56 75 75 74 75 76 76 78 73 79 87 87 86 94 97 80 90 100 100 99 98 97 96 90 93 80 71 70 69

GFSSE_700_rhum_063.txt.gz
RH
34 35 31 34 29 31 33 32 30 26 26 27 26 25 22 18 12 8 7 6 5 4 4 6 8 9 11 14 16 16 14 12 10 9 8 6 6 8 10 11 11 12 11
32 37 33 35 32 32 34 32 31 29 28 28 28 28 27 26 22 13 8 8 8 8 7 4 4 5 6 6 7 8 7 5 4 5 5 7 9 10 11 11 11 10 9
35 34 33 35 34 32 37 35 33 30 30 32 32 30 27 28 30 29 24 13 9 9 9 9 9 8 9 9 7 5 6 7 8 9 9 10 11 11 11 10 10 14 20
36 33 34 35 36 37 38 38 36 34 33 33 33 33 30 28 31 32 32 31 28 18 9 9 17 11 10 9 9 9 9 9 10 10 11 11 10 11 16 22 22 20 18
37 33 34 34 36 38 38 39 38 37 35 34 34 36 35 31 28 28 29 28 28 29 28 25 16 11 9 10 10 10 10 10 9 10 14 20 24 22 20 18 19 22 23
38 34 34 33 36 38 39 41 39 40 39 38 34 37 38 38 35 31 27 25 24 21 19 22 26 27 25 20 22 23 24 25 25 24 21 19 20 23 23 22 22 21 20
42 34 34 34 36 39 39 40 41 41 40 41 39 37 37 36 38 38 35 29 24 22 20 18 16 16 18 18 18 19 19 19 20 22 23 23 23 22 22 23 24 23 22
44 36 35 36 34 40 41 41 42 42 40 42 41 40 42 42 39 36 37 36 32 28 24 22 21 21 22 23 24 24 25 26 26 26 26 25 25 26 26 24 22 22 22
44 43 38 37 36 39 43 42 42 43 41 42 43 42 42 43 43 42 37 37 38 36 33 31 29 27 25 24 24 25 26 26 28 29 29 28 28 27 26 24 23 24 24
42 44 39 38 39 39 43 43 43 44 42 43 43 44 43 44 43 43 43 40 38 34 32 31 31 31 31 30 29 28 27 26 27 28 30 29 29 28 26 24 24 26 26
42 42 42 41 40 40 44 45 44 44 44 44 45 45 45 44 45 44 43 44 42 42 42 41 40 38 36 35 34 32 30 28 28 29 30 29 29 27 26 26 26 23 20
47 40 44 46 42 42 42 45 46 45 46 46 46 46 46 46 46 46 45 44 44 45 45 46 47 47 48 46 43 40 37 33 31 31 30 29 29 28 27 25 23 20 17
38 45 42 49 49 46 47 50 50 47 46 46 47 47 47 47 47 47 46 46 45 46 46 47 48 49 50 49 46 45 43 39 35 33 32 30 29 28 27 26 25 23 20
38 48 45 42 38 49 55 55 50 48 47 47 47 48 48 48 48 48 47 47 47 47 47 48 48 50 51 52 50 49 47 44 41 36 33 32 30 28 29 30 30 28 26
37 34 37 44 44 46 54 56 53 48 47 48 47 48 48 49 50 50 49 48 48 49 49 50 50 51 52 56 54 53 52 49 45 42 37 34 31 30 32 32 30 28 30
42 35 36 40 41 41 42 45 47 50 54 52 52 52 52 52 52 52 51 50 50 50 51 52 52 53 53 53 52 51 50 52 50 46 40 36 33 33 33 32 34 38 40
41 40 40 41 41 38 38 42 42 41 46 48 48 48 47 47 49 52 52 52 52 53 54 55 56 53 53 53 52 50 48 50 50 47 43 39 36 35 35 35 40 45 46
43 41 40 40 38 38 35 39 47 49 45 44 44 46 44 46 50 52 52 53 54 56 56 57 54 55 55 54 51 48 50 54 55 51 45 41 40 39 40 42 48 49 50
44 44 43 42 42 40 42 38 42 49 51 48 48 46 44 49 52 52 54 56 58 56 56 56 56 56 56 54 52 56 55 54 59 54 48 52 47 43 43 46 51 52 54
50 47 44 43 44 42 44 46 42 42 44 40 45 48 51 52 53 54 56 57 58 57 56 58 58 57 57 55 58 64 61 60 67 62 66 65 59 50 52 55 54 55 54
48 48 47 45 41 46 45 43 41 40 38 40 49 58 58 60 55 59 62 60 58 58 58 63 62 58 59 60 65 70 68 66 72 73 77 75 72 72 63 57 59 60 58
29 35 42 49 52 52 52 53 52 50 43 41 46 51 53 62 61 60 58 62 60 61 63 63 65 64 64 66 74 80 71 72 77 84 86 84 83 80 74 69 63 61 62
16 16 23 30 37 41 46 53 61 68 69 42 35 41 47 50 58 67 67 67 65 66 68 66 68 68 72 70 81 88 85 80 85 89 96 93 86 80 73 66 64 63 62
25 23 23 24 21 21 24 28 40 55 68 70 68 54 61 60 67 65 66 71 80 78 73 72 73 76 78 77 82 88 95 86 85 80 86 89 85 94 87 78 75 72 74
17 18 20 25 30 30 30 30 30 34 45 46 54 74 76 78 78 78 71 72 76 74 77 75 75 77 79 83 87 90 99 98 97 93 85 97 98 83 96 89 86 79 85
20 19 17 17 19 26 31 33 34 36 36 37 40 49 61 64 64 67 71 69 66 83 79 74 76 83 82 86 88 87 93 98 98 93 91 91 98 99 100 96 86 93 84

GFSSE_700_rhum_066.txt.gz
RH
34 33 30 31 28 27 27 28 26 23 24 26 26 25 23 19 13 8 8 7 7 5 4 6 8 9 12 17 20 19 16 14 12 10 9 7 6 8 10 10 11 12 11
31 34 32 34 31 30 31 30 30 28 27 28 29 28 28 27 25 19 12 8 8 8 7 4 5 7 8 10 11 11 9 7 5 5 5 6 8 10 10 11 11 10 10
34 32 33 36 32 31 35 35 34 30 30 31 31 30 27 28 29 30 29 22 14 9 9 9 8 8 9 7 6 6 5 6 7 8 9 10 10 11 11 10 13 20 22
36 33 33 36 34 35 36 38 37 33 32 30 31 33 30 27 26 28 30 30 30 25 17 14 12 10 10 9 9 9 9 9 10 10 11 11 10 13 20 22 20 18 18
36 32 33 35 36 38 38 39 38 35 34 33 32 34 35 32 29 26 26 26 25 26 27 28 24 10 10 10 10 10 10 9 9 10 14 20 23 21 18 20 22 22 22
39 33 33 34 36 39 40 40 40 38 37 37 34 36 37 38 36 32 27 24 22 20 19 20 24 23 23 21 22 23 24 25 25 23 20 19 21 24 22 21 20 22 22
42 33 32 33 36 39 41 38 40 40 40 40 37 36 37 35 36 38 35 30 25 22 20 18 17 18 20 21 19 19 19 19 21 23 23 24 24 23 23 25 24 23 22
46 37 34 33 35 38 40 41 41 41 39 42 41 40 42 42 40 35 36 37 34 30 25 23 22 23 24 24 24 24 24 25 26 26 26 26 26 26 26 25 24 23 23
46 38 35 34 34 39 39 41 42 42 41 42 42 42 42 43 43 43 38 37 36 35 33 31 29 27 26 25 24 24 25 26 26 27 28 28 28 27 26 25 24 24 24
45 43 36 36 35 35 41 41 42 44 43 42 43 44 43 43 44 44 43 42 39 38 34 33 32 31 31 30 29 28 28 28 27 28 29 29 29 28 26 25 26 26 25
43 44 42 38 38 37 40 43 42 43 44 43 43 44 44 45 44 45 44 44 44 42 41 43 43 41 39 39 38 36 34 32 30 29 29 30 30 29 27 26 25 22 20
44 43 44 45 40 39 39 42 44 43 44 45 45 45 46 45 46 46 45 44 44 44 45 45 45 46 48 49 47 45 43 41 38 34 31 30 30 29 27 26 25 23 22
51 48 41 42 46 42 41 41 43 45 44 45 46 46 46 47 47 47 46 46 46 45 45 46 47 48 49 51 49 47 46 44 42 41 37 33 31 30 28 28 28 28 27
36 35 46 43 49 49 46 46 50 50 49 46 46 46 47 47 48 48 48 47 47 47 46 47 47 48 50 51 52 50 50 50 48 46 42 39 34 31 30 30 31 30 28
32 34 43 46 44 41 48 55 56 56 49 48 47 47 47 48 48 48 49 49 48 48 48 49 49 50 51 51 54 56 53 52 51 50 46 43 39 35 32 32 31 30 32
34 36 36 34 34 39 41 44 54 56 53 49 48 47 47 48 49 50 50 50 50 50 50 50 51 52 53 53 53 54 53 51 50 49 49 46 42 37 34 34 34 35 38
36 38 38 39 38 43 44 43 44 48 48 52 54 54 52 52 53 53 51 49 50 51 51 51 52 54 56 54 54 54 53 51 45 47 49 47 44 40 39 37 37 40 44
38 37 42 39 38 43 42 38 34 35 44 47 49 51 53 53 52 50 47 46 51 52 52 53 55 57 57 55 56 56 52 47 50 51 52 51 45 45 46 41 41 45 48
40 42 43 42 40 39 41 40 38 36 38 43 47 49 50 49 47 45 47 49 52 52 53 56 58 58 56 57 57 54 52 53 56 53 56 55 49 57 55 48 45 49 52
42 44 43 43 42 41 41 41 41 39 40 37 43 46 47 46 47 46 51 55 55 54 55 56 58 58 59 59 56 56 56 59 60 58 62 60 64 66 64 61 56 56 55
27 35 39 43 44 45 43 44 43 37 36 41 37 44 45 46 51 55 56 56 58 57 58 59 61 58 60 61 61 57 60 63 64 64 68 70 72 76 72 75 72 65 61
14 23 34 41 46 46 45 44 42 42 41 39 46 49 49 51 62 60 64 58 56 60 59 58 58 61 65 65 66 64 65 64 65 68 71 77 80 83 81 82 78 73 67
13 16 22 28 38 46 46 49 50 49 46 43 36 42 56 50 52 52 60 67 68 66 61 63 64 66 67 68 68 73 69 66 71 77 73 74 79 85 88 88 82 79 74
16 14 14 15 18 23 26 32 36 43 44 36 44 48 47 66 66 56 64 63 64 70 73 70 70 74 74 70 74 73 74 74 80 85 83 79 75 75 84 88 91 92 88
18 20 23 23 23 24 28 29 27 26 26 32 42 57 64 65 80 77 60 69 66 62 64 67 78 85 85 79 77 80 83 87 86 89 97 95 89 88 92 99 94 98 93
22 21 20 19 20 23 24 28 34 35 37 38 35 36 46 54 63 74 74 76 78 72 67 67 71 78 82 84 85 86 86 87 88 88 99 96 95 87 88 97 93 82 100

GFSSE_700_rhum_069.txt.gz
RH
34 32 32 31 29 24 24 25 24 23 25 26 26 26 24 22 16 11 8 8 8 6 5 7 8 9 11 16 21 25 22 18 15 12 10 8 6 7 9 10 11 11 10
31 32 33 33 30 27 28 29 28 27 27 27 28 27 27 27 27 25 19 12 9 8 8 5 6 8 10 13 14 14 12 10 7 6 5 6 8 10 10 11 11 10 14
32 32 32 34 30 32 33 36 32 29 29 30 30 29 27 27 28 30 29 28 22 13 10 10 9 9 8 6 6 6 5 6 7 7 8 9 10 11 11 10 16 21 19
36 32 32 34 32 35 35 35 35 33 31 30 30 31 30 27 26 27 28 28 28 26 24 16 11 10 9 9 8 9 9 9 10 10 11 11 10 13 20 21 18 18 20
38 32 32 34 35 37 38 36 34 32 33 32 31 33 34 33 30 26 25 24 24 24 25 30 14 10 10 10 10 10 10 10 10 10 13 20 23 20 21 22 21 24 23
39 32 33 34 36 38 39 39 38 36 33 36 33 35 36 36 36 34 29 24 22 20 18 19 23 24 24 23 21 22 24 25 26 24 21 21 22 32 23 22 22 22 21
38 33 33 34 36 39 39 38 40 39 38 38 35 36 35 33 32 36 36 33 28 23 20 18 17 17 17 18 19 19 18 20 22 24 23 24 23 23 24 24 23 22 21
42 35 32 33 35 39 40 40 40 41 39 41 39 40 42 42 39 33 35 36 35 32 28 24 22 22 22 23 23 23 24 25 25 26 24 25 25 25 25 24 24 23 23
46 39 34 32 33 36 40 40 41 42 42 40 42 41 42 43 43 43 38 36 35 33 32 31 30 29 27 26 26 25 25 24 25 26 24 26 26 26 26 25 24 24 25
47 44 37 34 32 36 38 40 41 42 43 41 42 43 43 42 44 44 44 43 39 38 40 39 36 34 32 31 30 29 29 28 27 27 26 28 27 27 26 25 24 24 23
42 46 38 36 33 33 37 40 41 42 43 43 42 43 44 44 44 44 44 44 44 44 43 41 43 44 45 45 44 42 40 38 36 33 31 29 29 27 26 25 25 24 23
42 45 44 43 38 34 35 39 41 41 43 44 44 43 44 44 43 45 45 45 44 44 44 45 45 44 45 47 48 47 45 43 42 40 38 35 31 29 28 26 26 26 26
37 41 43 42 45 42 38 37 40 42 42 43 45 45 44 46 46 45 46 46 46 45 45 45 46 47 48 48 50 49 48 48 48 47 45 41 37 33 30 28 28 28 29
48 49 48 43 43 47 44 40 39 41 43 44 44 45 46 46 46 47 47 47 47 47 47 46 46 47 48 49 50 52 52 52 52 51 49 46 43 39 35 31 30 30 30
36 40 44 45 43 46 50 46 44 44 48 50 49 46 46 46 47 47 48 47 47 48 48 48 48 48 49 50 51 51 54 55 53 52 49 47 47 44 39 35 33 32 31
33 32 34 33 42 44 44 44 50 54 55 56 52 48 47 47 47 48 48 48 49 49 50 49 49 50 50 52 52 53 52 54 53 51 46 43 47 45 43 38 36 35 34
39 37 36 35 43 44 40 38 38 40 49 56 55 52 49 48 48 48 48 50 52 51 50 49 50 50 52 53 54 54 53 54 54 49 43 41 47 48 46 41 43 39 38
38 39 39 37 37 35 34 38 42 44 43 42 47 49 53 55 56 55 54 53 52 50 48 46 50 51 52 54 56 55 55 56 52 46 50 49 44 49 47 47 50 46 42
38 39 39 36 35 37 35 36 42 44 39 35 34 37 45 48 54 55 55 52 50 46 45 48 51 52 54 56 57 56 57 55 51 50 54 53 52 54 50 58 58 55 50
40 40 40 39 39 39 38 36 37 40 41 38 38 37 40 45 49 52 53 49 46 45 47 50 54 54 57 58 58 57 58 55 54 53 56 57 58 63 60 66 67 64 66
24 33 36 40 40 43 44 39 40 38 44 43 42 42 42 42 48 53 54 54 52 53 53 55 56 59 61 60 58 58 59 60 58 55 58 60 61 66 69 71 75 72 74
10 14 25 37 43 47 48 44 43 44 44 45 44 40 43 40 41 48 52 56 65 63 61 56 58 59 61 61 59 64 62 58 58 61 64 66 68 68 73 77 80 81 78
9 10 11 15 27 38 45 49 43 45 45 40 38 36 39 45 43 42 51 56 70 72 73 69 62 62 63 64 63 66 67 62 62 64 72 77 78 75 74 80 82 86 88
12 12 12 13 13 16 22 31 47 38 40 40 37 40 44 46 50 55 55 61 69 82 73 74 76 74 74 71 72 70 70 72 73 72 72 76 84 86 84 84 80 81 89
18 17 17 16 15 15 15 17 22 30 27 22 28 33 38 36 37 60 60 66 68 70 70 79 75 71 71 78 82 83 83 83 82 84 83 81 83 90 95 99 93 94 92
23 22 20 19 20 23 26 27 28 30 32 33 35 34 34 35 34 40 66 72 82 76 78 67 75 79 72 71 72 81 85 90 90 92 98 98 97 90 99 95 93 96 92

GFSSE_700_rhum_072.txt.gz
RH
34 30 34 30 27 22 23 24 23 24 25 26 26 26 25 24 21 16 12 9 8 6 4 6 7 8 10 13 16 22 25 22 16 12 10 8 6 8 9 11 11 11 10
31 30 33 32 28 26 25 27 28 27 27 27 27 27 26 27 27 26 25 20 11 9 8 5 6 9 10 13 16 17 15 11 8 7 6 5 8 10 11 11 10 14 21
32 31 32 33 32 32 32 34 31 28 28 29 29 28 27 26 26 27 28 28 26 23 10 9 9 8 6 6 6 6 6 6 6 7 8 9 10 11 11 15 21 19 17
35 31 32 33 34 35 34 32 33 32 30 29 31 31 30 28 26 25 25 26 26 26 27 12 10 10 9 9 8 9 9 9 10 10 11 11 10 14 21 19 18 19 19
37 32 31 34 35 36 36 34 30 31 32 31 31 33 34 34 32 28 24 22 22 21 21 25 20 13 10 9 10 10 10 10 9 10 13 20 23 20 20 18 19 20 20
36 34 32 34 36 37 38 36 36 33 30 34 32 32 32 33 35 35 32 27 22 20 19 18 19 23 25 25 25 25 25 26 26 24 19 19 21 29 22 22 22 21 20
33 34 32 34 37 38 39 39 39 38 33 35 34 36 34 30 28 32 35 34 32 27 22 19 18 17 16 17 17 18 18 19 20 20 22 22 23 24 25 24 23 22 21
40 35 33 33 36 38 39 40 40 41 39 36 40 36 40 41 37 32 32 35 35 34 31 29 26 24 22 22 23 23 24 24 23 24 25 25 25 26 25 24 23 22 22
41 35 33 33 34 38 40 40 41 41 42 40 38 42 40 42 43 42 40 35 36 35 32 31 30 29 28 28 27 26 26 26 25 25 26 26 26 26 26 25 24 24 24
46 43 35 32 32 35 39 40 41 42 43 42 42 41 43 43 43 44 44 43 42 38 38 41 42 41 39 38 37 38 37 36 34 34 30 28 27 26 26 26 25 24 23
46 47 41 36 33 32 36 38 41 42 43 44 43 42 44 43 44 44 44 45 44 44 44 44 42 40 43 46 47 47 45 44 42 41 40 37 34 32 29 27 26 25 25
29 44 46 39 35 32 33 37 39 41 43 44 44 44 43 44 44 42 42 44 46 45 45 45 46 46 46 46 47 48 47 47 47 46 46 43 41 39 35 30 28 27 27
32 34 38 44 43 39 36 34 37 40 41 43 44 44 44 43 45 46 44 43 43 46 47 46 46 46 47 48 49 50 52 51 51 52 51 50 46 42 40 38 32 30 29
30 30 39 38 38 42 45 41 37 38 41 42 43 44 45 46 45 45 46 47 45 44 45 48 48 48 48 48 48 50 51 52 54 53 53 52 48 45 44 43 40 34 32
32 35 37 41 40 40 39 46 44 41 40 41 43 45 45 46 46 46 46 47 47 46 44 45 48 49 49 49 50 50 52 52 53 52 52 52 45 42 44 44 42 38 35
38 36 45 46 44 44 40 41 49 47 44 44 47 50 51 50 47 47 47 46 48 47 48 47 45 44 49 50 51 51 52 53 53 53 51 50 38 42 45 46 45 41 41
42 38 35 34 34 36 37 43 45 46 46 52 54 57 56 53 50 48 49 48 48 49 51 52 50 45 42 49 51 52 53 55 54 54 51 41 42 47 44 48 46 44 47
41 41 38 37 33 33 33 43 41 34 37 39 44 46 51 52 53 55 55 54 54 54 55 54 51 45 43 47 52 53 55 56 55 55 50 42 45 51 49 49 49 48 54
40 44 45 40 37 37 38 38 35 36 38 44 43 39 36 34 36 45 49 55 57 56 56 54 51 49 46 49 52 54 56 58 57 56 51 50 45 48 52 54 53 55 61
37 39 44 44 40 41 40 42 40 36 35 40 44 42 38 36 35 36 42 50 57 56 51 50 50 52 53 56 56 56 58 60 59 59 53 53 53 50 50 53 61 62 67
35 38 40 42 42 41 38 40 42 41 42 40 41 42 43 43 40 43 43 42 49 54 54 54 54 57 59 61 62 59 60 63 62 60 59 57 56 59 60 57 58 66 68
19 24 32 38 39 41 44 41 42 47 48 51 50 43 43 44 47 45 43 42 45 50 55 54 59 63 64 65 67 68 66 64 61 62 64 63 62 64 68 66 65 67 70
11 11 12 16 22 30 40 54 46 44 47 48 51 52 51 50 48 44 48 49 52 56 56 60 70 73 76 71 74 76 73 68 67 69 68 68 70 69 71 75 76 79 77
12 11 10 9 10 12 15 21 35 32 33 32 34 39 42 42 47 53 49 48 53 55 70 76 76 77 78 77 80 80 82 81 80 77 78 78 80 76 76 79 89 94 90
11 12 13 13 13 13 13 14 14 18 19 19 18 17 20 26 28 31 49 59 56 61 63 61 73 70 70 76 70 74 80 84 87 89 90 88 91 97 92 94 99 100 100
18 18 18 19 20 20 19 19 20 21 22 26 25 24 28 34 36 33 32 35 45 55 61 65 71 80 84 75 69 65 72 81 87 84 87 92 99 98 100 99 99 100 100

GFSSE_700_rhum_075.txt.gz
RH
34 36 33 29 24 22 22 22 21 22 24 24 25 24 23 23 22 19 14 10 8 6 4 6 7 7 8 11 15 20 23 25 20 13 9 8 6 8 10 11 11 11 13
33 35 34 30 28 24 24 25 26 26 26 25 26 25 26 25 25 26 25 23 16 9 7 4 6 8 11 14 17 17 15 11 8 6 5 5 8 10 11 11 12 19 19
33 32 34 31 31 34 31 31 29 26 26 27 29 28 26 25 25 26 26 26 26 23 10 9 8 7 6 6 7 7 6 6 6 7 8 10 11 11 11 17 20 17 18
33 31 33 31 33 37 35 28 30 31 29 28 30 31 30 28 26 24 23 23 23 24 23 13 10 9 9 9 8 9 9 10 10 10 11 11 11 17 21 18 17 18 18
35 31 32 32 35 36 38 36 29 26 30 31 31 33 33 34 33 30 26 23 21 20 21 24 20 14 11 10 10 10 10 10 12 15 20 23 20 20 18 18 20 20 20
35 31 31 34 36 37 37 38 39 32 23 29 30 29 28 30 33 34 33 30 26 21 19 18 18 20 22 25 26 26 25 23 19 18 17 18 19 20 20 21 21 20 20
38 32 31 34 36 38 38 38 39 39 34 26 30 31 31 29 26 30 34 35 33 32 29 24 20 19 18 18 19 18 19 20 21 21 22 22 22 22 22 22 22 21 21
36 35 32 34 37 38 39 39 40 40 40 36 31 35 32 36 35 33 32 34 34 33 32 31 29 28 26 25 24 24 23 23 23 23 23 23 24 24 24 24 23 22 23
37 39 32 33 36 38 40 39 41 41 42 41 38 36 40 38 41 39 35 34 33 35 36 36 34 32 30 29 29 29 29 29 29 27 26 26 26 25 25 25 24 23 23
43 43 33 33 34 37 39 40 41 42 43 42 43 41 39 40 38 40 43 41 40 39 38 37 38 41 43 46 46 46 45 44 43 42 41 39 37 34 30 28 25 24 23
46 43 35 33 33 34 37 40 41 42 43 43 43 43 43 43 42 41 41 45 46 45 44 42 43 44 44 43 43 42 42 43 42 42 41 39 38 38 38 36 31 28 26
47 48 43 36 33 32 33 36 40 41 43 44 44 44 44 45 44 44 43 41 41 44 47 47 46 46 47 47 48 48 49 48 48 51 50 50 46 42 40 39 39 34 31
32 36 47 44 40 37 33 32 36 39 41 43 44 44 44 44 45 45 45 44 44 43 42 43 46 48 48 48 48 48 49 50 50 51 52 53 52 47 40 41 42 41 36
34 28 26 36 45 44 41 37 34 34 38 41 42 44 45 46 46 46 46 47 48 47 45 44 44 44 48 49 50 50 50 50 51 51 50 52 52 46 37 40 42 43 41
38 32 29 26 25 29 36 42 44 42 38 38 41 43 44 45 46 47 47 47 47 48 48 47 46 46 46 44 47 50 50 51 52 53 52 52 52 45 36 39 42 43 42
44 42 39 35 30 28 32 37 35 38 44 44 42 42 44 47 50 50 48 47 48 48 48 49 50 50 49 48 46 46 49 51 53 54 54 54 51 43 42 46 42 43 44
39 41 50 46 48 46 38 39 40 38 41 49 50 50 52 52 54 55 52 50 49 49 49 49 51 53 53 51 46 47 50 53 54 55 56 55 52 44 45 50 47 46 45
39 39 46 44 41 38 35 30 28 36 38 41 39 40 42 46 50 51 52 52 53 56 56 56 56 56 55 52 50 49 52 54 56 57 58 57 54 46 47 50 52 51 51
31 40 41 42 41 40 38 35 34 33 35 32 34 39 44 44 39 35 32 32 33 42 50 56 57 55 52 50 51 54 54 55 56 60 60 60 57 51 51 50 54 54 54
24 27 40 44 42 42 47 42 39 38 37 35 33 35 46 46 43 42 41 38 39 42 43 46 52 55 53 51 51 54 59 57 59 61 62 62 61 58 55 56 57 58 57
32 32 28 37 40 42 47 51 45 42 44 44 42 43 41 43 44 42 44 46 46 45 45 45 46 50 53 62 64 61 64 64 64 65 68 65 64 65 62 60 63 66 66
21 26 31 39 42 39 38 40 46 47 46 46 48 45 49 48 49 47 47 47 48 48 49 48 49 55 54 62 74 77 71 68 65 70 72 73 68 68 72 67 70 72 73
22 18 20 24 30 39 39 38 38 41 44 48 53 60 58 59 58 58 60 55 52 48 48 54 55 59 68 69 71 78 79 75 73 72 73 75 77 77 77 81 82 83 96
22 20 17 15 15 16 19 21 21 20 23 28 38 52 62 71 65 61 62 58 52 51 48 52 54 64 64 72 80 74 74 80 85 83 79 82 89 92 91 94 98 97 99
15 17 16 14 12 12 12 13 12 12 12 13 14 15 17 24 30 40 58 57 44 34 37 50 55 54 67 76 71 84 83 80 84 86 84 83 92 100 100 100 100 99 100
14 13 13 12 12 12 13 13 14 15 14 14 14 14 14 15 18 23 26 28 34 38 40 41 43 46 50 62 68 73 81 86 86 88 84 86 98 99 97 99 100 100 88

GFSSE_700_rhum_078.txt.gz
RH
35 36 37 26 22 22 22 22 22 23 23 23 23 23 23 22 22 20 18 13 9 6 5 6 7 7 8 8 10 13 23 19 18 12 9 7 6 8 10 11 11 11 16
34 37 38 28 24 23 24 25 26 25 25 24 24 25 24 24 24 24 24 23 17 9 7 5 7 9 11 13 15 15 16 11 8 6 5 6 9 10 11 11 14 19 16
33 38 38 30 31 31 29 30 28 26 26 26 27 26 25 24 24 24 24 24 24 20 10 9 8 6 6 6 7 7 6 6 7 8 9 10 11 11 12 19 18 16 15
35 36 37 32 36 36 30 25 28 29 28 26 27 29 29 28 26 24 22 22 22 24 18 12 10 9 9 9 9 9 10 10 10 10 10 11 16 21 20 16 17 18 18
36 33 34 32 37 37 39 37 30 21 26 28 28 28 30 32 32 30 27 23 20 21 22 23 23 21 18 15 15 14 16 18 21 24 24 21 17 17 17 19 20 19 19
36 32 33 33 36 38 39 40 39 32 21 26 28 27 26 28 31 33 33 32 29 24 19 18 17 16 16 17 17 17 17 17 18 18 18 19 20 20 21 21 21 20 20
34 32 32 33 36 37 38 39 40 40 37 25 25 26 27 27 25 27 31 32 33 33 31 28 26 24 22 21 20 20 21 21 21 21 22 22 22 22 22 22 22 21 21
37 32 31 34 36 38 39 39 39 40 40 39 33 28 26 26 28 30 29 30 32 33 32 31 30 29 28 27 26 26 26 25 25 24 24 24 24 24 24 24 23 22 22
38 32 31 34 36 39 40 40 40 40 41 41 41 38 34 32 31 32 31 32 32 32 35 37 39 40 40 40 41 42 43 43 42 41 40 38 37 34 32 29 26 24 23
40 37 31 34 36 38 40 40 41 41 42 43 42 42 41 39 39 37 35 36 36 38 37 37 39 39 38 37 37 35 35 38 38 40 39 38 37 35 36 38 36 32 29
45 45 33 32 35 37 38 40 41 41 42 43 43 44 44 43 44 43 44 41 38 43 46 47 46 46 46 46 44 42 41 44 45 47 46 46 45 41 36 33 34 39 34
44 48 40 33 32 34 36 39 40 42 43 44 44 44 45 45 46 45 45 44 43 42 42 43 45 46 47 48 48 49 49 48 49 48 48 46 49 50 42 36 37 38 40
50 50 44 36 35 33 32 34 38 40 42 43 44 44 45 45 45 46 46 46 45 45 44 44 44 44 44 46 48 49 49 50 51 52 52 50 44 48 45 37 39 40 42
38 44 47 46 40 38 36 33 32 35 38 41 43 44 45 45 46 46 46 47 48 48 48 47 46 46 46 47 47 48 49 51 51 52 53 53 51 47 47 37 37 42 42
37 35 35 38 40 46 44 42 40 37 35 35 38 41 42 44 45 46 47 48 48 48 49 49 50 49 49 49 49 49 47 48 49 52 54 55 55 53 47 39 44 43 43
45 41 35 32 30 30 32 36 36 39 44 44 41 39 40 43 45 47 49 49 48 48 48 49 50 50 51 52 53 53 50 47 48 51 53 57 57 56 51 42 45 47 44
44 41 39 37 32 30 30 31 30 38 38 45 48 46 47 50 52 53 56 56 54 52 52 52 52 52 53 55 56 56 53 49 50 52 54 56 59 59 57 48 47 48 50
47 42 43 39 38 38 40 37 36 31 31 36 39 42 43 42 42 44 44 49 50 50 50 52 56 58 59 59 58 57 54 51 51 53 53 56 60 61 60 54 51 52 53
30 44 43 43 40 41 40 37 35 34 33 34 34 31 33 37 40 43 40 37 35 35 32 31 35 44 50 52 54 54 52 50 48 53 57 59 61 64 64 62 56 57 57
28 26 40 44 46 45 43 40 38 38 37 37 38 39 38 36 41 47 45 45 45 43 42 41 39 40 41 44 47 50 54 56 56 55 62 66 65 66 67 68 67 64 66
30 27 25 29 41 49 50 49 45 43 43 42 42 46 46 46 44 45 46 45 42 45 48 48 47 47 46 48 50 49 55 60 62 64 65 70 72 74 76 74 71 75 77
30 27 24 22 25 35 49 54 54 50 51 50 47 44 46 47 46 46 50 51 54 56 57 55 52 53 52 55 58 63 63 63 63 76 78 77 81 80 80 82 88 91 93
30 27 23 22 21 25 30 38 45 48 45 44 43 42 45 50 51 55 58 58 63 67 66 64 56 53 54 53 59 70 70 69 73 72 79 82 87 91 94 95 96 98 99
36 33 28 27 23 21 21 25 30 35 41 45 46 46 45 45 43 43 54 63 67 62 58 58 59 45 43 47 60 70 74 72 75 74 75 74 80 89 99 100 100 100 100
36 27 22 24 25 21 18 18 16 16 16 16 16 17 19 24 31 44 48 45 42 39 35 33 30 32 45 47 50 54 62 66 66 70 70 80 84 84 89 94 97 98 100
27 22 21 22 23 22 18 14 13 12 11 11 12 13 14 15 18 19 21 26 30 31 34 38 40 49 49 57 47 58 86 77 60 91 67 86 98 96 98 99 100 97 100

GFSSE_700_rhum_081.txt.gz
RH
34 33 35 26 22 22 22 22 23 23 23 23 22 22 22 21 20 20 19 15 10 6 5 6 7 8 11 11 10 10 17 22 18 11 8 6 7 9 10 11 11 16 18
35 31 34 27 22 22 23 24 24 24 24 23 24 24 24 24 23 22 22 22 17 10 6 6 8 10 11 13 15 16 14 8 6 5 6 9 10 11 11 13 19 16 15
36 33 37 36 32 28 28 28 27 26 27 27 27 26 25 24 23 22 23 23 24 15 10 9 8 6 6 6 6 6 7 9 10 10 10 11 10 12 20 19 16 15 15
38 39 40 41 39 31 26 24 28 29 28 27 28 29 29 28 27 24 22 21 22 22 20 16 14 11 10 10 10 10 10 10 11 13 18 21 22 21 16 18 18 18 18
37 38 40 41 40 39 37 33 22 21 26 28 29 28 30 31 31 30 28 25 20 20 20 20 21 22 23 23 23 24 24 23 21 19 17 17 17 19 19 20 19 18 18
37 36 38 39 40 40 40 39 36 28 20 25 26 26 26 27 28 29 30 32 31 28 24 21 19 18 17 17 17 19 19 20 20 21 21 21 21 22 22 21 21 21 20
36 34 35 36 39 39 40 40 40 38 33 26 23 23 25 25 24 26 28 30 32 32 31 30 29 28 27 26 26 25 25 24 24 24 24 24 24 24 24 23 23 22 22
31 32 33 34 37 38 39 40 40 40 40 39 37 28 25 23 23 25 27 28 31 34 35 36 36 36 36 37 39 40 41 40 40 39 38 37 36 34 32 29 26 24 23
38 30 31 34 36 38 39 40 40 41 41 41 41 40 36 32 33 31 28 29 30 32 33 33 33 33 35 35 36 38 37 36 37 38 38 37 36 36 37 38 37 32 28
41 31 30 34 36 38 40 40 41 41 42 43 43 43 43 42 39 38 43 41 36 34 36 38 41 42 42 42 42 42 43 43 42 41 43 42 42 40 36 32 32 37 36
44 37 30 34 36 38 40 41 41 42 42 44 44 44 45 45 45 46 45 45 45 45 43 41 44 45 46 47 47 48 49 50 48 48 48 46 43 45 44 36 34 35 38
41 41 35 32 36 37 39 40 41 42 43 44 44 44 45 46 46 46 46 46 45 46 46 46 46 44 45 45 45 45 45 50 52 52 52 52 52 46 46 43 34 37 39
49 47 42 32 33 36 37 38 41 42 43 44 44 44 45 46 46 46 47 47 46 46 46 46 46 47 47 47 48 47 45 45 51 52 53 53 54 53 49 46 37 36 41
53 49 52 40 32 32 35 36 38 40 41 42 44 44 45 45 45 46 47 47 48 48 49 50 49 49 49 49 49 50 49 48 47 51 53 54 55 55 55 51 41 42 44
51 53 52 48 40 37 34 33 32 33 35 38 41 42 43 44 45 46 46 47 48 48 49 49 50 50 51 51 52 52 53 53 50 50 52 54 56 56 56 56 47 43 47
52 42 39 38 44 45 45 43 41 40 39 37 36 37 40 42 43 44 45 47 49 49 49 49 50 50 51 51 52 54 56 56 54 52 50 53 56 58 59 58 56 47 47
51 50 45 40 37 38 39 37 37 37 37 40 45 46 43 42 43 47 53 57 57 57 56 56 57 57 58 58 60 61 61 60 59 58 54 53 55 58 62 62 60 56 52
48 46 43 41 41 39 41 46 45 39 36 38 38 40 48 52 53 52 50 53 51 48 45 44 40 41 45 50 55 57 57 55 54 52 51 56 60 61 64 67 66 64 59
35 38 47 42 41 41 44 44 46 41 35 33 35 38 41 39 35 41 45 45 41 38 37 40 39 38 37 37 39 42 46 48 51 52 55 59 64 68 68 69 72 72 69
40 35 35 46 42 42 42 41 40 38 34 35 35 36 40 38 39 37 39 46 47 46 46 45 46 45 44 44 44 41 42 45 45 46 53 63 72 74 77 74 78 79 81
38 38 33 31 41 41 39 39 39 39 39 39 40 42 45 45 44 41 42 45 46 46 48 51 53 54 52 51 49 48 51 52 50 58 66 70 78 83 83 84 83 85 84
42 36 33 30 28 32 38 40 42 46 46 46 46 47 48 50 50 53 52 53 52 52 55 61 63 62 59 60 53 48 51 55 57 67 70 74 78 83 86 87 89 89 95
42 36 32 31 29 34 38 43 47 46 42 44 44 44 50 58 57 54 53 50 53 61 65 68 68 67 68 64 57 50 51 48 53 64 65 65 73 81 85 87 90 96 96
42 40 36 34 29 26 26 27 30 32 37 42 51 52 51 52 51 49 49 48 52 59 65 68 62 62 60 49 41 40 53 58 63 59 59 60 56 60 76 88 91 96 100
36 39 37 34 32 30 28 26 22 23 25 29 34 37 38 34 32 28 26 32 36 39 43 44 41 36 31 30 33 83 72 58 64 81 63 84 66 56 90 70 97 98 95
41 37 36 37 31 24 21 23 25 22 18 16 15 15 16 16 16 16 19 19 20 22 23 25 29 28 34 41 44 51 51 56 56 93 54 45 59 52 60 92 62 98 97

GFSSE_700_rhum_084.txt.gz
RH
33 32 31 25 21 21 22 22 23 23 23 22 22 22 22 21 21 21 21 15 8 6 6 7 9 10 11 11 11 13 16 18 11 6 5 7 9 11 11 12 19 17 15
34 29 29 24 22 21 22 23 24 24 25 24 24 24 24 24 24 23 23 22 16 9 7 6 8 10 12 13 12 9 6 6 7 9 10 11 11 11 18 20 16 16 16
34 33 33 33 29 26 26 27 26 26 26 26 26 26 26 25 23 22 22 22 21 17 12 10 9 9 8 8 9 10 10 10 11 11 15 20 22 22 18 17 18 18 19
36 36 38 38 32 25 22 24 28 28 28 28 29 29 29 28 27 24 22 21 21 22 22 22 21 18 16 15 16 18 21 23 23 21 19 18 18 18 18 19 19 18 19
39 38 37 41 39 36 29 20 20 24 27 28 28 28 28 29 30 30 29 26 22 20 19 18 18 18 19 19 18 18 18 18 19 20 21 21 20 21 21 21 21 20 20
39 39 41 40 41 41 38 32 26 18 20 22 23 23 23 24 26 28 30 30 31 30 30 28 26 24 24 24 23 23 23 23 23 24 24 24 25 24 24 23 23 22 22
38 39 40 41 41 40 40 40 38 32 30 23 20 20 22 23 23 26 28 30 30 31 31 31 30 30 30 32 33 35 37 37 38 38 37 36 35 33 32 29 26 24 23
36 37 36 40 40 40 40 40 40 39 40 39 33 26 25 23 23 24 25 26 27 27 27 30 31 34 37 38 38 37 37 36 37 37 38 38 37 36 36 37 37 34 30
32 32 35 36 40 39 40 40 40 41 42 42 42 41 38 33 35 38 34 31 29 29 29 31 32 33 35 38 38 38 38 39 40 40 41 41 40 40 37 32 32 34 37
32 30 32 34 37 38 39 40 41 42 43 43 44 44 44 45 43 39 42 45 45 45 41 34 34 38 39 40 42 45 47 49 49 47 48 49 46 42 44 40 34 35 35
44 34 30 33 35 38 39 40 41 42 43 43 44 44 45 46 47 47 46 46 46 46 48 48 48 44 44 43 44 44 45 49 52 53 53 52 53 52 44 42 39 33 37
43 41 32 32 34 37 39 40 42 42 43 44 44 45 46 46 47 47 47 47 47 47 46 46 46 47 48 48 48 47 45 44 47 50 53 54 55 55 54 50 43 37 36
31 44 38 31 34 36 38 40 42 43 43 44 44 45 46 46 47 47 47 47 47 48 48 48 48 48 48 49 49 50 51 50 48 47 50 52 54 56 56 56 54 42 42
36 37 45 35 32 35 37 40 42 43 43 44 44 45 45 46 46 46 47 48 48 49 49 50 50 51 51 51 51 51 52 52 53 51 49 51 52 55 57 57 57 54 44
59 52 49 46 36 32 36 38 39 41 43 43 44 44 44 45 46 46 47 47 48 48 49 49 50 50 50 51 52 52 53 54 56 56 54 53 54 54 56 59 58 58 54
73 66 58 56 51 37 32 35 35 35 37 38 39 40 41 42 43 44 45 46 47 49 51 51 52 53 53 54 54 56 56 58 59 60 58 57 56 58 58 60 62 63 61
71 65 56 52 48 46 42 37 36 36 37 39 40 39 38 39 40 42 45 50 56 58 58 58 57 54 54 57 58 59 60 59 58 57 55 54 55 60 64 64 64 66 67
71 60 53 46 44 46 48 48 44 44 41 38 40 42 45 47 48 51 57 58 55 55 51 44 38 34 34 33 34 36 39 43 47 50 53 57 60 61 65 73 72 70 71
78 72 61 55 53 52 48 45 44 44 43 41 37 36 38 43 48 50 43 44 46 45 41 39 41 43 42 42 42 41 40 40 40 40 43 47 56 68 74 74 77 78 77
60 59 57 64 55 54 49 46 48 47 45 43 36 33 36 41 42 40 42 46 45 46 47 48 47 44 47 50 51 50 50 47 44 44 50 57 64 69 76 81 82 84 86
47 40 38 33 37 45 45 41 40 39 44 41 40 44 42 44 46 44 43 43 44 46 50 48 48 52 59 62 62 60 60 54 47 47 57 61 66 72 76 85 91 91 92
52 45 41 39 34 30 35 43 44 44 44 41 43 44 47 53 53 54 55 55 55 52 53 53 56 61 64 68 70 67 58 53 41 38 51 54 69 73 68 77 84 90 96
53 50 46 43 40 33 30 30 33 36 36 39 41 45 51 58 59 61 60 55 52 52 51 56 62 68 71 72 71 72 62 43 32 37 42 55 61 60 67 71 68 74 84
59 53 48 45 42 38 34 32 33 34 32 32 40 44 45 46 54 56 55 54 54 54 53 62 69 66 63 55 49 47 37 29 34 71 65 64 65 61 62 63 55 61 80
59 52 43 43 45 41 38 35 32 30 27 28 32 35 37 40 45 52 52 52 50 48 48 52 44 37 32 34 33 29 30 34 44 54 49 49 44 82 46 43 65 56 62
52 48 46 41 42 41 39 38 35 28 29 29 25 24 24 26 30 30 29 27 23 21 21 23 24 24 24 32 40 40 41 42 40 41 42 37 35 40 38 40 44 43 46

GFSSE_700_rhum_087.txt.gz
RH
32 31 27 22 20 20 20 21 22 22 21 22 22 22 23 23 22 22 19 11 7 6 7 9 10 11 11 13 15 15 12 8 6 7 10 10 11 12 19 18 15 15 15
34 27 26 21 20 20 21 23 24 24 24 24 25 25 24 23 23 22 22 15 10 8 7 7 8 8 9 8 7 8 9 10 10 11 14 19 21 21 17 16 17 18 19
32 33 28 28 25 24 25 25 25 25 26 26 27 26 25 24 22 21 22 21 18 15 13 11 10 10 10 10 11 13 16 20 22 22 19 18 20 18 19 19 19 19 20
33 35 34 30 23 21 24 27 27 27 28 29 29 30 30 28 26 22 21 21 21 21 22 22 22 22 22 22 22 21 19 18 18 20 20 21 20 21 21 21 21 21 20
36 33 32 38 32 22 19 22 25 27 27 28 28 28 28 29 28 27 26 23 21 20 18 18 18 18 18 19 20 21 21 22 22 23 24 24 24 24 24 23 23 23 23
38 34 34 40 39 32 25 18 20 22 23 23 23 22 22 23 24 25 27 29 30 30 29 28 27 27 26 27 27 28 29 30 31 31 32 33 33 32 31 28 26 24 23
40 39 36 40 41 40 36 30 29 25 20 18 19 20 21 21 22 23 25 28 30 30 32 32 32 34 35 36 37 38 39 38 39 38 38 36 35 35 35 36 36 33 29
40 39 40 37 41 41 40 40 39 39 37 30 24 22 22 21 22 22 22 23 25 26 28 30 31 31 31 30 31 32 33 33 33 34 35 34 35 36 35 31 31 32 36
37 37 41 40 40 40 40 41 41 42 41 40 40 39 35 32 36 37 35 31 29 27 27 29 31 31 32 33 33 35 39 43 42 41 43 46 46 40 40 38 32 30 32
33 34 36 41 40 40 40 41 41 42 43 43 43 44 46 47 44 39 42 44 46 47 47 45 42 42 39 38 39 40 39 42 47 50 52 52 51 53 49 41 38 33 34
31 31 32 37 40 39 40 40 41 42 43 44 44 45 46 47 48 47 47 46 47 48 48 49 49 50 49 49 47 45 44 44 44 46 49 51 52 53 54 54 48 39 36
40 30 31 33 37 38 39 40 41 42 43 44 44 46 46 47 47 48 48 48 47 48 47 48 47 48 48 49 49 50 51 50 49 47 46 47 50 52 52 53 53 49 39
50 44 30 32 33 36 38 40 41 42 43 44 44 45 46 47 47 47 47 48 48 48 48 49 50 50 50 50 50 51 52 52 53 53 51 49 48 51 53 54 54 54 51
56 50 47 30 33 34 37 39 41 42 43 44 44 45 45 46 46 47 47 48 48 49 49 50 50 51 51 51 52 52 52 53 54 56 56 54 52 50 52 55 57 59 58
50 52 51 39 31 34 35 38 40 42 43 43 44 44 45 45 46 46 47 47 48 48 49 49 50 50 51 51 52 53 53 54 55 58 60 60 58 56 54 54 57 60 62
56 62 61 52 36 33 35 36 40 42 43 44 44 44 44 44 45 46 46 46 47 47 48 51 52 53 55 57 53 57 59 60 62 62 62 59 57 57 57 57 59 61 63
76 77 74 73 63 38 34 35 38 40 40 41 42 42 40 40 40 42 43 44 45 49 56 58 58 57 48 46 38 35 35 36 40 44 49 53 56 59 61 62 61 60 63
91 83 74 74 72 61 52 37 36 38 35 34 35 37 39 40 40 41 43 49 55 58 56 53 46 40 36 38 39 39 39 38 38 39 41 42 46 50 55 61 64 65 66
88 81 77 73 73 64 59 52 43 41 43 45 44 42 43 44 45 50 55 56 50 44 45 43 40 41 44 42 40 42 44 44 46 44 46 47 52 55 62 65 72 76 77
87 85 82 66 64 74 70 62 53 47 44 41 40 39 37 36 39 45 46 40 40 43 45 46 45 45 46 45 47 51 55 56 52 54 50 48 52 59 67 73 75 77 81
82 84 85 81 77 72 67 58 54 50 51 53 50 43 38 39 41 45 44 45 44 43 45 46 46 47 49 52 55 60 62 62 62 61 59 57 47 55 63 72 74 74 77
74 79 88 94 88 73 76 74 58 53 52 51 50 45 42 43 50 53 55 59 58 55 52 53 54 54 53 60 66 69 61 58 58 62 42 26 40 56 61 68 70 68 72
76 74 67 58 58 58 61 56 55 47 44 47 44 48 48 54 57 55 58 59 62 65 64 64 58 60 62 65 71 72 62 40 36 35 28 29 67 69 68 68 68 62 60
84 72 67 58 53 49 50 44 39 37 40 41 42 42 42 46 53 55 54 58 60 61 60 62 62 60 62 62 59 46 33 36 41 32 30 34 46 46 54 48 43 54 42
74 71 72 60 56 50 46 43 41 33 32 32 32 32 32 34 39 40 45 54 59 60 60 62 61 58 49 33 26 22 22 32 41 41 46 56 34 38 36 33 33 34 37
70 69 65 62 52 46 45 44 42 40 36 33 30 28 28 27 27 28 29 34 40 43 47 39 30 25 21 21 22 22 33 62 60 53 52 33 33 35 36 37 32 34 35

GFSSE_700_rhum_090.txt.gz
RH
31 28 24 21 20 20 21 22 22 21 21 22 23 23 22 22 22 18 11 7 7 10 11 12 13 11 11 12 11 8 6 7 10 10 12 15 20 20 16 16 17 18 18
34 27 24 20 19 20 21 22 23 24 25 25 25 24 23 22 22 21 13 9 8 7 8 8 8 8 7 7 9 10 10 11 17 21 21 22 18 17 18 18 19 21 22
30 31 24 22 22 22 24 26 26 26 26 26 26 24 23 22 22 21 18 15 13 11 10 10 10 11 11 13 16 20 22 21 18 18 19 18 19 20 23 20 19 19 20
31 30 29 24 22 24 26 27 27 28 28 28 28 28 26 24 21 21 21 21 21 21 21 20 21 22 21 20 18 17 18 18 20 21 21 22 23 28 22 22 22 22 46
33 32 31 27 19 20 25 27 28 28 28 28 28 29 28 27 25 22 20 19 19 18 18 18 18 19 20 22 22 22 23 23 24 25 26 26 26 27 27 26 24 53 48
35 32 35 34 23 16 19 23 26 26 26 26 24 25 24 25 26 27 28 28 28 28 28 27 27 28 29 31 32 34 35 36 36 37 37 36 36 36 35 35 34 32 29
37 34 36 38 34 23 18 18 19 21 20 20 20 20 22 21 23 25 28 29 30 30 31 32 33 34 34 33 32 31 31 31 30 30 30 30 30 30 29 27 27 32 34
38 37 38 40 40 37 34 32 27 22 20 19 19 20 20 20 21 22 24 26 27 27 28 28 27 27 28 29 31 33 33 34 34 35 36 37 36 33 33 31 28 29 31
38 39 40 39 40 40 40 39 39 37 34 31 28 27 29 28 26 26 26 26 26 26 27 26 27 27 29 30 31 33 36 38 42 45 44 44 46 48 45 37 35 31 32
34 40 40 40 41 40 40 41 41 41 41 40 40 42 43 37 35 36 41 43 44 46 46 48 48 48 47 44 42 40 40 39 39 42 43 45 48 48 48 48 46 38 33
30 35 39 40 40 40 40 41 42 42 42 43 44 44 45 46 47 47 47 46 46 47 48 49 49 49 49 49 49 50 49 49 47 46 45 43 44 46 49 50 51 51 43
31 29 36 38 39 40 40 40 42 43 43 43 44 45 46 48 48 48 48 48 48 47 47 47 47 48 48 49 50 50 51 52 52 52 52 50 48 45 46 49 53 54 54
38 30 30 36 37 38 39 40 41 42 43 44 44 46 46 47 47 47 47 47 47 48 48 49 50 50 50 51 51 52 52 52 53 54 55 56 55 52 50 48 50 56 57
53 40 29 31 35 36 38 38 40 41 42 43 44 45 46 46 47 47 47 48 48 48 49 49 50 50 51 51 50 50 52 53 54 55 56 58 59 58 56 54 54 55 56
58 60 54 31 32 35 37 38 38 40 41 43 44 44 45 45 46 46 46 47 47 48 48 49 49 50 51 51 53 53 53 56 57 60 62 62 61 58 56 55 55 55 55
49 53 54 56 36 34 36 38 39 40 41 42 43 44 44 44 45 45 46 46 47 47 47 48 49 52 54 55 53 45 46 42 40 42 43 45 49 51 51 51 52 54 55
53 49 54 52 59 37 36 38 42 42 42 43 43 44 44 44 44 44 45 46 45 45 46 50 55 57 57 48 40 33 34 35 37 37 37 38 39 40 40 42 43 46 54
56 55 57 55 60 54 44 39 41 43 44 44 44 44 43 44 42 40 41 42 43 45 52 58 55 51 45 37 37 38 37 39 40 42 46 45 43 44 45 49 55 62 62
66 67 74 79 77 72 60 51 41 41 43 45 42 41 39 37 38 41 42 44 50 55 56 48 44 43 39 40 43 43 42 47 49 53 54 54 49 46 47 50 62 66 67
73 82 84 82 82 72 67 73 75 50 40 41 36 37 44 46 45 44 48 50 49 44 40 45 44 42 41 44 46 46 49 55 58 61 63 63 62 57 54 46 56 66 73
78 80 89 83 76 74 72 73 71 60 49 47 52 51 46 44 41 41 42 42 40 40 44 44 43 45 46 49 49 53 53 62 66 70 67 64 68 68 54 43 55 58 64
79 86 88 88 85 82 77 77 76 76 72 68 65 55 49 44 44 49 53 55 52 50 51 51 52 53 55 58 60 57 60 64 60 64 63 50 46 31 34 51 55 64 67
76 82 84 87 87 82 79 80 88 90 75 78 74 65 58 59 57 55 55 55 59 58 59 62 64 67 71 64 64 66 65 59 47 33 26 26 35 30 36 66 64 62 67
84 97 86 84 69 85 89 88 91 90 86 92 92 76 61 51 50 51 54 55 57 57 56 60 66 70 67 67 66 66 66 50 30 26 25 41 49 49 44 36 41 40 38
81 87 82 76 77 68 65 92 81 73 79 86 83 87 85 57 46 51 54 56 55 50 50 56 64 67 67 66 65 52 36 25 26 27 38 63 50 47 30 31 34 34 30
87 90 78 74 67 62 64 64 66 62 62 54 54 48 42 39 36 35 34 35 38 38 42 50 56 56 54 46 33 25 24 26 29 36 42 53 46 35 36 37 35 31 28

GFSSE_700_rhum_093.txt.gz
RH
29 26 21 19 19 20 20 21 22 21 21 22 22 21 21 20 16 10 10 15 24 21 18 12 11 11 12 9 7 6 8 10 11 16 20 21 18 16 17 18 18 20 20
32 26 23 20 19 20 21 21 22 23 24 24 23 22 21 22 19 12 8 7 8 8 8 8 8 7 7 9 10 10 14 20 20 18 17 16 17 18 18 18 18 19 19
30 27 22 19 19 20 21 24 25 25 25 25 24 22 21 21 19 16 12 11 10 9 9 9 10 11 13 17 21 21 19 17 18 18 18 19 24 23 21 21 21 29 38
29 26 23 22 22 22 24 25 26 26 27 27 25 24 22 21 21 20 20 20 19 18 18 20 21 21 20 18 18 19 20 21 22 22 22 23 23 23 23 23 60 68 51
30 28 25 20 20 23 25 26 27 27 28 29 28 27 24 21 20 19 19 19 19 18 18 18 18 20 22 22 24 25 26 27 30 31 33 34 34 34 34 33 33 30 28
33 30 26 20 17 21 24 25 26 27 28 28 27 27 26 26 26 26 25 25 25 25 26 26 27 29 32 33 35 35 36 36 34 33 30 29 28 26 26 25 24 28 30
34 32 32 23 16 16 18 21 21 22 23 23 22 22 24 26 26 27 28 28 29 29 31 32 32 32 29 28 27 27 27 28 28 30 30 31 29 28 27 25 24 24 25
34 36 36 32 23 18 17 16 17 18 18 19 20 21 23 23 25 26 26 27 27 27 26 25 25 26 26 26 27 30 32 36 36 37 38 38 38 38 35 32 29 27 26
36 37 38 37 34 32 31 27 21 19 19 19 19 20 21 22 22 22 23 24 24 24 24 25 26 27 27 28 29 30 30 32 32 34 35 38 40 42 42 46 44 37 33
36 38 38 39 39 38 38 37 34 32 30 28 27 26 26 28 30 33 36 36 38 40 43 45 46 48 49 49 49 48 47 46 44 43 41 40 39 39 40 43 44 44 44
40 38 40 39 39 39 40 40 40 40 40 38 38 39 41 44 44 45 44 45 45 46 47 48 49 49 49 49 50 50 51 52 52 52 53 52 50 47 44 41 42 45 46
35 40 42 38 39 40 40 40 41 42 43 43 43 44 44 46 47 48 48 48 48 48 48 48 48 48 49 49 50 51 51 52 52 53 54 55 55 55 54 51 48 45 46
30 39 42 40 39 39 40 41 41 42 44 44 45 46 47 47 48 48 47 47 47 48 48 49 49 50 50 51 51 50 51 52 53 53 54 56 58 59 58 56 54 51 48
33 31 36 41 40 38 38 40 42 42 43 44 44 46 46 47 47 47 47 47 48 48 48 49 50 50 50 51 51 52 52 52 53 55 56 59 59 58 57 53 52 52 51
43 33 31 33 37 38 39 38 40 43 42 43 43 44 45 46 46 46 47 47 47 47 48 48 49 49 50 51 53 54 51 46 50 45 35 34 35 37 37 39 39 39 43
60 47 37 31 32 36 37 37 37 39 41 42 43 44 44 45 45 46 46 46 46 47 47 47 48 48 52 54 55 45 38 34 33 33 33 32 35 35 38 38 36 40 44
53 62 58 52 36 32 37 38 38 38 39 40 42 43 44 44 44 44 45 45 46 46 46 46 46 51 57 56 42 36 34 36 34 37 39 44 44 45 42 39 41 45 46
52 51 59 59 62 56 46 39 42 42 41 42 41 42 43 43 44 44 45 45 45 43 44 45 51 58 54 45 37 37 40 39 38 43 48 52 53 55 53 50 48 43 40
59 56 54 52 55 64 67 55 51 53 48 45 42 43 44 45 45 45 44 40 40 42 45 54 58 51 43 40 37 40 43 44 45 50 57 59 62 63 64 59 60 57 46
64 64 60 55 55 56 62 67 59 60 53 46 44 46 46 45 44 40 39 42 44 48 52 54 43 40 42 41 40 43 46 49 52 56 62 64 65 65 57 61 63 44 43
71 68 64 65 64 64 69 69 68 64 63 54 53 52 48 43 40 44 46 46 45 42 43 39 40 43 44 46 47 51 53 58 59 62 64 65 71 57 48 49 41 36 48
61 70 78 77 85 82 73 71 72 86 88 80 62 52 56 56 53 50 49 51 46 43 43 44 46 49 52 56 59 62 63 62 60 59 56 50 44 30 29 39 36 41 73
55 65 79 89 81 89 83 80 72 74 78 72 66 72 73 71 66 63 59 60 54 47 49 54 57 62 65 66 69 74 68 66 66 68 53 29 22 24 45 52 50 50 51
63 74 76 81 92 87 90 82 79 68 76 78 66 74 87 79 75 72 74 70 69 59 56 58 61 62 62 65 63 69 69 70 72 56 33 20 23 35 59 52 48 34 37
65 71 79 79 85 90 91 93 85 87 80 86 73 78 87 74 83 96 97 95 87 55 56 60 62 60 57 63 70 66 65 67 50 29 22 27 32 36 46 48 35 35 35
66 70 73 77 80 90 86 90 85 92 96 95 91 96 93 88 81 74 65 68 68 59 54 53 54 51 54 55 61 62 44 32 24 22 35 39 41 39 36 35 37 37 34

GFSSE_700_rhum_096.txt.gz
RH
26 22 19 17 17 18 19 19 20 19 19 18 19 19 18 15 11 42 53 63 70 66 37 10 10 10 7 7 8 10 10 14 20 21 19 16 16 16 17 17 17 17 18
30 25 20 19 19 20 20 20 19 20 21 21 21 21 20 18 12 9 8 8 8 8 8 7 7 8 10 10 12 19 21 19 17 16 16 20 19 19 19 20 23 24 20
30 24 22 20 19 20 20 20 21 22 22 22 21 20 20 17 13 10 9 8 8 8 8 10 11 14 20 21 20 18 18 19 20 20 21 22 22 22 25 46 59 45 23
27 25 21 19 19 21 22 23 23 23 23 22 22 21 20 20 18 17 16 16 15 16 18 20 21 19 17 17 19 20 21 23 24 25 28 29 30 31 36 37 33 29 28
29 23 22 22 22 23 24 24 24 24 24 24 23 22 20 20 20 20 20 20 20 19 18 18 20 21 23 24 26 29 32 33 32 33 32 30 28 26 25 25 26 27 29
30 27 24 20 20 23 25 25 25 25 25 24 24 24 22 21 20 20 19 20 21 23 25 26 28 31 32 33 33 32 31 29 24 24 24 24 25 23 24 23 22 22 24
31 27 23 18 17 21 22 23 24 23 24 23 22 22 24 25 26 26 27 27 28 29 30 31 29 27 25 25 25 26 27 25 26 28 29 29 29 29 29 27 26 26 25
31 30 25 18 14 17 18 19 20 20 20 20 20 21 22 23 25 26 26 27 28 26 24 24 23 23 22 22 23 23 24 26 26 28 29 31 31 33 34 34 34 34 31
31 32 30 23 16 15 15 15 16 17 18 18 19 19 21 21 20 21 21 22 22 21 22 24 27 30 33 36 38 40 40 40 39 40 40 38 36 35 35 35 35 37 38
34 34 34 28 28 25 23 19 18 18 19 20 20 20 20 21 21 20 20 22 29 36 41 44 46 46 47 47 48 49 51 52 50 52 52 52 52 52 50 45 41 39 40
35 35 37 33 35 34 33 32 30 27 25 26 26 26 26 30 34 36 38 41 44 46 47 48 49 50 50 50 51 51 52 52 52 53 54 55 55 52 50 51 51 49 45
36 37 38 37 39 38 38 37 37 36 36 36 38 40 42 45 46 48 49 49 49 49 49 49 49 50 50 51 51 51 51 51 52 53 54 55 57 58 57 52 48 48 49
35 37 38 38 39 40 40 40 40 40 40 41 43 44 44 47 48 48 48 48 48 48 49 49 50 50 51 52 52 52 52 52 49 51 53 51 50 45 39 39 40 41 41
32 39 40 38 39 40 40 41 41 42 42 43 44 45 46 47 48 48 48 48 48 48 48 49 49 50 50 51 52 53 54 48 43 37 35 32 31 31 31 33 34 34 34
40 39 43 47 42 42 40 41 41 42 43 44 44 45 46 47 47 47 47 47 47 48 48 48 48 48 49 51 53 54 48 37 34 31 33 33 34 39 38 36 35 34 40
44 35 37 52 50 41 46 39 40 41 43 44 44 45 45 46 46 46 46 46 46 46 47 47 47 47 47 52 56 49 36 34 35 34 36 40 46 45 45 46 47 44 42
70 48 36 38 41 44 49 49 48 38 43 42 43 44 44 45 45 45 45 45 45 46 46 47 45 45 48 56 52 38 33 36 39 39 42 46 51 54 54 53 52 54 51
69 72 52 47 39 44 41 52 52 44 39 41 42 43 43 44 44 45 44 44 45 45 45 43 43 46 54 56 40 37 35 38 42 44 46 50 56 55 55 54 49 40 45
55 57 59 62 54 55 36 38 49 55 51 42 39 40 41 42 43 43 44 45 45 44 40 42 45 50 52 41 37 37 38 41 45 50 53 55 58 54 52 47 38 33 40
57 60 60 60 60 64 68 64 69 50 47 45 44 44 42 42 44 45 46 47 45 38 42 44 45 45 40 37 40 42 44 46 52 56 60 60 59 51 48 36 31 29 39
57 56 62 60 59 51 51 59 64 64 58 57 52 47 47 46 46 49 48 46 39 44 48 45 41 38 38 42 44 49 51 54 61 68 66 66 67 52 32 24 25 34 40
52 57 62 66 64 62 58 55 56 63 69 69 65 61 56 56 55 50 48 46 47 52 50 43 42 43 44 48 54 58 58 60 67 69 63 64 58 41 25 23 33 51 56
49 48 51 61 66 69 66 70 70 75 66 70 75 74 79 70 67 67 60 62 65 61 54 54 54 53 57 59 61 63 62 64 67 67 68 68 57 31 25 27 37 56 50
48 50 52 50 58 66 75 72 75 88 81 86 99 96 86 86 87 86 82 82 69 67 63 68 75 73 67 66 64 61 65 71 74 75 70 62 36 27 29 32 34 46 44
54 41 54 56 54 60 70 86 80 81 86 89 95 99 90 81 84 86 87 82 82 83 76 76 82 81 69 68 63 57 57 66 72 77 53 36 33 34 42 36 36 36 34
58 52 58 62 70 71 76 81 95 91 70 91 92 96 96 85 81 86 90 93 91 98 97 92 90 83 67 54 49 43 37 38 37 37 36 44 41 48 40 35 32 34 37

GFSSE_700_rhum_099.txt.gz
RH
22 19 18 17 16 16 16 17 17 17 16 15 15 15 13 23 67 66 81 83 83 79 28 9 9 7 8 9 10 12 19 20 19 16 16 16 17 17 17 18 19 19 21
29 21 18 18 17 18 18 18 17 16 17 17 18 17 16 12 21 33 46 48 24 9 8 7 8 10 12 17 20 19 16 16 18 20 20 20 20 22 26 34 32 23 22
26 23 20 19 19 18 18 18 18 19 19 19 19 19 17 14 10 8 8 7 7 8 9 12 17 21 20 18 16 17 19 21 23 23 24 25 28 52 42 36 29 27 26
26 22 21 20 19 18 19 21 21 21 21 20 19 19 17 15 12 11 11 12 14 16 20 21 18 17 18 20 22 23 26 29 29 30 31 30 29 27 26 25 25 27 29
25 23 20 19 19 20 22 22 22 22 21 20 20 19 19 19 19 19 19 20 20 19 18 19 21 23 25 28 30 32 32 30 25 24 22 22 23 22 22 21 21 22 22
26 22 21 21 21 21 22 23 23 24 22 22 20 19 19 19 19 19 18 18 20 23 25 28 29 30 30 27 25 24 26 23 23 24 25 25 27 26 26 26 25 24 24
25 25 23 21 20 21 22 23 22 23 23 22 20 20 21 21 22 23 25 27 28 30 29 27 24 22 22 23 24 26 25 23 25 25 25 26 27 27 28 29 30 30 30
27 26 22 19 18 20 20 21 21 20 20 20 20 20 20 22 23 25 26 27 25 22 21 21 20 20 21 23 26 28 32 35 36 38 38 40 40 38 36 34 32 31 31
27 26 22 17 15 16 17 17 18 16 16 17 16 18 19 19 21 21 21 20 20 20 21 26 34 41 45 46 46 45 44 50 46 46 46 47 47 47 48 50 48 42 38
28 27 25 18 14 12 13 14 15 15 15 16 16 17 18 19 19 19 20 20 25 34 40 43 46 49 50 50 51 51 51 52 51 51 53 54 54 54 51 49 50 50 49
30 28 27 21 20 17 15 14 15 16 16 18 18 19 21 22 24 27 31 36 41 46 48 50 51 51 51 51 51 48 48 49 52 52 51 50 52 52 50 48 45 44 44
34 31 29 27 28 28 25 25 23 21 21 22 22 24 28 34 39 44 47 48 49 50 51 51 51 52 52 53 53 53 53 51 44 46 42 37 34 33 32 32 34 34 33
35 33 31 32 34 34 34 34 32 32 31 32 33 36 39 41 46 48 49 49 49 49 50 50 50 51 52 52 53 53 54 43 35 34 30 30 30 33 36 34 33 33 34
38 34 33 34 38 37 37 37 37 38 38 39 40 42 44 44 45 48 48 48 48 49 49 49 50 50 50 50 53 54 51 35 30 29 31 32 37 40 38 42 44 42 38
42 36 34 35 38 38 39 39 39 40 41 42 43 44 46 46 47 47 48 48 48 48 48 48 48 49 48 48 53 55 47 34 30 32 32 37 42 44 45 46 47 48 50
50 39 38 36 37 40 40 40 40 42 42 43 43 45 46 46 47 47 47 47 47 47 47 47 46 45 46 47 54 53 42 32 33 35 37 40 44 48 47 47 47 44 30
53 45 41 64 52 39 40 41 40 42 43 44 44 44 46 46 46 46 46 46 46 45 46 45 44 44 44 47 53 47 36 32 33 37 41 46 49 53 49 44 39 36 33
65 66 50 52 59 54 44 44 42 40 41 43 44 44 44 45 45 45 45 45 45 45 45 45 41 43 45 49 51 37 36 36 38 42 47 51 54 55 53 48 33 26 28
75 65 69 51 43 50 48 54 55 47 48 40 42 42 43 43 44 44 44 44 44 45 46 45 41 43 46 49 47 36 39 41 44 49 55 59 58 59 59 51 30 23 24
62 74 67 77 62 51 47 46 53 46 51 52 46 41 42 41 42 42 43 43 45 46 47 42 42 44 46 45 37 41 42 46 51 56 63 69 65 62 63 48 26 22 23
56 57 59 59 69 72 63 51 57 53 41 40 46 48 48 43 42 45 46 48 48 48 47 41 45 46 46 41 41 48 49 55 60 63 68 72 66 64 60 33 21 21 27
50 56 61 70 72 69 66 62 58 65 69 74 64 58 57 58 57 54 59 56 54 50 43 45 54 54 49 52 51 54 58 62 63 63 68 71 72 58 47 30 25 27 31
48 48 55 63 67 72 73 73 71 70 70 69 64 69 76 84 87 88 80 74 67 55 56 63 61 56 60 66 73 72 70 67 60 58 64 64 60 60 43 31 27 38 36
46 48 47 49 53 61 71 71 76 81 80 82 73 71 81 90 90 93 92 90 91 92 83 83 87 67 62 71 83 85 86 76 67 61 62 75 65 48 35 37 39 40 37
45 44 43 43 44 48 52 63 79 82 84 73 68 71 74 95 99 99 95 96 100 99 97 93 98 97 95 90 91 96 96 80 67 54 50 44 42 48 45 43 34 36 35
33 37 32 31 35 38 52 67 73 86 77 85 81 76 78 94 97 100 95 100 97 97 94 95 93 96 98 96 99 97 92 68 43 43 46 52 61 45 50 44 33 32 34

GFSSE_700_rhum_102.txt.gz
RH
19 18 18 18 17 16 16 15 15 16 16 15 14 13 14 38 66 84 94 90 87 73 9 8 6 8 9 12 18 19 17 16 16 16 17 18 19 22 23 22 21 23 53
24 20 18 18 17 17 16 16 16 16 15 16 15 14 16 54 68 81 86 85 46 8 7 8 10 15 20 20 16 17 17 19 20 21 23 30 38 42 36 28 25 24 25
25 22 19 18 17 17 18 18 16 16 18 18 18 16 13 18 36 54 40 12 7 8 11 16 20 19 17 17 19 20 22 25 28 29 30 28 27 26 26 26 27 27 28
24 22 20 19 19 18 18 17 18 19 20 19 19 17 14 11 9 8 8 9 12 17 20 18 17 19 21 23 26 29 31 30 28 25 22 20 20 20 20 20 20 20 22
24 21 21 20 20 19 18 20 20 20 20 20 18 17 15 13 13 14 16 18 20 18 17 20 23 26 28 29 28 27 24 22 21 22 23 22 23 23 23 23 22 23 24
24 22 22 20 20 20 22 21 20 20 20 20 20 19 19 19 19 19 19 18 19 22 25 27 28 26 24 22 21 24 23 22 24 25 26 26 26 26 27 28 28 28 28
25 22 22 21 22 23 22 22 21 21 21 20 20 19 19 18 18 19 20 23 26 27 25 22 20 20 20 20 22 24 25 28 31 33 35 37 37 37 36 33 31 30 30
25 22 23 23 23 23 22 22 20 20 20 20 20 20 20 21 22 23 23 24 23 21 19 18 18 22 30 38 44 41 43 43 44 44 42 40 39 41 43 45 45 42 39
23 24 23 22 21 20 20 20 20 18 17 17 19 19 20 21 21 21 20 20 19 18 21 32 37 39 41 44 48 51 50 53 51 51 50 49 49 48 45 42 42 44 46
24 25 22 19 17 16 16 17 16 15 15 15 17 18 20 20 20 20 19 20 27 33 36 41 43 45 47 44 41 45 49 53 53 49 48 46 44 41 37 36 37 39 39
27 25 22 17 14 14 13 13 14 14 15 16 17 18 18 18 18 20 27 33 38 45 48 51 52 53 53 52 51 50 50 48 44 41 36 32 30 30 30 30 33 33 32
28 26 22 16 14 13 12 12 13 14 16 17 18 19 21 24 28 35 41 46 49 50 51 52 52 52 53 53 53 52 49 40 34 31 29 29 31 33 36 38 36 34 34
30 26 23 18 17 18 17 17 17 16 17 18 19 22 27 34 42 46 49 50 50 50 50 51 51 51 51 51 53 51 42 34 29 27 29 31 37 38 39 42 46 47 46
52 42 24 21 24 26 25 25 25 26 25 26 30 34 38 41 43 46 47 48 49 49 49 49 49 49 49 49 51 52 43 30 29 29 28 31 36 40 42 43 42 40 34
47 32 26 26 28 32 32 32 34 35 36 36 38 41 43 45 46 47 48 48 49 49 48 48 48 48 48 49 49 54 47 31 28 32 33 35 38 45 44 38 34 35 33
51 35 30 28 32 34 36 37 38 39 40 40 42 44 45 46 47 48 48 48 48 48 48 47 47 48 47 46 48 54 49 35 30 33 37 42 45 47 48 46 39 30 37
62 46 34 30 34 36 37 37 39 40 41 42 44 45 46 46 47 48 48 47 47 47 47 46 47 45 43 44 48 55 48 37 35 38 43 47 51 56 56 53 45 38 25
72 74 63 37 33 38 38 38 40 41 42 43 44 45 46 47 47 47 47 46 46 46 46 46 46 44 42 42 46 49 42 39 39 42 47 53 59 64 63 62 57 44 23
67 76 74 67 42 37 40 40 39 40 42 43 44 45 45 46 46 45 45 46 46 45 45 45 46 45 42 42 41 41 36 39 43 48 53 59 66 71 66 66 60 32 22
65 66 68 65 63 68 67 55 62 54 46 42 41 41 42 43 43 43 44 44 44 44 44 46 48 47 43 44 39 42 40 45 48 55 61 66 71 71 68 65 58 30 23
72 70 60 68 66 58 60 60 48 50 52 52 53 54 48 41 42 43 42 43 44 46 51 52 51 47 45 55 51 47 45 49 55 65 69 63 73 72 70 62 47 28 26
71 72 73 72 67 63 66 73 57 58 55 59 59 47 48 52 53 55 53 55 55 57 58 58 54 48 53 65 57 53 52 59 71 75 72 66 66 69 68 44 42 35 33
54 60 62 67 65 66 72 73 76 69 65 61 67 69 67 65 68 68 68 72 67 66 72 81 84 82 78 76 76 66 65 65 68 76 77 67 66 64 49 72 44 47 41
50 56 65 64 67 67 59 64 71 63 65 78 75 70 70 79 72 72 82 91 90 88 86 90 89 91 92 95 96 86 83 84 74 81 82 72 61 62 84 81 55 49 49
53 51 52 51 54 55 58 62 67 72 73 77 74 76 80 81 74 82 85 93 95 97 99 99 98 98 98 98 98 99 98 98 100 100 98 62 56 84 55 63 48 57 52
52 46 48 52 52 46 46 59 58 60 64 68 76 76 78 80 81 84 88 98 97 100 97 99 100 98 100 99 100 100 100 100 100 99 91 81 81 70 72 70 55 63 42

GFSSE_700_rhum_105.txt.gz
RH
16 19 23 19 17 16 15 14 14 14 14 14 13 10 11 30 53 83 90 86 82 44 8 6 8 10 17 19 17 16 17 17 18 20 24 27 33 29 25 23 25 30 35
18 18 20 18 18 16 16 15 16 15 15 14 13 13 26 51 77 91 88 82 46 8 7 10 18 19 17 16 17 19 20 21 23 27 32 28 25 26 27 27 27 28 30
20 22 19 19 17 18 17 17 17 15 14 15 15 34 58 69 74 86 83 22 7 9 16 20 18 17 18 20 22 24 26 28 28 25 21 19 18 19 19 19 20 21 21
24 24 20 18 18 18 18 18 16 16 16 17 19 38 34 41 50 42 12 8 12 19 19 17 18 21 23 25 27 29 27 23 20 20 20 20 20 20 21 20 21 22 23
28 24 20 19 19 19 19 18 19 19 18 18 18 15 13 11 9 9 11 17 20 17 18 21 25 26 27 24 22 22 22 22 22 24 25 25 25 24 25 26 26 26 26
28 22 20 20 20 21 19 20 20 20 19 18 17 14 12 12 14 17 19 18 18 21 24 26 25 20 20 20 21 22 21 22 23 25 28 28 29 29 29 28 29 29 29
24 22 21 21 20 20 22 22 21 20 20 19 18 18 18 19 19 19 18 20 23 24 22 20 20 19 18 21 26 31 33 36 38 38 37 36 37 38 41 40 39 38 38
24 23 22 21 21 22 22 23 22 21 20 19 18 18 18 18 19 20 23 24 21 19 18 18 22 32 36 37 38 38 39 40 42 43 43 42 38 35 33 33 35 37 39
24 23 22 22 23 23 22 23 21 20 20 18 18 18 19 20 21 22 21 19 18 18 28 33 35 37 41 39 42 43 45 44 43 41 37 34 29 28 28 30 31 31 31
26 25 23 23 22 23 23 21 19 18 18 18 18 19 20 20 19 19 18 18 27 32 35 37 41 41 46 48 46 44 40 40 35 31 28 26 27 29 29 28 29 29 30
46 30 25 23 21 22 20 18 16 15 16 16 17 18 19 18 18 18 24 30 36 44 48 50 52 52 52 53 54 49 37 30 29 26 27 29 32 32 37 39 40 38 36
42 38 28 25 21 18 16 14 14 14 15 16 17 17 18 18 21 29 38 45 48 50 51 52 52 52 52 52 53 51 43 30 27 26 28 33 37 37 39 40 41 39 41
44 40 33 28 22 15 13 12 12 14 14 15 16 18 19 24 32 42 47 49 51 51 51 51 51 50 50 50 52 53 46 31 29 29 28 33 37 40 40 39 35 36 34
63 60 44 31 23 16 14 13 14 14 14 15 16 20 27 34 39 41 44 47 48 49 50 50 50 50 49 49 50 51 49 35 30 32 32 36 38 45 47 41 35 27 24
63 49 40 31 22 16 15 16 17 18 18 21 27 33 36 40 43 46 48 49 49 49 49 49 49 48 48 47 48 51 53 41 30 30 35 39 44 47 50 50 49 41 38
68 44 40 34 24 18 20 23 24 27 29 32 36 40 42 45 46 48 49 49 49 49 49 48 48 48 47 46 47 49 51 44 35 34 39 44 48 53 58 59 57 54 50
64 54 59 34 26 20 24 29 32 35 37 38 40 43 45 47 48 48 49 49 48 48 48 48 47 48 47 45 45 46 47 44 37 37 41 46 52 59 67 67 60 64 47
78 64 49 36 34 24 26 31 34 38 39 40 42 45 46 47 48 49 49 49 48 48 47 47 46 47 48 44 45 45 47 45 38 40 45 50 56 63 71 72 65 60 47
70 74 64 41 36 39 31 31 34 37 40 41 43 45 46 47 48 48 48 48 47 47 47 46 46 47 48 47 43 45 50 51 44 46 49 55 61 65 71 72 68 61 45
84 82 80 52 42 35 35 33 34 36 38 41 42 44 45 46 46 46 46 46 45 45 45 46 45 46 48 50 45 48 53 52 48 54 57 63 66 64 66 70 72 64 41
93 97 66 85 62 53 41 42 38 37 38 42 46 40 41 42 43 43 44 44 44 44 44 45 47 49 53 54 48 50 58 54 55 60 63 75 73 70 70 65 63 48 37
85 94 86 80 80 93 92 79 73 62 51 61 63 70 57 56 54 56 50 51 55 54 51 56 61 63 63 66 56 60 68 65 60 63 71 77 76 73 71 77 69 70 82
83 78 79 73 80 69 72 87 83 83 74 68 61 54 58 62 63 56 57 62 70 70 70 69 67 84 89 95 92 90 78 74 71 76 83 85 86 75 84 64 73 72 96
90 97 93 76 77 74 88 79 80 82 83 73 75 80 67 62 65 65 68 64 63 80 89 81 83 98 97 91 97 97 98 98 97 92 90 94 95 93 62 66 100 79 69
57 60 76 77 78 78 79 75 79 78 83 85 82 58 60 60 73 76 74 81 92 93 95 100 98 100 99 99 99 98 98 98 99 99 98 99 100 100 91 99 100 72 66
61 57 59 67 70 73 68 68 71 69 72 73 67 70 78 81 91 95 99 92 82 90 94 83 94 90 89 97 99 100 100 100 100 100 98 99 98 100 98 92 87 80 66

GFSSE_700_rhum_108.txt.gz
RH
19 14 20 19 21 18 14 14 14 13 13 14 12 8 19 55 38 79 86 80 77 10 6 8 14 18 18 16 16 18 18 20 25 33 31 30 26 26 27 36 31 31 30
19 14 20 17 19 17 15 15 14 15 15 15 13 10 14 32 58 88 88 79 19 7 10 19 19 16 16 18 20 21 22 24 25 24 22 20 21 21 21 27 38 21 20
18 16 18 18 18 16 16 15 16 16 16 14 13 16 30 60 83 90 83 18 7 13 19 18 16 18 19 22 25 26 25 23 19 18 19 18 17 18 20 36 22 19 20
18 18 19 18 17 16 16 17 17 16 15 18 33 47 59 70 86 84 23 8 15 19 17 18 19 22 25 26 25 21 19 19 19 20 20 21 21 23 23 23 23 24 23
19 22 21 19 17 17 17 18 17 17 18 21 54 44 30 38 44 11 9 18 19 17 19 21 24 25 22 20 20 20 20 21 21 22 23 23 23 23 24 24 24 26 25
23 26 22 19 18 18 18 18 18 19 19 19 17 14 12 10 9 12 19 18 18 21 24 25 21 19 20 20 21 21 23 27 30 31 33 33 33 33 33 33 31 31 30
29 26 21 19 19 19 18 20 20 19 19 18 15 13 12 13 17 19 18 20 23 23 20 19 18 19 22 28 32 31 30 30 31 31 29 28 28 28 28 30 32 32 33
31 24 20 20 20 20 20 21 20 19 19 18 17 17 18 19 18 18 21 22 20 18 17 19 26 30 32 33 36 36 38 35 33 33 30 27 25 26 27 27 28 28 28
27 22 21 21 20 21 22 22 21 20 19 18 18 18 18 18 20 22 20 17 16 18 28 32 30 31 34 36 38 38 36 36 32 27 26 26 27 29 28 29 28 27 29
25 23 22 21 21 22 23 23 22 20 19 17 18 17 18 21 22 19 17 17 26 30 33 39 44 46 45 44 42 37 31 31 30 28 28 30 31 36 38 39 38 38 39
26 24 23 22 23 23 24 23 21 20 18 18 18 18 19 19 18 17 20 27 33 40 45 48 52 54 53 50 48 40 30 27 26 28 30 35 36 37 38 35 34 30 28
26 25 25 24 25 24 24 21 20 18 17 18 17 18 17 16 17 22 30 38 42 46 48 49 49 51 53 54 51 48 35 29 28 27 29 34 38 39 36 32 26 22 21
32 27 28 27 27 25 23 20 18 18 16 18 17 16 16 15 23 31 38 43 46 49 50 50 50 50 50 51 53 54 46 31 29 30 30 34 39 44 45 44 44 34 34
51 38 43 30 28 25 23 19 17 16 16 16 15 15 17 22 31 37 42 46 48 49 49 49 49 48 47 47 49 52 53 41 29 28 32 37 41 45 49 51 54 48 47
64 48 49 41 30 25 23 19 17 17 16 16 16 18 24 32 37 41 45 47 49 50 50 49 48 48 48 47 46 47 51 48 35 31 34 38 43 49 57 60 60 59 56
72 71 52 49 42 26 20 18 18 17 17 17 21 28 34 40 44 47 49 50 50 50 49 49 48 48 48 47 46 46 45 46 38 34 36 41 46 53 60 67 64 71 64
70 72 46 66 43 30 20 20 19 18 19 24 31 37 41 44 46 48 49 50 49 49 49 48 48 47 48 48 45 45 45 46 44 38 38 43 49 55 62 69 65 65 67
73 72 67 42 36 37 24 19 20 21 23 30 37 42 44 46 48 49 49 50 49 49 48 48 48 47 47 48 49 45 45 46 49 42 42 44 51 58 66 73 74 68 62
74 68 56 47 40 33 23 22 22 24 26 33 40 44 47 48 49 49 49 49 49 48 48 47 47 47 47 48 49 50 46 47 49 50 47 49 53 62 64 68 76 76 69
67 71 74 65 48 41 27 25 27 27 30 34 40 45 47 48 49 48 48 48 48 48 47 46 46 46 47 49 52 53 50 50 59 58 52 54 58 66 68 66 65 65 63
98 90 79 75 67 57 36 29 26 29 32 36 39 42 45 46 46 46 46 46 46 45 44 45 46 46 49 55 60 61 58 58 59 68 60 58 61 69 73 72 65 71 67
97 99 94 93 76 45 57 50 38 32 35 37 39 41 41 42 43 44 50 55 55 48 51 58 62 60 58 62 63 89 96 84 72 75 71 70 72 78 78 82 96 97 61
82 91 88 94 92 73 86 74 61 59 58 49 52 53 75 69 69 67 62 60 55 57 64 74 81 81 76 76 97 98 97 99 97 96 92 94 87 87 96 94 94 81 92
86 82 96 87 95 87 90 88 92 97 82 82 88 82 85 86 79 78 76 75 74 80 81 85 92 94 97 95 96 100 98 99 99 99 99 100 100 97 97 99 100 98 99
83 93 94 87 89 99 99 96 86 84 86 96 94 84 81 81 77 73 76 80 90 97 99 99 96 91 78 87 86 83 80 89 100 99 100 100 99 99 99 100 99 100 100
93 99 89 96 94 87 91 99 99 99 98 98 90 87 81 76 76 84 92 88 84 90 73 81 90 77 82 77 77 94 100 97 99 99 99 99 100 100 100 100 99 99 90

GFSSE_700_rhum_111.txt.gz
RH
42 19 13 13 15 14 14 13 13 12 12 12 8 14 63 76 56 81 86 80 36 7 8 12 18 17 16 16 17 18 20 23 29 26 25 23 23 23 28 25 24 20 18
38 24 14 14 14 14 13 14 13 13 14 13 10 8 44 63 43 83 82 70 7 9 16 17 16 16 18 19 21 22 23 22 19 18 18 16 16 17 31 41 18 18 18
36 20 15 16 15 15 14 14 14 15 15 14 12 11 38 36 76 91 80 10 9 16 17 16 17 19 21 24 25 23 19 17 16 17 18 17 35 22 19 17 19 20 20
33 21 17 18 16 16 15 15 16 16 16 14 13 26 37 62 89 85 17 8 16 18 16 18 20 22 24 22 18 17 17 18 18 19 19 18 19 20 21 21 22 22 23
27 20 21 19 17 16 16 16 17 16 16 30 48 62 50 77 88 31 9 17 17 17 19 21 22 20 18 18 18 18 18 18 19 21 22 23 24 23 23 24 25 26 26
23 20 22 21 17 17 17 18 16 16 20 48 59 57 45 60 22 9 18 18 17 20 21 19 17 17 18 19 21 24 25 25 26 26 25 26 28 27 28 30 30 30 30
23 21 24 21 17 17 18 18 17 19 19 28 34 18 14 10 10 18 18 18 22 20 17 17 16 18 24 28 28 26 27 27 29 28 26 25 24 25 25 25 24 25 26
24 22 24 21 18 18 19 18 20 19 19 17 14 12 11 14 19 18 19 23 21 17 16 17 24 28 28 29 31 31 31 30 28 26 24 25 25 25 26 27 26 26 30
26 25 24 21 19 19 19 20 20 20 18 16 14 15 17 19 18 21 22 19 17 17 25 28 28 29 31 32 33 32 29 26 25 26 26 30 34 35 35 31 27 26 31
28 28 24 21 20 19 20 21 20 19 18 18 18 18 19 19 21 22 18 15 21 28 27 29 30 32 33 31 29 27 26 26 27 28 31 32 34 34 30 25 22 18 16
49 29 26 23 21 21 21 22 21 20 20 19 19 18 19 21 20 17 16 21 26 32 36 40 42 43 41 40 36 30 26 24 25 27 31 32 34 32 27 25 20 19 23
76 36 26 25 22 22 22 22 20 19 18 18 18 20 22 20 17 15 22 25 32 45 50 51 52 51 51 50 46 37 28 26 26 25 28 30 36 40 40 40 42 36 33
77 44 31 27 24 24 23 22 20 19 19 19 21 20 19 17 16 22 26 31 36 46 49 50 50 49 48 48 48 45 38 29 24 26 29 34 37 40 48 52 52 48 50
91 65 36 32 28 26 26 23 21 19 19 19 20 19 17 16 23 30 35 41 42 44 46 47 48 47 47 47 46 45 43 38 30 26 28 32 38 45 52 59 56 61 62
91 63 43 32 32 28 27 24 20 19 18 18 18 17 17 24 32 38 41 46 48 48 49 48 48 48 48 46 45 44 43 42 38 31 32 36 42 47 53 62 65 63 60
92 79 65 46 36 31 28 26 21 19 19 18 16 17 24 35 39 43 47 49 50 50 49 49 48 48 48 48 46 46 45 44 42 38 33 35 41 49 54 61 72 76 71
77 62 74 67 52 38 31 26 22 20 18 17 17 22 33 38 44 48 49 50 50 50 49 49 48 48 47 48 48 48 46 46 45 42 38 36 40 48 55 59 60 74 70
82 71 72 64 48 45 36 24 22 20 18 19 20 30 39 44 47 49 50 50 50 50 49 49 48 48 48 47 48 50 50 48 49 52 49 42 42 46 55 62 61 67 62
86 80 75 51 49 51 35 27 21 22 20 21 26 36 43 46 48 49 50 50 50 50 49 49 48 48 48 48 48 50 53 53 51 54 59 54 48 50 53 63 65 61 57
92 75 86 72 49 49 50 32 27 24 22 24 30 39 45 48 49 50 50 50 49 49 48 48 47 47 48 48 49 53 58 59 56 58 64 67 60 58 63 68 71 65 63
95 79 70 67 64 40 54 32 25 21 23 26 32 39 45 48 49 50 50 49 48 47 47 46 46 48 51 54 56 63 64 79 90 94 95 76 73 69 69 76 76 80 90
96 90 83 74 58 45 43 46 30 25 26 28 33 39 45 47 49 48 47 46 45 46 48 50 53 64 71 75 76 76 79 85 99 97 98 97 87 87 77 79 84 93 100
92 88 71 69 61 64 62 56 37 28 30 32 33 38 43 44 46 47 51 60 69 69 68 71 77 85 93 95 90 85 72 72 82 89 99 99 99 99 98 96 99 99 98
96 99 93 96 82 70 71 75 53 37 34 33 35 38 43 56 65 65 75 77 81 82 85 94 97 99 99 83 78 81 84 87 91 99 95 95 98 100 100 99 96 99 98
91 96 100 100 98 100 84 91 78 74 78 53 53 58 70 76 88 85 86 82 87 84 98 99 87 68 83 83 88 89 86 92 92 97 99 100 99 98 98 100 100 99 100
74 95 94 98 99 96 91 93 92 97 98 82 71 75 78 84 85 90 89 95 98 86 78 75 85 89 85 80 81 81 82 98 98 96 99 99 99 99 100 99 99 100 100

GFSSE_700_rhum_114.txt.gz
RH
42 38 18 12 13 13 12 11 16 34 16 11 33 68 77 75 68 87 83 73 7 7 10 15 15 15 15 16 18 20 23 25 24 23 32 41 34 29 28 17 16 17 16
47 42 26 14 13 14 13 12 12 12 12 10 10 58 74 76 58 89 83 26 7 10 16 16 16 16 17 18 20 20 19 18 15 16 16 16 25 36 32 16 17 17 18
51 39 32 15 13 13 13 13 13 13 13 12 9 18 58 67 65 92 79 8 11 17 16 16 17 18 20 21 19 16 15 15 15 16 22 34 29 17 17 17 18 19 20
51 42 28 17 15 14 14 14 13 14 14 13 11 11 48 42 84 89 23 9 18 17 17 18 19 20 20 17 16 16 16 17 17 18 17 17 18 19 20 20 20 21 21
51 39 26 19 16 16 14 14 14 15 15 13 12 25 42 58 94 77 8 16 17 17 19 20 20 17 16 16 16 16 17 18 19 20 21 22 24 25 24 26 26 27 27
48 39 27 25 19 18 15 15 16 16 15 16 31 55 49 92 90 11 13 17 18 20 21 19 16 16 16 16 17 20 21 21 22 23 24 25 26 25 24 25 24 24 25
58 38 30 31 21 18 16 16 17 16 19 54 68 56 74 92 31 11 19 17 20 21 18 16 16 17 21 24 22 20 20 22 23 22 22 22 23 24 24 24 23 25 30
57 42 35 34 23 18 17 18 17 19 28 55 61 30 56 27 10 19 18 21 22 16 16 15 20 25 24 24 24 23 23 22 21 22 25 28 28 30 28 23 23 28 30
74 45 40 36 24 21 19 20 19 20 32 46 22 16 12 11 20 18 21 23 18 15 17 24 26 27 28 26 26 23 23 24 25 26 29 31 31 27 22 18 15 13 14
92 71 47 38 23 21 22 21 22 21 22 18 15 11 12 20 19 22 23 18 16 22 25 24 24 29 29 27 26 25 25 26 28 30 30 31 30 26 22 21 19 21 23
97 75 69 40 25 20 22 23 23 21 17 14 13 15 20 20 24 25 18 16 24 24 26 30 32 35 35 30 26 23 22 22 24 26 30 32 37 37 38 41 41 38 30
100 87 75 45 27 22 22 23 22 19 16 16 16 19 20 23 25 19 17 24 26 34 41 44 44 42 42 40 33 25 23 24 24 24 28 31 34 37 46 49 49 48 50
96 86 85 60 30 24 23 23 21 19 18 18 19 20 22 24 20 17 24 29 39 47 49 49 48 46 44 44 43 40 33 26 22 23 26 29 34 40 47 55 56 56 59
99 95 85 60 30 26 25 24 22 20 20 19 20 22 23 20 17 23 29 39 46 48 49 48 48 45 44 42 41 40 40 38 31 28 30 34 38 41 46 53 60 63 59
82 99 89 66 33 27 26 24 22 20 20 20 21 23 20 17 21 28 39 44 48 48 49 49 49 48 47 46 45 43 40 38 37 33 30 31 35 43 48 52 56 69 73
85 100 92 76 40 30 26 25 23 20 20 21 23 22 18 22 29 37 43 47 48 49 50 49 49 49 49 49 48 47 46 46 44 41 39 34 35 40 48 54 54 59 66
88 100 88 72 39 33 28 28 24 22 22 23 23 20 19 30 39 45 48 50 50 50 50 50 49 48 48 48 49 50 50 48 48 49 48 46 39 40 46 53 59 56 53
88 78 93 69 49 37 31 30 27 24 24 24 23 19 28 40 47 49 50 50 50 50 50 49 49 49 48 48 47 48 48 49 51 50 51 56 56 47 46 52 60 65 63
98 92 78 75 65 50 35 32 30 27 26 26 23 22 36 45 49 50 51 51 50 50 50 49 49 49 48 48 47 48 48 50 53 55 53 55 63 64 57 56 60 69 71
98 87 72 58 64 63 45 34 31 29 28 28 23 26 40 47 49 50 51 51 51 50 50 49 49 48 48 47 48 51 55 59 62 68 80 85 86 72 69 64 65 75 80
98 91 68 50 64 64 52 43 31 29 28 29 26 28 41 48 50 51 51 51 51 51 50 48 48 48 48 51 61 69 71 69 69 71 79 89 97 88 83 76 79 86 81
99 92 80 60 36 65 61 57 48 30 29 29 30 28 40 47 49 50 50 50 50 50 48 47 48 50 56 74 84 83 74 76 76 74 94 100 97 99 91 85 86 97 93
99 99 98 83 68 60 61 63 60 38 36 28 29 29 37 43 46 48 49 50 50 47 48 51 61 66 80 88 82 60 55 65 67 74 83 97 98 100 100 100 98 99 98
97 99 99 99 73 55 59 41 40 52 31 30 28 29 34 40 44 47 48 48 50 66 79 82 87 83 94 77 83 63 61 71 72 76 78 86 96 95 99 100 99 100 98
100 98 100 96 81 64 66 62 56 70 58 34 30 32 35 40 47 50 53 62 73 89 93 97 97 90 72 62 85 69 64 72 72 73 90 81 84 97 100 99 98 100 99
100 93 99 99 98 98 84 81 74 78 76 52 39 37 39 53 65 68 74 76 82 91 99 97 76 74 64 76 73 68 72 77 70 82 85 89 97 98 97 92 84 89 99

GFSSE_700_rhum_117.txt.gz
RH
47 48 32 15 12 12 11 14 46 36 32 28 58 80 70 71 87 87 79 38 6 8 14 15 15 15 15 16 18 20 22 22 24 39 48 49 32 32 17 14 15 16 16
47 46 41 19 14 12 12 12 30 38 24 18 52 73 76 71 82 87 79 15 7 14 16 15 16 28 18 18 18 20 22 17 15 16 15 16 42 27 15 15 17 17 17
50 50 43 27 16 13 13 12 12 17 11 11 40 71 79 71 72 87 73 8 12 16 15 16 17 18 19 18 16 14 13 13 13 19 34 35 16 16 17 17 18 19 19
53 51 49 38 20 16 14 13 12 12 12 12 11 50 66 72 74 90 47 9 16 15 16 18 19 18 17 14 14 13 14 14 14 15 15 16 17 18 20 21 22 23 23
54 51 50 37 20 18 14 14 13 13 14 13 11 19 46 56 89 89 12 15 16 16 18 19 19 16 15 15 16 15 15 15 18 19 20 21 22 23 23 22 22 23 24
56 53 47 35 24 19 14 14 14 15 15 14 12 12 60 43 96 63 11 19 16 19 20 19 16 15 15 17 17 19 21 20 20 21 21 21 21 22 21 21 22 24 27
61 57 46 35 27 22 16 15 15 16 16 14 13 48 53 65 94 16 17 18 19 21 19 16 17 16 18 23 22 20 20 22 20 20 20 21 22 24 23 23 25 25 25
64 56 57 39 33 25 17 15 16 17 16 28 57 64 60 89 81 10 19 19 22 20 16 16 18 23 22 22 24 24 22 20 21 26 27 27 25 20 16 13 12 12 14
74 74 67 58 48 31 18 16 18 18 26 69 73 66 86 93 22 19 19 23 22 17 16 19 24 24 24 24 23 23 23 24 24 27 28 27 22 16 14 14 17 16 14
74 100 82 65 64 35 20 18 21 25 44 71 77 61 85 38 14 19 22 23 18 16 22 26 27 27 27 26 24 24 25 27 28 28 28 29 27 30 34 38 38 36 26
76 98 99 69 70 40 21 24 50 36 52 70 63 44 38 12 20 21 24 18 17 26 27 29 30 28 27 25 22 21 21 21 22 25 27 32 33 36 42 46 45 48 49
56 88 99 79 78 49 25 47 39 43 56 67 35 21 12 20 21 26 21 17 25 28 32 36 38 35 32 28 24 22 22 22 22 23 27 29 31 35 41 48 52 52 53
59 86 100 82 80 61 27 47 50 48 58 36 25 14 16 21 24 26 18 22 26 36 43 45 46 44 43 40 38 32 28 24 22 23 26 29 31 34 40 48 53 62 66
87 70 95 95 77 72 28 54 61 58 45 18 20 14 21 22 26 19 21 27 37 46 50 49 49 47 43 42 42 39 35 32 28 27 27 29 31 36 44 49 51 52 64
76 57 84 99 83 74 26 46 59 58 30 18 17 18 21 24 24 17 28 37 48 49 49 48 47 48 47 46 45 45 44 42 39 36 33 31 31 34 41 49 51 51 53
98 84 76 100 99 80 30 32 44 21 18 18 17 20 21 26 19 26 36 49 50 50 49 50 50 50 50 49 48 48 48 48 47 47 46 43 40 36 38 41 48 56 57
94 99 86 99 97 81 30 28 25 20 18 19 20 21 28 24 19 31 46 48 50 51 51 51 51 50 50 49 49 49 49 50 50 49 49 49 51 52 47 43 45 52 60
99 99 79 100 96 74 34 28 24 22 20 20 20 22 26 20 27 39 46 50 51 52 51 51 50 50 49 48 48 48 48 48 49 52 53 53 53 57 62 59 52 53 60
95 100 92 94 97 74 44 29 25 22 21 20 22 25 21 19 31 46 50 51 52 51 51 51 50 49 49 48 48 47 48 50 53 55 57 58 58 61 73 72 66 61 61
97 99 99 88 95 75 55 32 27 23 21 22 25 26 20 25 42 50 52 52 52 51 51 51 50 49 49 48 48 49 53 61 64 66 67 79 82 88 93 86 76 73 72
77 94 100 98 98 68 60 36 32 24 23 25 28 27 21 33 44 51 52 52 52 51 51 51 50 49 49 48 49 52 65 70 74 73 75 77 88 99 98 89 91 90 81
76 95 100 96 78 77 59 42 42 32 26 27 29 26 23 36 46 50 52 52 52 51 51 51 50 48 48 50 57 68 68 63 67 77 76 75 81 90 98 98 95 93 92
81 83 98 99 93 74 76 54 46 42 29 29 30 30 25 37 47 50 52 52 52 51 51 50 49 49 56 62 64 72 76 83 80 62 69 76 82 87 93 97 98 88 98
69 74 99 98 99 76 92 78 65 46 37 29 29 28 25 35 45 49 50 51 50 50 51 49 61 80 86 87 75 87 89 76 80 68 57 68 78 85 94 97 99 99 98
69 69 99 100 98 80 88 82 82 81 54 40 32 31 32 32 39 46 47 48 49 50 52 77 84 91 68 98 80 72 89 82 68 66 63 66 80 87 84 93 98 89 92
57 67 98 98 100 98 85 76 76 62 56 38 35 38 36 33 33 38 42 46 49 56 74 84 95 97 84 84 86 71 77 76 62 68 63 66 72 74 74 84 87 67 62